Date StartTime U_cm/s V_cm/s W_cm/s Ustd_cm/s Vstd_cm/s Wstd_cm/s Uvar_(cm/s)^2 Vvar_(cm/s)^2 Wvar_(cm/s)^2 KE_(m/s)^2 TurbulentKE_(m/s)^2 HorizWindSpeed_cm/s FrictionSpeec_cm/s DragCoef SpeedOfSound_m/s SonicTemperature_C Pressure_mb 
07/06/2014  00:00:00      -97.762      173.708      -20.995       51.024       59.064       28.045     2603.473     3488.603      786.524        2.352        0.344      199.329       23.123        0.013      345.757       23.513      865.628
07/06/2014  00:01:00     -128.818      143.917      -28.577       56.042       54.971       30.548     3140.683     3021.857      933.180        2.261        0.355      193.148       25.881        0.018      345.814       23.612      865.631
07/06/2014  00:02:00     -119.133      146.220      -26.935       52.944       51.305       26.168     2803.072     2632.217      684.781        2.121        0.306      188.607       27.035        0.021      345.792       23.573      865.637
07/06/2014  00:03:00      -89.618      200.468      -28.823       52.527       65.266       30.094     2759.107     4259.631      905.620        2.849        0.396      219.588       25.095        0.013      345.792       23.572      865.654
07/06/2014  00:04:00     -115.451      144.200      -34.246       52.226       72.595       33.013     2727.523     5270.042     1089.834        2.219        0.454      184.723       36.955        0.040      345.746       23.494      865.674
07/06/2014  00:05:00      -97.209      118.803      -18.403       43.582       65.088       48.441     1899.410     4236.393     2346.547        1.619        0.424      153.505       38.546        0.063      345.710       23.434      865.703
07/06/2014  00:06:00     -200.759      227.086      -56.761       58.604       73.021       39.967     3434.427     5332.009     1597.389        5.273        0.518      303.104       38.971        0.017      345.912       23.776      865.737
07/06/2014  00:07:00     -178.638      229.981      -37.868       57.602       88.884       40.098     3317.985     7900.446     1607.843        4.953        0.641      291.210       38.929        0.018      345.983       23.899      865.741
07/06/2014  00:08:00     -131.134      122.341      -33.673       59.322       51.219       32.834     3519.106     2623.349     1078.064        2.026        0.361      179.342       37.557        0.044      345.977       23.891      865.747
07/06/2014  00:09:00     -117.915       71.209      -25.408       34.009       25.598       17.891     1156.605      655.250      320.097        1.088        0.107      137.749       13.584        0.010      346.050       24.017      865.736
07/06/2014  00:10:00     -139.371      106.265      -26.513       71.271       56.149       35.941     5079.549     3152.736     1291.755        2.047        0.476      175.261       33.376        0.036      345.938       23.825      865.724
07/06/2014  00:11:00     -118.896       86.939      -22.259       59.502       49.448       34.706     3540.545     2445.076     1204.509        1.469        0.360      147.291       34.186        0.054      345.933       23.816      865.734
07/06/2014  00:12:00     -145.376       94.999      -28.065       49.069       53.406       33.227     2407.737     2852.200     1104.053        1.865        0.318      173.664       28.327        0.027      346.036       23.994      865.726
07/06/2014  00:13:00      -84.940      130.226      -26.463       53.109       50.900       31.119     2820.558     2590.809      968.398        1.563        0.319      155.479       35.337        0.052      345.914       23.785      865.708
07/06/2014  00:14:00      -67.907       91.775      -19.978       37.053       56.712       19.484     1372.889     3216.245      379.614        0.920        0.248      114.166       22.842        0.040      345.792       23.577      865.703
07/06/2014  00:15:00      -97.778       81.896      -26.026       44.428       44.688       18.537     1973.843     1997.030      343.637        1.063        0.216      127.544       14.700        0.013      345.825       23.634      865.692
07/06/2014  00:16:00      -71.906      114.834      -23.050       41.528       29.784       30.006     1724.540      887.077      900.337        1.120        0.176      135.489       19.165        0.020      345.769       23.536      865.675
07/06/2014  00:17:00      -73.690       98.695      -13.134       64.588       75.580       33.971     4171.643     5712.401     1154.010        1.319        0.552      123.170       38.579        0.098      345.816       23.616      865.669
07/06/2014  00:18:00      -48.687       87.411       -3.205       57.207       43.949       32.133     3272.691     1931.510     1032.554        0.813        0.312      100.055       33.402        0.111      345.868       23.707      865.664
07/06/2014  00:19:00      -96.877      134.699      -13.973       61.983       65.336       42.189     3841.881     4268.798     1779.886        1.881        0.495      165.919       33.825        0.042      345.901       23.761      865.662
07/06/2014  00:20:00      -23.701       80.558      -12.080       45.123       43.309       27.312     2036.071     1875.684      745.924        0.593        0.233       83.972       29.663        0.125      345.903       23.767      865.675
07/06/2014  00:21:00       17.258      127.338      -12.528       37.894       49.165       27.206     1435.918     2417.188      740.164        1.063        0.230      128.502       25.499        0.039      345.858       23.690      865.671
07/06/2014  00:22:00      -58.251      160.066      -21.264       41.007       41.840       24.876     1681.543     1750.565      618.814        1.676        0.203      170.335       18.718        0.012      345.982       23.902      865.668
07/06/2014  00:23:00       -6.840       66.746        0.153       25.481       32.160       19.681      649.298     1034.240      387.340        0.329        0.104       67.095       10.931        0.027      345.836       23.652      865.690
07/06/2014  00:24:00        9.003       33.691        4.323       26.654       31.391       14.116      710.457      985.370      199.263        0.156        0.095       34.873       12.415        0.127      345.531       23.127      865.701
07/06/2014  00:25:00       29.886       14.163        6.471       16.053       20.092       12.791      257.712      403.694      163.615        0.098        0.041       33.072        3.110        0.009      345.548       23.157      865.711
07/06/2014  00:26:00       13.194       19.473        8.974       39.661       24.100       13.065     1572.957      580.800      170.693        0.148        0.116       23.522       10.721        0.208      345.479       23.039      865.727
07/06/2014  00:27:00       11.308       35.250        2.326       26.040       30.536       14.672      678.068      932.461      215.281        0.160        0.091       37.020       17.109        0.214      345.382       22.872      865.739
07/06/2014  00:28:00       30.995       -2.177        8.117       36.564       19.622       14.337     1336.901      385.027      205.553        0.148        0.096       31.072       11.729        0.143      344.901       22.049      865.749
07/06/2014  00:29:00       39.264       11.101        6.781       18.251       13.472       15.993      333.092      181.505      255.788        0.124        0.039       40.803        6.540        0.026      344.867       21.990      865.764
07/06/2014  00:30:00        4.484       16.245       -7.118       11.530       16.146        6.624      132.938      260.682       43.879        0.039        0.022       16.852        7.012        0.173      345.493       23.062      865.781
07/06/2014  00:31:00       17.572       -4.582        4.304       10.785        8.935        7.274      116.307       79.836       52.917        0.030        0.012       18.159        5.731        0.100      345.565       23.187      865.799
07/06/2014  00:32:00       13.005      -11.664        3.827       18.028       16.128       13.717      324.999      260.120      188.143        0.055        0.039       17.470       11.218        0.412      345.553       23.166      865.803
07/06/2014  00:33:00       20.182      -50.471       -5.407       26.496       13.563       14.821      702.038      183.957      219.676        0.204        0.055       54.357       11.180        0.042      345.632       23.300      865.810
07/06/2014  00:34:00       26.095      -66.352      -10.569       20.356       21.827       12.886      414.384      476.433      166.059        0.313        0.053       71.299       10.717        0.023      345.568       23.191      865.820
07/06/2014  00:35:00       21.240      -70.143      -10.632       22.201       26.086       14.003      492.893      680.504      196.079        0.343        0.068       73.288        9.666        0.017      345.620       23.280      865.827
07/06/2014  00:36:00       14.772      -31.667       11.004       23.983       21.180       18.495      575.207      448.598      342.066        0.135        0.068       34.943        8.621        0.061      345.474       23.030      865.838
07/06/2014  00:37:00      -16.738      -34.006        0.556       28.868       31.665       19.217      833.361     1002.676      369.278        0.182        0.110       37.902        8.566        0.051      345.439       22.969      865.842
07/06/2014  00:38:00        8.336       -4.392       11.400       19.210       36.064       17.100      369.006     1300.632      292.395        0.109        0.098        9.423       20.512        4.739      345.490       23.058      865.846
07/06/2014  00:39:00       16.171       -2.728        4.271       12.941       18.632       10.549      167.464      347.140      111.272        0.046        0.031       16.400       10.776        0.432      345.695       23.410      865.861
07/06/2014  00:40:00       34.665       36.587       33.052       20.867       14.897       13.691      435.445      221.922      187.430        0.224        0.042       50.401        6.669        0.018      345.502       23.076      865.870
07/06/2014  00:41:00       14.115        2.555       29.298       23.366       33.388       12.908      545.986     1114.783      166.626        0.145        0.091       14.345        9.808        0.468      345.479       23.037      865.884
07/06/2014  00:42:00       -5.256      -59.495       -4.695       22.111       27.231       14.548      488.901      741.523      211.631        0.252        0.072       59.727       14.414        0.058      345.598       23.242      865.906
07/06/2014  00:43:00      -20.888      -11.395        6.046       21.373       14.973       12.164      456.824      224.191      147.974        0.072        0.041       23.794       12.085        0.258      345.370       22.853      865.934
07/06/2014  00:44:00      -15.648      -24.105       -5.163       19.616       31.982       12.090      384.775     1022.848      146.178        0.120        0.078       28.739       12.726        0.196      345.520       23.108      865.936
07/06/2014  00:45:00      -62.452      -36.245       -6.397       32.132       14.802       12.123     1032.449      219.107      146.976        0.333        0.070       72.207       13.468        0.035      345.364       22.840      865.930
07/06/2014  00:46:00      -72.557      -68.013       -4.071       30.870       22.986       18.398      952.928      528.369      338.505        0.586        0.091       99.450       18.141        0.033      345.441       22.974      865.937
07/06/2014  00:47:00      -75.046      -67.294       -2.656       29.776       37.526       17.019      886.603     1408.225      289.644        0.638        0.129      100.799       13.333        0.017      345.668       23.362      865.949
07/06/2014  00:48:00      -66.041      -43.389        0.382       42.434       20.748       12.288     1800.635      430.479      150.994        0.431        0.119       79.019       10.489        0.018      345.513       23.096      865.953
07/06/2014  00:49:00     -128.307      -56.940        2.183       38.017       34.286       17.184     1445.327     1175.541      295.301        1.131        0.146      140.374       15.018        0.011      345.391       22.887      865.957
07/06/2014  00:50:00      -91.906      -52.088        5.823       42.341       28.254       22.230     1792.726      798.262      494.155        0.714        0.154      105.640       19.433        0.034      345.305       22.740      865.960
07/06/2014  00:51:00     -129.033      -36.414       -5.548       39.319       31.656       20.612     1545.946     1002.082      424.852        1.049        0.149      134.073       17.553        0.017      345.262       22.668      865.955
07/06/2014  00:52:00     -124.656      -63.085        3.366       47.952       39.160       24.108     2299.395     1533.496      581.218        1.197        0.221      139.710       24.904        0.032      345.050       22.305      865.952
07/06/2014  00:53:00     -135.143      -34.159        0.897       38.177       31.179       20.836     1457.506      972.142      434.118        1.115        0.143      139.393       22.930        0.027      344.875       22.005      865.954
07/06/2014  00:54:00     -123.208      -38.146       -3.425       39.086       38.662       20.435     1527.714     1494.772      417.587        1.004        0.172      128.978       16.243        0.016      344.850       21.961      865.956
07/06/2014  00:55:00      -96.685      -14.436       -0.772       45.019       30.754       23.459     2026.714      945.792      550.346        0.654        0.176       97.757       21.611        0.049      344.715       21.730      865.954
07/06/2014  00:56:00      -99.580        1.299       -2.559       40.580       34.445       20.832     1646.739     1186.479      433.993        0.660        0.163       99.589       21.373        0.046      344.613       21.556      865.956
07/06/2014  00:57:00     -108.080       17.735      -11.789       40.691       27.843       20.437     1655.736      775.241      417.672        0.749        0.142      109.525       12.455        0.013      344.565       21.475      865.951
07/06/2014  00:58:00     -109.620       10.873      -10.417       55.436       41.080       19.716     3073.167     1687.571      388.716        0.870        0.257      110.157       15.759        0.020      344.428       21.239      865.961
07/06/2014  00:59:00     -111.169      -16.151      -10.392       45.616       42.022       22.259     2080.838     1765.832      495.460        0.853        0.217      112.336       18.627        0.027      344.339       21.088      865.973
07/06/2014  01:00:00     -106.836      -35.961        1.774       51.860       41.649       23.588     2689.488     1734.664      556.399        0.884        0.249      112.726       20.508        0.033      344.193       20.838      865.980
07/06/2014  01:01:00      -94.771        0.883       -1.919       54.418       31.169       25.192     2961.345      971.527      634.621        0.678        0.228       94.775       25.408        0.072      344.112       20.701      865.986
07/06/2014  01:02:00     -137.282       -9.074      -16.528       34.293       28.573       17.152     1176.030      816.413      294.194        1.074        0.114      137.581       14.698        0.011      344.145       20.757      865.998
07/06/2014  01:03:00     -121.418      -60.907       -9.305       45.783       36.939       25.777     2096.066     1364.518      664.458        1.133        0.206      135.838       23.157        0.029      343.998       20.505      866.015
07/06/2014  01:04:00      -68.176       -4.551       -0.398       35.105       21.936       20.940     1232.333      481.169      438.481        0.341        0.108       68.328       16.889        0.061      344.054       20.603      866.016
07/06/2014  01:05:00      -70.025      -23.837      -12.546       42.316       26.817       27.687     1790.658      719.159      766.558        0.445        0.164       73.971       24.358        0.108      344.181       20.818      866.016
07/06/2014  01:06:00      -53.491      -15.341       -9.169       29.866       29.140       20.920      891.963      849.112      437.626        0.268        0.109       55.647       18.950        0.116      344.171       20.801      866.020
07/06/2014  01:07:00      -71.108      -44.502      -10.740       34.050       25.161       23.261     1159.435      633.056      541.097        0.474        0.117       83.886        5.129        0.004      344.239       20.918      866.029
07/06/2014  01:08:00     -107.462      -28.462       -7.707       24.091       20.837       15.872      580.392      434.193      251.923        0.684        0.063      111.167       10.617        0.009      344.179       20.813      866.029
07/06/2014  01:09:00     -119.883      -37.558      -10.195       23.727       19.076       15.418      562.979      363.910      237.727        0.853        0.058      125.628       11.461        0.008      344.124       20.720      866.028
07/06/2014  01:10:00      -91.302      -25.746        2.982       37.626       20.094       18.836     1415.696      403.749      354.788        0.559        0.109       94.862       16.824        0.031      344.032       20.561      866.049
07/06/2014  01:11:00      -81.311       -8.815       -1.595       46.143       25.512       19.351     2129.161      650.870      374.472        0.492        0.158       81.787       20.307        0.062      344.031       20.561      866.054
07/06/2014  01:12:00     -124.407      -38.098       -2.182       31.947       37.335       17.568     1020.612     1393.884      308.620        0.983        0.136      130.110       12.540        0.009      344.044       20.584      866.060
07/06/2014  01:13:00     -116.065      -38.628       -7.906       42.124       31.623       16.222     1774.457     1000.015      263.146        0.903        0.152      122.324       22.566        0.034      344.005       20.518      866.072
07/06/2014  01:14:00     -121.644       -1.114      -19.217       28.623       28.465       18.731      819.293      810.276      350.852        0.857        0.099      121.649       14.326        0.014      343.993       20.497      866.064
07/06/2014  01:15:00      -81.564        2.657       -1.966       30.264       21.111       18.047      915.926      445.665      325.709        0.418        0.084       81.607       15.511        0.036      343.991       20.493      866.052
07/06/2014  01:16:00      -88.285       -4.960        1.611       34.789       19.628       18.518     1210.286      385.252      342.924        0.488        0.097       88.424       18.769        0.045      344.040       20.577      866.054
07/06/2014  01:17:00      -88.755      -27.181       -3.999       32.770       20.362       13.002     1073.842      414.621      169.064        0.514        0.083       92.824       12.965        0.020      344.088       20.658      866.055
07/06/2014  01:18:00     -113.390      -30.734       -7.912       48.756       22.425       18.702     2377.113      502.903      349.780        0.855        0.161      117.481       23.156        0.039      344.166       20.792      866.051
07/06/2014  01:19:00     -109.906      -17.796       -6.744       22.021       15.835       13.735      484.919      250.755      188.653        0.668        0.046      111.338       10.287        0.009      344.010       20.524      866.060
07/06/2014  01:20:00     -110.490      -26.496       -4.891       25.908       16.210       14.700      671.250      262.776      216.098        0.704        0.058      113.623       13.709        0.015      344.109       20.694      866.067
07/06/2014  01:21:00     -124.481      -19.689      -17.287       32.261       20.149       18.162     1040.760      405.987      329.844        0.898        0.089      126.029       19.186        0.023      344.080       20.646      866.067
07/06/2014  01:22:00     -117.344      -42.508      -12.377       24.940       22.427       19.752      621.998      502.969      390.157        0.862        0.076      124.806       16.415        0.017      343.999       20.507      866.067
07/06/2014  01:23:00      -83.741       14.536      -13.219       42.772       30.431       21.274     1829.406      926.069      452.598        0.530        0.160       84.993       17.463        0.042      343.922       20.375      866.068
07/06/2014  01:24:00     -139.212       42.867       -9.204       72.249       47.373       38.110     5219.981     2244.175     1452.355        1.511        0.446      145.663       33.468        0.053      344.119       20.711      866.064
07/06/2014  01:25:00     -158.311       56.016      -10.854       46.738       42.589       30.845     2184.457     1813.846      951.387        1.663        0.247      167.929       25.115        0.022      344.095       20.670      866.073
07/06/2014  01:26:00     -187.973       63.368      -13.029       62.610       40.874       32.054     3920.063     1670.678     1027.460        2.307        0.331      198.367       23.550        0.014      343.972       20.458      866.067
07/06/2014  01:27:00     -200.695       78.016      -21.776       65.337       37.469       29.490     4268.912     1403.909      869.657        2.669        0.327      215.325       24.500        0.013      343.898       20.330      866.058
07/06/2014  01:28:00     -178.021       58.064      -20.621       62.793       40.672       29.913     3942.915     1654.204      894.779        2.099        0.325      187.251       28.449        0.023      343.844       20.240      866.054
07/06/2014  01:29:00     -179.040       83.979      -30.063       52.073       43.045       34.947     2711.589     1852.902     1221.318        2.290        0.289      197.756       28.610        0.021      343.959       20.436      866.047
07/06/2014  01:30:00     -112.370        9.935      -14.092       51.495       62.923       24.908     2651.774     3959.335      620.397        1.008        0.362      112.809       20.320        0.032      343.935       20.397      866.042
07/06/2014  01:31:00     -125.405      -73.822       -4.564       81.657       49.964       26.707     6667.869     2496.360      713.286        1.554        0.494      145.520       30.195        0.043      343.799       20.166      866.041
07/06/2014  01:32:00     -184.003      -70.903      -10.266       46.613       34.952       29.586     2172.762     1221.608      875.330        2.163        0.213      197.191       31.034        0.025      343.707       20.007      866.051
07/06/2014  01:33:00     -185.582      -26.231      -19.287       42.102       39.700       33.558     1772.583     1576.125     1126.136        1.999        0.224      187.426       27.782        0.022      343.848       20.246      866.060
07/06/2014  01:34:00     -150.788       27.720      -20.537       41.409       57.796       26.946     1714.730     3340.426      726.088        1.485        0.289      153.314       27.210        0.031      343.879       20.300      866.076
07/06/2014  01:35:00     -156.857      -63.787      -10.279       43.751       51.652       28.044     1914.149     2667.882      786.470        1.707        0.268      169.331       19.343        0.013      343.796       20.159      866.089
07/06/2014  01:36:00     -143.537      -18.223      -15.196       32.304       39.547       23.456     1043.529     1563.997      550.171        1.216        0.158      144.689       17.326        0.014      343.803       20.173      866.101
07/06/2014  01:37:00     -142.670       11.364      -16.051       36.806       29.881       19.787     1354.664      892.858      391.518        1.169        0.132      143.122       21.304        0.022      343.878       20.300      866.106
07/06/2014  01:38:00     -160.513       22.769      -19.608       25.090       25.273       21.314      629.483      638.700      454.293        1.419        0.086      162.119       17.524        0.012      343.992       20.495      866.113
07/06/2014  01:39:00     -171.278       21.221      -13.795       26.339       27.302       13.159      693.766      745.422      173.171        1.579        0.081      172.588       10.572        0.004      344.032       20.562      866.128
07/06/2014  01:40:00     -121.866       11.415       -5.995       33.221       31.362       23.053     1103.661      983.562      531.441        0.882        0.131      122.400       16.571        0.018      344.044       20.584      866.140
07/06/2014  01:41:00     -147.784       52.640       -4.726       60.599       28.672       21.547     3672.292      822.079      464.275        1.480        0.248      156.879       19.291        0.015      344.103       20.684      866.149
07/06/2014  01:42:00     -131.880       50.720       -4.416       50.918       31.699       31.337     2592.606     1004.822      981.986        1.228        0.229      141.298       24.352        0.030      344.017       20.537      866.149
07/06/2014  01:43:00     -177.325       57.166      -20.555       39.495       26.985       24.490     1559.834      728.164      599.765        1.901        0.144      186.312       13.894        0.006      344.158       20.777      866.162
07/06/2014  01:44:00     -145.803       30.193      -13.410       21.929       23.751       15.906      480.886      564.115      252.999        1.182        0.065      148.897       11.176        0.006      344.074       20.635      866.162
07/06/2014  01:45:00     -168.764       49.489      -20.335       34.366       22.426       17.148     1181.014      502.936      294.060        1.666        0.099      175.870        8.385        0.002      344.254       20.943      866.173
07/06/2014  01:46:00     -135.646       20.175      -14.019       43.735       44.021       25.879     1912.773     1937.831      669.715        1.176        0.226      137.138       17.812        0.017      344.125       20.723      866.172
07/06/2014  01:47:00      -94.291       30.801       -7.498       44.984       32.112       27.365     2023.531     1031.169      748.865        0.685        0.190       99.194       25.102        0.064      344.218       20.881      866.181
07/06/2014  01:48:00     -101.829      -13.972       -7.285       26.242       34.193       16.591      688.618     1169.149      275.253        0.637        0.107      102.783       10.386        0.010      344.052       20.597      866.183
07/06/2014  01:49:00      -74.992      -40.235       -0.641       43.625       44.361       23.958     1903.106     1967.871      573.976        0.584        0.222       85.104       22.010        0.067      343.903       20.342      866.192
07/06/2014  01:50:00      -85.898      -23.938       -0.493       40.081       33.680       17.400     1606.482     1134.356      302.748        0.550        0.152       89.171       17.635        0.039      343.959       20.439      866.197
07/06/2014  01:51:00     -124.236      -11.493       -6.369       38.857       34.199       22.780     1509.844     1169.545      518.924        0.940        0.160      124.766       19.358        0.024      343.911       20.356      866.204
07/06/2014  01:52:00     -153.324        2.285      -19.447       63.196       29.889       23.436     3993.762      893.328      549.262        1.466        0.272      153.341       20.547        0.018      344.057       20.605      866.217
07/06/2014  01:53:00      -76.281      -10.023        0.138       43.611       30.113       19.180     1901.925      906.803      367.869        0.455        0.159       76.937       17.954        0.054      343.963       20.444      866.214
07/06/2014  01:54:00      -96.125      -15.551       -4.716       33.955       39.390       24.063     1152.926     1551.599      579.040        0.639        0.164       97.375       18.627        0.037      343.928       20.385      866.218
07/06/2014  01:55:00      -77.663       -1.982        0.419       34.010       30.515       16.042     1156.653      931.143      257.351        0.419        0.117       77.688       15.950        0.042      343.894       20.328      866.218
07/06/2014  01:56:00      -84.342       13.768       -6.400       30.995       30.784       18.492      960.683      947.677      341.958        0.480        0.113       85.458       14.796        0.030      343.932       20.392      866.211
07/06/2014  01:57:00     -112.134       11.778      -11.924       24.546       24.557       18.109      602.506      603.040      327.928        0.719        0.077      112.751        9.275        0.007      343.973       20.463      866.224
07/06/2014  01:58:00      -98.778      -29.262      -18.457       40.009       25.084       18.639     1600.758      629.230      347.422        0.677        0.129      103.021       19.533        0.036      343.884       20.311      866.234
07/06/2014  01:59:00      -31.841        7.038        5.751       30.151       35.837       23.007      909.085     1284.262      529.344        0.191        0.136       32.610       18.290        0.315      343.703       20.002      866.254
07/06/2014  02:00:00     -114.411        2.194       -6.657       51.068       31.268       22.545     2607.928      977.668      508.258        0.862        0.205      114.432       23.122        0.041      343.978       20.470      866.271
07/06/2014  02:01:00      -95.381      -32.850       -3.747       25.864       24.646       17.440      668.967      607.428      304.169        0.589        0.079      100.879       15.898        0.025      343.883       20.308      866.270
07/06/2014  02:02:00     -101.441      -29.107       -2.468       26.350       31.911       19.915      694.322     1018.315      396.590        0.663        0.105      105.534        9.952        0.009      343.860       20.270      866.272
07/06/2014  02:03:00      -85.706      -13.790       -4.237       38.223       20.069       17.411     1460.964      402.760      303.126        0.486        0.108       86.808       18.132        0.044      343.739       20.063      866.276
07/06/2014  02:04:00      -47.638       16.101        2.166       31.736       27.093       19.872     1007.184      734.040      394.915        0.233        0.107       50.285       17.585        0.122      343.599       19.823      866.261
07/06/2014  02:05:00      -69.256       18.517       -7.243       49.394       26.885       20.670     2439.781      722.798      427.248        0.439        0.179       71.689       14.210        0.039      343.621       19.862      866.242
07/06/2014  02:06:00      -95.398      -15.762       -1.974       55.197       24.525       21.576     3046.657      601.488      465.516        0.673        0.206       96.692       27.331        0.080      343.736       20.059      866.227
07/06/2014  02:07:00      -89.530      -25.832        1.055       38.311       32.446       16.968     1467.764     1052.712      287.916        0.575        0.140       93.182       15.579        0.028      343.632       19.880      866.229
07/06/2014  02:08:00      -52.592      -36.730       15.862       56.886       47.993       25.360     3236.028     2303.308      643.130        0.527        0.309       64.149       27.301        0.181      343.569       19.772      866.218
07/06/2014  02:09:00      -79.106      -73.597        6.997       63.063       49.922       29.928     3976.948     2492.165      895.711        0.954        0.368      108.048       29.009        0.072      343.681       19.963      866.209
07/06/2014  02:10:00     -132.563      -77.989       -9.602       46.996       31.357       23.984     2208.583      983.265      575.211        1.376        0.188      153.803       28.921        0.035      343.720       20.029      866.206
07/06/2014  02:11:00     -111.512      -68.273       -7.478       41.822       33.298       22.249     1749.081     1108.777      495.026        1.025        0.168      130.752       16.823        0.017      343.745       20.072      866.210
07/06/2014  02:12:00     -131.220      -89.986        1.160       60.843       45.600       29.124     3701.913     2079.356      848.215        1.597        0.331      159.110       28.957        0.033      343.673       19.949      866.202
07/06/2014  02:13:00     -130.987      -87.205        3.198       70.634       40.850       29.648     4989.196     1668.703      879.022        1.615        0.377      157.360       34.443        0.048      343.621       19.860      866.191
07/06/2014  02:14:00     -131.739      -75.088       -6.109       52.455       41.208       24.425     2751.480     1698.134      596.592        1.404        0.252      151.635       24.956        0.027      343.630       19.876      866.188
07/06/2014  02:15:00     -103.189      -83.152       -1.273       39.338       40.484       23.581     1547.439     1638.975      556.053        1.065        0.187      132.522       23.180        0.031      343.624       19.866      866.176
07/06/2014  02:16:00     -120.519      -73.606       -6.431       38.689       27.449       20.465     1496.828      753.433      418.824        1.133        0.133      141.218       17.067        0.015      343.683       19.966      866.160
07/06/2014  02:17:00      -80.977      -79.094       -3.768       34.491       22.985       20.843     1189.618      528.325      434.447        0.749        0.108      113.195       15.602        0.019      343.693       19.984      866.153
07/06/2014  02:18:00      -56.988      -55.685        1.639       50.597       30.384       22.371     2560.040      923.195      500.456        0.517        0.199       79.677       15.349        0.037      343.731       20.049      866.154
07/06/2014  02:19:00      -34.314      -16.001        6.842       42.727       25.158       16.904     1825.566      632.933      285.745        0.211        0.137       37.861       15.937        0.177      343.749       20.081      866.141
07/06/2014  02:20:00      -75.983      -35.833        2.444       41.071       26.347       22.530     1686.835      694.166      507.587        0.498        0.144       84.008       22.907        0.074      343.711       20.015      866.130
07/06/2014  02:21:00      -78.657      -38.906       -3.201       39.485       21.853       14.777     1559.096      477.572      218.361        0.498        0.113       87.753       18.625        0.045      343.677       19.957      866.111
07/06/2014  02:22:00      -71.064      -29.031        0.658       32.094       20.900       17.864     1030.030      436.812      319.109        0.384        0.089       76.766       16.921        0.049      343.649       19.910      866.084
07/06/2014  02:23:00      -84.874      -40.006       -0.686       28.841       21.822       14.748      831.804      476.202      217.491        0.516        0.076       93.830        8.079        0.007      343.742       20.067      866.063
07/06/2014  02:24:00     -103.360      -51.404       -1.554       19.043       20.559       12.574      362.618      422.687      158.113        0.714        0.047      115.437        9.738        0.007      343.699       19.993      866.054
07/06/2014  02:25:00      -65.764      -33.537       -3.680       49.804       30.634       18.250     2480.441      938.419      333.072        0.461        0.188       73.822       20.838        0.080      343.580       19.792      866.034
07/06/2014  02:26:00      -84.876      -48.643       -0.841       31.012       21.964       18.276      961.746      482.412      334.005        0.567        0.089       97.827       12.024        0.015      343.619       19.858      866.011
07/06/2014  02:27:00      -93.629      -49.909       -9.114       17.991       13.812       11.784      323.681      190.785      138.869        0.600        0.033      106.101        6.501        0.004      343.650       19.910      865.998
07/06/2014  02:28:00      -80.580      -19.397       -3.867       21.007       21.338       11.643      441.285      455.301      135.565        0.396        0.052       82.882        5.155        0.004      343.611       19.845      865.991
07/06/2014  02:29:00      -21.451       -5.267        8.423       21.877       17.775       10.219      478.623      315.944      104.431        0.073        0.045       22.088       12.835        0.338      343.386       19.462      865.979
07/06/2014  02:30:00      -45.655        4.283       -0.838       40.003       21.208       11.231     1600.216      449.795      126.135        0.214        0.109       45.855       10.013        0.048      343.369       19.432      865.965
07/06/2014  02:31:00      -70.887       -8.627       -6.460       22.768       22.660       14.952      518.399      513.493      223.567        0.320        0.063       71.410       12.844        0.032      343.565       19.766      865.976
07/06/2014  02:32:00      -72.896      -26.759       -0.425       29.341       25.635       18.030      860.893      657.160      325.089        0.394        0.092       77.652       16.924        0.048      343.562       19.761      865.993
07/06/2014  02:33:00      -30.710      -19.239        5.664       22.599       26.634       16.274      510.720      709.386      264.833        0.141        0.074       36.239       12.966        0.128      343.372       19.440      866.011
07/06/2014  02:34:00      -38.311      -22.180        0.562       23.772       14.576       10.721      565.131      212.474      114.938        0.143        0.045       44.268       12.104        0.075      343.439       19.550      866.027
07/06/2014  02:35:00       30.627      -41.801        9.409       25.697       26.236       21.818      660.342      688.347      476.035        0.230        0.091       51.820       16.186        0.098      343.421       19.521      866.047
07/06/2014  02:36:00       52.227      -63.828      -15.567       43.304       45.943       32.427     1875.230     2110.782     1051.511        0.604        0.252       82.472       28.031        0.116      343.348       19.397      866.065
07/06/2014  02:37:00       24.202      -25.099       13.675       36.565       31.983       31.956     1337.028     1022.903     1021.161        0.239        0.169       34.867       19.884        0.325      343.391       19.467      866.079
07/06/2014  02:38:00       24.550      -21.247       19.868       30.377       32.339       24.598      922.769     1045.812      605.043        0.201        0.129       32.467       18.405        0.321      343.197       19.139      866.100
07/06/2014  02:39:00       24.867      -29.666       12.561       21.662       30.568       17.647      469.258      934.375      311.429        0.169        0.086       38.710       20.778        0.288      343.431       19.539      866.109
07/06/2014  02:40:00      -35.216       -4.620       14.811       31.793       31.121       18.861     1010.807      968.513      355.726        0.191        0.117       35.517       15.340        0.187      343.468       19.601      866.114
07/06/2014  02:41:00      -20.146       30.472       19.857       17.771       13.117       18.916      315.800      172.052      357.819        0.129        0.042       36.530        7.094        0.038      343.340       19.384      866.121
07/06/2014  02:42:00        0.797       12.580       13.858       28.012       12.358       18.194      784.690      152.723      331.004        0.081        0.063       12.606       14.699        1.360      343.095       18.966      866.125
07/06/2014  02:43:00       10.946       11.407       14.650       30.202       23.675       21.596      912.139      560.498      466.408        0.120        0.097       15.809        6.408        0.164      342.892       18.619      866.122
07/06/2014  02:44:00      -20.174      -39.977        9.904       44.256       30.899       25.639     1958.555      954.762      657.345        0.284        0.179       44.778       16.461        0.135      343.239       19.210      866.124
07/06/2014  02:45:00      -80.776      -61.001        0.801       38.479       30.110       21.991     1480.646      906.590      483.618        0.656        0.144      101.222       19.699        0.038      343.425       19.527      866.135
07/06/2014  02:46:00       -1.814      -23.672        5.491       53.650       20.401       19.617     2878.359      416.198      384.813        0.214        0.184       23.742       25.825        1.183      343.299       19.314      866.134
07/06/2014  02:47:00       12.477        5.091        6.179       26.533       15.896       20.060      704.021      252.687      402.386        0.079        0.068       13.475       13.066        0.940      343.060       18.907      866.134
07/06/2014  02:48:00      -21.097        7.411       16.794       14.060       22.197       18.472      197.689      492.714      341.197        0.091        0.052       22.361       16.527        0.546      343.052       18.891      866.149
07/06/2014  02:49:00      -23.367      -18.715       14.267       32.376       19.365       11.823     1048.192      375.017      139.778        0.133        0.078       29.938        9.602        0.103      343.483       19.625      866.162
07/06/2014  02:50:00      -39.318      -32.814        6.025       29.894       22.381       12.653      893.650      500.922      160.092        0.211        0.078       51.212       12.547        0.060      343.700       19.994      866.173
07/06/2014  02:51:00      -66.468      -25.757        3.144       23.068       21.300       16.149      532.138      453.678      260.778        0.317        0.062       71.284        6.329        0.008      343.669       19.944      866.187
07/06/2014  02:52:00      -60.034      -78.170       -9.169       49.256       36.659       28.662     2426.184     1343.868      821.523        0.719        0.230       98.563       18.430        0.035      343.566       19.766      866.194
07/06/2014  02:53:00      -24.130      -43.110        9.498       34.360       40.281       16.373     1180.628     1622.596      268.068        0.280        0.154       49.403       13.024        0.069      343.477       19.616      866.190
07/06/2014  02:54:00      -57.272      -31.516        6.282       40.654       32.150       24.823     1652.716     1033.636      616.189        0.381        0.165       65.371       19.386        0.088      343.520       19.690      866.178
07/06/2014  02:55:00     -132.222      -87.703       -4.550       30.294       32.630       24.773      917.745     1064.737      613.721        1.390        0.130      158.664       20.980        0.017      343.385       19.460      866.176
07/06/2014  02:56:00     -116.122      -67.952       -0.597       52.945       32.217       23.348     2803.169     1037.936      545.115        1.124        0.219      134.543       24.936        0.034      343.347       19.394      866.175
07/06/2014  02:57:00     -112.947      -68.879       -2.296       47.088       30.752       23.005     2217.324      945.710      529.232        1.060        0.185      132.292       23.565        0.032      343.372       19.435      866.176
07/06/2014  02:58:00     -113.693      -39.568       -3.224       21.100       24.241       14.161      445.197      587.612      200.532        0.787        0.062      120.381        7.351        0.004      343.349       19.397      866.174
07/06/2014  02:59:00      -89.131      -23.124       -6.758       15.453       16.187        9.256      238.810      262.025       85.665        0.456        0.029       92.082        7.979        0.008      343.363       19.424      866.174
07/06/2014  03:00:00      -87.013       -1.167       -9.124       20.142       18.148       14.488      405.712      329.346      209.916        0.430        0.047       87.021        7.511        0.007      343.185       19.119      866.179
07/06/2014  03:01:00     -105.090      -22.780       -9.038       19.113       17.113       11.996      365.322      292.841      143.914        0.622        0.040      107.530        9.293        0.007      343.138       19.039      866.190
07/06/2014  03:02:00      -97.638      -19.058       -8.796       28.644       17.702       16.272      820.484      313.357      264.772        0.569        0.070       99.481       14.641        0.022      343.156       19.070      866.193
07/06/2014  03:03:00      -80.328       -8.397       -7.144       32.477       25.083       16.316     1054.748      629.177      266.209        0.426        0.098       80.766       17.605        0.048      343.128       19.022      866.189
07/06/2014  03:04:00      -86.192      -14.720       -4.846       26.167       18.890       12.761      684.699      356.819      162.848        0.444        0.060       87.440       13.136        0.023      343.110       18.992      866.193
07/06/2014  03:05:00     -100.309      -30.097       -3.766       24.878       28.255       18.311      618.932      798.334      335.303        0.637        0.088      104.727       14.751        0.020      343.119       19.007      866.190
07/06/2014  03:06:00     -132.790       -4.716       -7.352       43.158       26.266       26.093     1862.638      689.882      680.832        1.047        0.162      132.874       26.248        0.039      342.922       18.671      866.190
07/06/2014  03:07:00     -125.465      -26.210       -3.047       35.252       28.691       19.190     1242.674      823.200      368.266        0.944        0.122      128.174       14.370        0.013      342.879       18.598      866.173
07/06/2014  03:08:00     -100.990      -30.759       -0.502       38.980       58.543       25.402     1519.437     3427.311      645.280        0.837        0.280      105.570       21.025        0.040      342.883       18.604      866.156
07/06/2014  03:09:00      -64.497       -0.595        0.626       46.217       34.272       22.233     2136.010     1174.550      494.312        0.398        0.190       64.500       22.385        0.120      342.706       18.302      866.154
07/06/2014  03:10:00      -80.770        2.873       -1.675       52.217       35.642       22.320     2726.593     1270.348      498.191        0.551        0.225       80.821       26.107        0.104      342.714       18.316      866.156
07/06/2014  03:11:00      -87.065      -28.161       -9.234       28.228       36.232       19.275      796.795     1312.759      371.544        0.547        0.124       91.506        9.838        0.012      342.877       18.594      866.148
07/06/2014  03:12:00      -84.518       -2.222        4.780       63.401       47.213       27.696     4019.737     2229.061      767.057        0.709        0.351       84.547       27.561        0.106      342.818       18.493      866.150
07/06/2014  03:13:00      -89.295       -8.642        6.251       48.527       34.337       25.880     2354.833     1179.007      669.795        0.614        0.210       89.712       21.151        0.056      342.758       18.392      866.166
07/06/2014  03:14:00     -138.027      -23.355       -3.087       39.192       30.559       20.919     1536.029      933.864      437.618        1.126        0.145      139.989       20.619        0.022      342.777       18.424      866.187
07/06/2014  03:15:00     -139.818      -25.069       -5.651       50.926       30.732       19.150     2593.424      944.476      366.733        1.206        0.195      142.048       20.986        0.022      342.754       18.385      866.208
07/06/2014  03:16:00     -107.707      -20.437        5.508       43.407       38.843       18.263     1884.141     1508.800      333.528        0.789        0.186      109.629       19.228        0.031      342.726       18.335      866.219
07/06/2014  03:17:00      -76.649      -29.383        8.632       48.782       41.246       20.133     2379.677     1701.220      405.322        0.565        0.224       82.088       23.151        0.080      342.718       18.322      866.236
07/06/2014  03:18:00     -147.767       -7.575       -3.093       43.767       33.272       24.407     1915.564     1107.019      595.718        1.276        0.181      147.961       24.892        0.028      342.681       18.260      866.245
07/06/2014  03:19:00     -140.579      -25.128      -13.027       36.077       39.503       18.961     1301.568     1560.470      359.502        1.189        0.161      142.807       18.189        0.016      342.729       18.340      866.251
07/06/2014  03:20:00      -52.960      -35.464        2.882       46.122       23.934       19.538     2127.214      572.851      381.726        0.358        0.154       63.737       21.170        0.110      342.730       18.345      866.252
07/06/2014  03:21:00      -33.052      -23.779        1.019       22.763       19.809       13.677      518.162      392.380      187.070        0.138        0.055       40.717       11.901        0.085      342.789       18.444      866.258
07/06/2014  03:22:00      -20.186      -21.486        1.779       20.945       18.161        9.768      438.703      329.834       95.415        0.087        0.043       29.481        9.079        0.095      342.710       18.309      866.270
07/06/2014  03:23:00      -42.369       -0.517       -8.972        8.828        8.737        9.270       77.935       76.338       85.942        0.106        0.012       42.372        6.341        0.022      342.748       18.373      866.285
07/06/2014  03:24:00      -39.438       -3.113      -13.831        8.599        7.548        9.008       73.944       56.966       81.139        0.098        0.011       39.560        5.033        0.016      342.968       18.749      866.288
07/06/2014  03:25:00      -28.341      -25.292       -3.947       19.452       13.067        8.446      378.366      170.742       71.337        0.104        0.031       37.986        4.756        0.016      342.944       18.708      866.287
07/06/2014  03:26:00       16.796      -31.955       -4.959       19.177       15.544       20.101      367.752      241.621      404.063        0.117        0.051       36.100       12.094        0.112      342.639       18.189      866.302
07/06/2014  03:27:00      -12.896      -19.341      -10.416       29.230       11.421        8.769      854.387      130.435       76.890        0.086        0.053       23.246       11.530        0.246      342.787       18.441      866.295
07/06/2014  03:28:00      -32.579       -9.570       -3.268        8.603       11.599        8.530       74.006      134.525       72.769        0.072        0.014       33.955        6.825        0.040      343.051       18.890      866.279
07/06/2014  03:29:00      -43.892       -6.915       -4.965       11.940       15.528        6.181      142.552      241.126       38.203        0.121        0.021       44.433        5.990        0.018      343.129       19.025      866.267
07/06/2014  03:30:00      -99.101      -18.152      -10.584       31.213       21.223       10.975      974.282      450.436      120.462        0.590        0.077      100.750        8.400        0.007      342.841       18.533      866.263
07/06/2014  03:31:00     -137.839      -45.432      -11.292       11.217       12.287        9.638      125.814      150.978       92.884        1.078        0.018      145.133        5.732        0.002      342.736       18.356      866.248
07/06/2014  03:32:00     -112.917      -17.185       -6.539       24.694       19.524       16.241      609.807      381.189      263.778        0.717        0.063      114.217       13.700        0.014      342.732       18.348      866.240
07/06/2014  03:33:00      -57.821      -29.026       -1.382       38.359       20.391       13.121     1471.445      415.804      172.152        0.312        0.103       64.698       14.690        0.052      342.649       18.206      866.254
07/06/2014  03:34:00       -2.330      -30.315        9.344        9.172       11.386        9.183       84.118      129.631       84.336        0.065        0.015       30.404        5.645        0.034      342.822       18.500      866.258
07/06/2014  03:35:00       27.165      -34.937       -0.166       37.033       16.312       16.065     1371.446      266.085      258.081        0.193        0.095       44.255        9.665        0.048      342.656       18.219      866.273
07/06/2014  03:36:00       19.577      -25.072       11.286       21.346       30.765       19.902      455.640      946.477      396.102        0.147        0.090       31.810       14.165        0.198      342.586       18.099      866.300
07/06/2014  03:37:00      -10.547      -21.197       18.405       14.123       19.613       16.041      199.447      384.671      257.310        0.087        0.042       23.676        8.480        0.128      342.757       18.391      866.319
07/06/2014  03:38:00      -51.839      -12.026        3.283       30.533       13.521       11.117      932.238      182.812      123.587        0.204        0.062       53.216        4.215        0.006      342.894       18.623      866.319
07/06/2014  03:39:00      -57.596      -39.889       -0.634       34.738       21.143       15.671     1206.712      447.033      245.572        0.340        0.095       70.060       11.498        0.027      342.854       18.556      866.308
07/06/2014  03:40:00      -48.245      -12.943       -1.707       36.879       20.342       13.982     1360.095      413.790      195.484        0.223        0.098       49.951       14.969        0.090      342.877       18.595      866.300
07/06/2014  03:41:00      -99.920      -22.277       -2.711       29.962       24.316       18.107      897.721      591.253      327.868        0.615        0.091      102.374       16.719        0.027      342.729       18.343      866.292
07/06/2014  03:42:00      -85.804      -17.866       -5.465       27.720       24.494       16.677      768.374      599.963      278.106        0.468        0.082       87.645       11.218        0.016      342.682       18.261      866.288
07/06/2014  03:43:00      -67.562      -32.211        1.078       26.628       24.140       12.996      709.067      582.750      168.906        0.353        0.073       74.848       11.676        0.024      342.599       18.122      866.288
07/06/2014  03:44:00     -102.526      -34.853       -6.367       19.733       17.527       10.276      389.403      307.186      105.605        0.628        0.040      108.288       10.441        0.009      342.557       18.050      866.295
07/06/2014  03:45:00     -104.887      -61.607        3.154       28.895       22.234       14.169      834.915      494.370      200.774        0.817        0.077      121.641       12.789        0.011      342.630       18.174      866.315
07/06/2014  03:46:00     -131.882      -65.976        0.441       32.074       25.209       16.668     1028.734      635.518      277.815        1.184        0.097      147.464       12.697        0.007      342.648       18.204      866.330
07/06/2014  03:47:00     -128.762      -36.461        2.764       39.003       36.243       18.666     1521.217     1313.524      348.430        1.055        0.159      133.824       14.967        0.013      342.631       18.174      866.337
07/06/2014  03:48:00     -132.753       -3.524       -4.301       40.114       23.861       22.076     1609.110      569.338      487.332        1.016        0.133      132.800       23.323        0.031      342.477       17.913      866.350
07/06/2014  03:49:00     -127.076      -18.905       -8.591       37.300       19.338       20.019     1391.325      373.945      400.772        0.937        0.108      128.474       18.451        0.021      342.446       17.862      866.366
07/06/2014  03:50:00      -79.391       -8.362        1.597       31.938       29.719       17.121     1020.041      883.231      293.138        0.429        0.110       79.831       13.425        0.028      342.438       17.849      866.375
07/06/2014  03:51:00      -87.822      -12.278       -5.533       26.946       18.592       16.077      726.107      345.676      258.457        0.461        0.067       88.677       13.165        0.022      342.382       17.753      866.372
07/06/2014  03:52:00      -92.416      -12.202       -2.558       32.012       21.066       22.429     1024.759      443.757      503.062        0.533        0.099       93.219       18.230        0.038      342.330       17.663      866.375
07/06/2014  03:53:00      -69.736      -56.349        2.913       41.020       26.813       24.293     1682.634      718.963      590.149        0.552        0.150       89.656       25.456        0.081      342.368       17.728      866.385
07/06/2014  03:54:00      -91.803      -53.952       -7.285       32.738       27.574       20.493     1071.775      760.328      419.969        0.682        0.113      106.483       19.018        0.032      342.360       17.715      866.397
07/06/2014  03:55:00      -62.564      -45.282       -1.635       28.152       26.661       18.056      792.551      710.812      326.005        0.390        0.091       77.232       12.855        0.028      342.403       17.789      866.395
07/06/2014  03:56:00      -67.469      -27.232       -6.800       23.030       34.575       20.472      530.396     1195.412      419.102        0.374        0.107       72.757       15.997        0.048      342.342       17.684      866.382
07/06/2014  03:57:00      -76.535      -21.726       -7.707       26.606       27.240       14.210      707.883      742.043      201.931        0.402        0.083       79.559       11.372        0.020      342.352       17.699      866.367
07/06/2014  03:58:00      -81.276      -31.961       -6.562       27.996       24.631       15.434      783.758      606.706      238.219        0.465        0.081       87.335       13.312        0.023      342.424       17.825      866.357
07/06/2014  03:59:00      -28.523       -4.497        1.872       42.526       24.245       16.471     1808.442      587.838      271.306        0.175        0.133       28.875       20.516        0.505      342.370       17.731      866.339
07/06/2014  04:00:00       -8.824       -1.786        8.697       36.609       24.232       16.438     1340.211      587.184      270.194        0.118        0.110        9.003       12.832        2.032      342.300       17.613      866.325
07/06/2014  04:01:00       -5.534        6.850        0.944       39.249       19.927       24.015     1540.495      397.072      576.739        0.130        0.126        8.806       24.476        7.726      342.240       17.510      866.322
07/06/2014  04:02:00      -10.289       -7.196       -1.617       30.453       12.021       11.210      927.368      144.510      125.664        0.068        0.060       12.556       13.972        1.238      342.352       17.704      866.321
07/06/2014  04:03:00      -57.146       -1.456      -10.977       23.351       25.580       18.037      545.250      654.328      325.334        0.246        0.076       57.165       12.111        0.045      342.498       17.949      866.300
07/06/2014  04:04:00      -77.576      -23.207      -17.490       15.489       17.126       10.109      239.922      293.310      102.185        0.375        0.032       80.973        3.202        0.002      342.463       17.891      866.285
07/06/2014  04:05:00      -89.225      -23.685      -16.204       24.758       20.830       15.366      612.951      433.904      236.103        0.503        0.064       92.315        8.138        0.008      342.440       17.851      866.277
07/06/2014  04:06:00     -122.914      -47.510      -13.120       36.986       30.005       24.491     1367.943      900.283      599.795        1.020        0.143      131.776       17.946        0.019      342.349       17.697      866.264
07/06/2014  04:07:00     -117.298      -48.618       -3.990       48.310       35.135       24.445     2333.861     1234.463      597.579        1.015        0.208      126.975       16.355        0.017      342.288       17.593      866.253
07/06/2014  04:08:00      -63.625      -45.659       -6.260       44.487       50.394       24.105     1979.060     2539.573      581.075        0.564        0.255       78.313       19.218        0.060      342.342       17.684      866.256
07/06/2014  04:09:00      -87.598      -12.149        3.603       63.176       38.950       27.290     3991.168     1517.118      744.741        0.704        0.313       88.437       29.447        0.111      342.298       17.609      866.268
07/06/2014  04:10:00      -85.380      -47.512       -7.117       31.716       44.389       20.318     1005.931     1970.376      412.808        0.649        0.169       97.710       16.252        0.028      342.298       17.610      866.265
07/06/2014  04:11:00     -115.694      -60.170       -3.990       39.179       42.394       23.225     1535.003     1797.245      539.382        1.045        0.194      130.405       17.799        0.019      342.289       17.595      866.266
07/06/2014  04:12:00     -110.878      -54.526      -10.233       46.335       34.129       21.120     2146.970     1164.793      446.034        0.956        0.188      123.560       19.325        0.024      342.292       17.598      866.265
07/06/2014  04:13:00     -135.050      -73.302       -5.251       27.312       18.579       23.908      745.935      345.185      571.584        1.265        0.083      153.661       19.871        0.017      342.299       17.611      866.271
07/06/2014  04:14:00     -166.130      -56.365       -6.010       23.704       24.320       16.385      561.866      591.456      268.479        1.612        0.071      175.431       12.941        0.005      342.338       17.678      866.269
07/06/2014  04:15:00     -130.307      -77.387        0.106       42.135       32.321       26.414     1775.399     1044.656      697.705        1.324        0.176      151.554       23.143        0.023      342.322       17.651      866.260
07/06/2014  04:16:00     -134.740      -66.547       -1.716       48.404       24.038       18.302     2342.902      577.807      334.946        1.292        0.163      150.278       15.855        0.011      342.377       17.744      866.267
07/06/2014  04:17:00     -136.096      -36.815      -11.082       35.390       25.935       18.595     1252.460      672.634      345.792        1.114        0.114      140.987       17.981        0.016      342.414       17.807      866.271
07/06/2014  04:18:00     -128.082      -32.322       -4.849       33.062       18.651       14.501     1093.063      347.851      210.286        0.956        0.083      132.097       16.311        0.015      342.315       17.638      866.277
07/06/2014  04:19:00     -152.547      -41.902      -13.737       24.535       19.809       14.479      601.984      392.409      209.645        1.321        0.060      158.197        8.124        0.003      342.271       17.564      866.291
07/06/2014  04:20:00     -142.877      -38.557       -4.351       35.148       28.710       17.773     1235.386      824.245      315.870        1.215        0.119      147.988       16.423        0.012      342.220       17.477      866.302
07/06/2014  04:21:00     -151.471      -53.739       -2.121       33.433       31.228       18.203     1117.745      975.174      331.343        1.413        0.121      160.721       14.871        0.009      342.284       17.587      866.301
07/06/2014  04:22:00     -119.879      -58.494       -2.557       42.400       36.387       26.740     1797.770     1323.985      715.022        1.082        0.192      133.388       24.696        0.034      342.262       17.548      866.300
07/06/2014  04:23:00      -92.744      -85.501       -9.122       44.021       26.247       25.063     1937.879      688.917      628.163        0.962        0.163      126.143       11.570        0.008      342.294       17.602      866.296
07/06/2014  04:24:00     -122.121      -85.454        2.714       77.253       46.914       30.872     5967.978     2200.931      953.086        1.567        0.456      149.050       30.860        0.043      342.273       17.567      866.295
07/06/2014  04:25:00     -135.115      -83.357       -3.550       46.684       27.503       23.457     2179.404      756.429      550.246        1.435        0.174      158.759       25.903        0.027      342.213       17.464      866.279
07/06/2014  04:26:00     -111.438      -68.428       -3.910       38.630       22.090       21.906     1492.252      487.953      479.888        0.979        0.123      130.770       17.236        0.017      342.218       17.474      866.275
07/06/2014  04:27:00      -79.506      -46.812        1.370       26.985       24.678       16.594      728.207      609.006      275.356        0.506        0.081       92.263        9.213        0.010      342.242       17.514      866.281
07/06/2014  04:28:00      -61.975      -23.472       -2.805       27.300       21.813       15.201      745.293      475.808      231.059        0.293        0.073       66.271       15.302        0.053      342.350       17.699      866.280
07/06/2014  04:29:00      -38.486      -41.153        2.109       25.037       21.421       15.847      626.869      458.838      251.140        0.226        0.067       56.345        9.040        0.026      342.359       17.712      866.271
07/06/2014  04:30:00      -28.356      -48.030        1.549       26.253       26.155       17.777      689.213      684.076      316.012        0.240        0.084       55.776       16.761        0.090      342.382       17.751      866.259
07/06/2014  04:31:00      -48.123      -47.308        9.392       34.306       24.520       22.856     1176.883      601.220      522.409        0.347        0.115       67.482       18.610        0.076      342.375       17.740      866.253
07/06/2014  04:32:00     -111.477     -117.486       -1.181       62.476       60.095       31.349     3903.278     3611.349      982.789        1.736        0.425      161.957       26.782        0.027      342.340       17.680      866.245
07/06/2014  04:33:00     -151.267     -130.198      -11.698       43.801       42.740       25.916     1918.485     1826.721      671.662        2.219        0.221      199.582       18.306        0.008      342.347       17.692      866.232
07/06/2014  04:34:00     -111.100      -76.072        0.651       53.939       43.786       27.183     2909.424     1917.250      738.926        1.185        0.278      134.648       20.383        0.023      342.287       17.590      866.238
07/06/2014  04:35:00      -89.062      -66.923        7.377       54.916       44.775       30.106     3015.820     2004.760      906.399        0.920        0.296      111.403       28.210        0.064      342.282       17.582      866.230
07/06/2014  04:36:00     -127.720      -76.135       -6.477       45.142       36.034       28.728     2037.758     1298.452      825.273        1.316        0.208      148.691       25.725        0.030      342.352       17.701      866.217
07/06/2014  04:37:00     -111.325      -71.780       -5.856       40.718       35.970       20.920     1657.976     1293.825      437.659        1.048        0.169      132.460       19.940        0.023      342.437       17.846      866.210
07/06/2014  04:38:00      -96.573      -48.087       -2.242       26.954       32.398       14.441      726.516     1049.631      208.539        0.681        0.099      107.883        9.660        0.008      342.366       17.725      866.216
07/06/2014  04:39:00      -89.810        0.171      -10.320       42.973       30.805       17.705     1846.639      948.942      313.458        0.564        0.155       89.810       16.401        0.033      342.097       17.267      866.210
07/06/2014  04:40:00     -146.522       10.549      -10.542       29.550       28.998       19.450      873.176      840.878      378.302        1.189        0.105      146.901       15.321        0.011      341.949       17.017      866.211
07/06/2014  04:41:00      -80.803       10.014       -7.007       32.096       28.474       18.134     1030.171      810.772      328.839        0.442        0.108       81.421       12.556        0.024      341.857       16.861      866.218
07/06/2014  04:42:00      -82.403       -2.790        0.404       29.899       31.135       17.382      893.965      969.381      302.127        0.448        0.108       82.450       10.642        0.017      341.929       16.983      866.217
07/06/2014  04:43:00      -80.670       -7.801       -2.891       41.061       24.720       15.006     1686.011      611.068      225.190        0.455        0.126       81.046       16.915        0.044      341.995       17.096      866.210
07/06/2014  04:44:00      -53.999      -16.752       -0.976       32.929       20.716       15.068     1084.336      429.168      227.051        0.247        0.087       56.537       16.768        0.088      342.020       17.139      866.216
07/06/2014  04:45:00      -38.696      -35.807       13.032       57.942       25.007       22.554     3357.301      625.353      508.666        0.372        0.225       52.721       29.514        0.313      341.966       17.046      866.229
07/06/2014  04:46:00      -33.505      -28.613        7.033       39.226       20.584       18.444     1538.656      423.704      340.194        0.215        0.115       44.060       18.235        0.171      341.952       17.022      866.229
07/06/2014  04:47:00      -74.203      -39.139        6.939       28.865       24.251       18.205      833.162      588.131      331.430        0.442        0.088       83.893       14.635        0.030      342.028       17.151      866.223
07/06/2014  04:48:00      -21.251      -29.487       11.378       42.972       23.635       18.591     1846.621      558.599      345.641        0.210        0.138       36.346       23.633        0.423      342.093       17.260      866.232
07/06/2014  04:49:00      -54.560      -26.532        1.039       22.840       17.857       13.462      521.646      318.865      181.219        0.235        0.051       60.669       10.350        0.029      341.956       17.029      866.230
07/06/2014  04:50:00      -50.451      -31.519       -2.427       20.014       22.131       13.899      400.559      489.785      193.170        0.231        0.054       59.487       15.190        0.065      341.996       17.097      866.220
07/06/2014  04:51:00      -42.952      -33.934       -1.145       20.980       18.579       13.209      440.157      345.197      174.481        0.198        0.048       54.739        9.760        0.032      341.999       17.101      866.216
07/06/2014  04:52:00      -73.128       13.046       -5.821       19.216       12.652       11.357      369.258      160.084      128.974        0.310        0.033       74.283        8.875        0.014      342.026       17.151      866.228
07/06/2014  04:53:00      -78.647        7.018       -3.819       18.962       19.375       10.850      359.573      375.387      117.720        0.355        0.043       78.959        8.964        0.013      342.073       17.226      866.257
07/06/2014  04:54:00      -71.193      -28.929       -7.021       16.623       16.107        8.783      276.329      259.422       77.147        0.328        0.031       76.846        7.579        0.010      342.089       17.256      866.287
07/06/2014  04:55:00        4.605      -22.146        9.629       32.298       14.061       14.448     1043.158      197.717      208.734        0.103        0.072       22.620        9.303        0.169      341.961       17.037      866.311
07/06/2014  04:56:00       48.492      -15.857       -3.627       28.121       22.995       17.621      790.771      528.780      310.483        0.212        0.082       51.019       13.237        0.067      341.542       16.327      866.314
07/06/2014  04:57:00       16.528      -12.307       -4.074       17.783       16.846       13.161      316.244      283.796      173.223        0.061        0.039       20.606       11.044        0.287      341.564       16.365      866.322
07/06/2014  04:58:00       31.111      -33.499      -15.814       30.706       25.053       21.563      942.841      627.629      464.944        0.219        0.102       45.717       21.954        0.231      341.502       16.260      866.315
07/06/2014  04:59:00       44.095      -38.723        2.829       16.996       16.052       14.394      288.855      257.675      207.191        0.210        0.038       58.684        6.320        0.012      341.543       16.328      866.301
07/06/2014  05:00:00       20.373      -38.157       -3.556       14.974       23.669       19.034      224.221      560.203      362.276        0.151        0.057       43.255        6.103        0.020      341.976       17.062      866.287
07/06/2014  05:01:00      -25.413       -3.566       -3.095       28.922       12.066       11.298      836.457      145.578      127.653        0.089        0.055       25.662       14.141        0.304      341.903       16.937      866.266
07/06/2014  05:02:00      -37.945      -21.867       -3.854       23.443       11.609       10.071      549.558      134.776      101.424        0.136        0.039       43.795        2.109        0.002      342.134       17.331      866.255
07/06/2014  05:03:00       -3.379      -18.120        3.923       23.240       18.577       14.368      540.082      345.114      206.430        0.072        0.055       18.433       11.691        0.402      342.081       17.242      866.261
07/06/2014  05:04:00      -14.325      -18.304        2.471       22.763       22.984       12.372      518.150      528.282      153.057        0.087        0.060       23.243       14.720        0.401      342.056       17.200      866.280
07/06/2014  05:05:00      -37.309      -40.255        1.283       26.677       18.971       16.475      711.677      359.886      271.437        0.218        0.067       54.886       11.024        0.040      342.132       17.328      866.301
07/06/2014  05:06:00      -70.779      -47.554       -0.698       28.923       28.391       17.270      836.537      806.060      298.241        0.461        0.097       85.270       16.862        0.039      341.988       17.084      866.308
07/06/2014  05:07:00      -89.823      -49.822       -0.502       30.153       27.367       19.377      909.205      748.946      375.460        0.629        0.102      102.715       16.221        0.025      341.974       17.058      866.321
07/06/2014  05:08:00      -86.116      -57.518       -0.216       38.500       32.497       25.121     1482.270     1056.048      631.051        0.695        0.158      103.558       20.440        0.039      341.905       16.942      866.345
07/06/2014  05:09:00      -45.800      -41.775        7.031       52.232       36.402       23.290     2728.173     1325.089      542.435        0.424        0.230       61.990       19.423        0.098      341.890       16.916      866.370
07/06/2014  05:10:00      -98.582      -82.184       -1.101       41.506       40.286       21.569     1722.739     1622.967      465.231        1.014        0.191      128.346       24.101        0.035      341.884       16.906      866.391
07/06/2014  05:11:00     -111.274      -82.097       -0.777       30.195       39.147       20.645      911.710     1532.477      426.199        1.100        0.144      138.281       10.555        0.006      341.902       16.935      866.404
07/06/2014  05:12:00      -86.999      -66.623       -2.104       32.502       30.917       18.553     1056.357      955.888      344.204        0.718        0.118      109.579       13.267        0.015      341.915       16.957      866.421
07/06/2014  05:13:00      -50.232      -25.118       10.837       40.442       28.806       20.787     1635.554      829.762      432.080        0.308        0.145       56.162       19.214        0.117      341.900       16.934      866.441
07/06/2014  05:14:00      -49.689      -29.881        5.124       39.608       22.206       18.844     1568.815      493.114      355.087        0.290        0.121       57.982       18.508        0.102      341.860       16.867      866.457
07/06/2014  05:15:00      -44.867      -40.501        6.276       46.265       34.803       20.362     2140.466     1211.228      414.607        0.373        0.188       60.443       20.991        0.121      341.797       16.760      866.466
07/06/2014  05:16:00      -14.887      -37.427        7.675       23.140       27.936       22.643      535.465      780.425      512.687        0.175        0.091       40.279       14.180        0.124      341.878       16.897      866.474
07/06/2014  05:17:00      -58.528      -44.263        6.898       47.974       32.876       26.232     2301.494     1080.816      688.135        0.475        0.204       73.381       21.470        0.086      341.806       16.776      866.480
07/06/2014  05:18:00     -101.503      -77.676       -6.018       55.291       32.484       27.670     3057.100     1055.228      765.632        1.062        0.244      127.814       30.274        0.056      341.754       16.685      866.485
07/06/2014  05:19:00     -117.994      -99.126       -8.709       33.638       28.522       22.644     1131.499      813.501      512.752        1.314        0.123      154.105       15.275        0.010      341.779       16.729      866.499
07/06/2014  05:20:00     -102.570      -82.637       -7.463       44.540       45.741       26.286     1983.850     2092.233      690.932        1.109        0.238      131.717       25.560        0.038      341.735       16.655      866.521
07/06/2014  05:21:00      -92.632      -79.380        5.568       44.124       35.623       25.461     1946.932     1268.989      648.279        0.939        0.193      121.991       23.322        0.037      341.753       16.685      866.545
07/06/2014  05:22:00      -78.724      -55.377        7.995       43.221       34.396       25.961     1868.060     1183.056      673.960        0.653        0.186       96.250       24.771        0.066      341.754       16.686      866.548
07/06/2014  05:23:00     -140.809      -80.088       -2.126       50.644       37.418       26.110     2564.828     1400.119      681.744        1.545        0.232      161.992       28.369        0.031      341.728       16.641      866.541
07/06/2014  05:24:00     -113.249      -82.788        6.466       48.977       39.075       31.255     2398.733     1526.849      976.848        1.231        0.245      140.282       22.677        0.026      341.707       16.605      866.532
07/06/2014  05:25:00     -149.279      -29.937       -9.767       33.934       23.694       21.835     1151.525      561.382      476.760        1.273        0.109      152.252       20.593        0.018      341.692       16.581      866.545
07/06/2014  05:26:00      -98.613      -49.963       -1.302       36.379       38.245       18.237     1323.424     1462.652      332.605        0.767        0.156      110.548       17.752        0.026      341.701       16.596      866.543
07/06/2014  05:27:00      -86.829      -13.071       -0.204       30.990       24.504       18.538      960.395      600.436      343.666        0.481        0.095       87.808       15.636        0.032      341.694       16.584      866.547
07/06/2014  05:28:00     -111.046      -17.646       -3.870       33.010       20.979       16.756     1089.690      440.104      280.772        0.723        0.091      112.440       17.094        0.023      341.604       16.432      866.549
07/06/2014  05:29:00     -111.484      -26.663       -2.691       34.930       24.942       20.527     1220.088      622.100      421.344        0.770        0.113      114.628       19.616        0.029      341.553       16.344      866.562
07/06/2014  05:30:00     -121.217      -42.901       -5.519       26.142       29.606       18.516      683.391      876.529      342.827        0.923        0.095      128.585       17.816        0.019      341.561       16.359      866.584
07/06/2014  05:31:00     -104.669      -22.633       -9.338       35.909       22.844       17.011     1289.452      521.868      289.362        0.683        0.105      107.088       18.390        0.029      341.619       16.458      866.607
07/06/2014  05:32:00     -101.327      -64.951       -0.950       39.315       18.765       15.472     1545.686      352.119      239.371        0.831        0.107      120.357       12.148        0.010      341.570       16.373      866.620
07/06/2014  05:33:00      -20.117      -44.050       -1.561       54.144       36.053       31.094     2931.625     1299.810      966.850        0.377        0.260       48.427       27.730        0.328      341.771       16.717      866.636
07/06/2014  05:34:00      -81.249      -26.228       -5.673       18.281       16.332       16.130      334.206      266.720      260.166        0.409        0.043       85.377        8.087        0.009      341.689       16.577      866.655
07/06/2014  05:35:00      -84.061      -43.726       -2.199       21.257       24.863       19.049      451.855      618.149      362.850        0.521        0.072       94.753       13.595        0.021      341.778       16.728      866.641
07/06/2014  05:36:00      -68.793      -46.231       -0.164       29.709       26.781       16.587      882.626      717.223      275.127        0.437        0.094       82.884       15.736        0.036      341.729       16.642      866.622
07/06/2014  05:37:00     -128.377      -46.883      -11.622       13.389       14.413       10.699      179.267      207.724      114.474        0.966        0.025      136.670        6.174        0.002      341.684       16.569      866.610
07/06/2014  05:38:00     -115.082      -57.977      -13.687       19.449       19.805       15.610      378.263      392.256      243.674        0.890        0.051      128.861        6.835        0.003      341.670       16.543      866.593
07/06/2014  05:39:00     -135.057      -35.037       -9.601       18.520       18.138       13.705      342.995      328.974      187.831        1.021        0.043      139.528       12.046        0.007      341.607       16.436      866.570
07/06/2014  05:40:00     -123.548      -25.178       -8.107       29.009       23.697       16.839      841.508      561.557      283.544        0.882        0.084      126.088       13.882        0.012      341.546       16.332      866.568
07/06/2014  05:41:00     -115.444      -52.755      -13.746       23.030       25.935       15.345      530.394      672.632      235.477        0.887        0.072      126.927       11.065        0.008      341.517       16.283      866.584
07/06/2014  05:42:00     -106.237      -39.256       -8.083       24.589       24.103       15.238      604.623      580.975      232.190        0.716        0.071      113.258       12.264        0.012      341.485       16.230      866.604
07/06/2014  05:43:00     -111.050      -68.268       -8.789       30.183       26.619       22.063      910.995      708.557      486.758        0.959        0.105      130.356        9.446        0.005      341.495       16.247      866.614
07/06/2014  05:44:00     -105.503      -61.011        4.380       47.785       29.802       25.158     2283.416      888.172      632.919        0.934        0.190      121.874       24.772        0.041      341.460       16.188      866.623
07/06/2014  05:45:00      -53.456      -49.716       -1.306       40.432       27.719       20.741     1634.774      768.338      430.193        0.408        0.142       73.001       22.338        0.094      341.458       16.183      866.640
07/06/2014  05:46:00     -100.555      -39.680        0.684       27.644       27.244       14.642      764.218      742.227      214.388        0.670        0.086      108.101       14.024        0.017      341.497       16.249      866.658
07/06/2014  05:47:00     -111.151      -55.049        0.094       40.028       22.938       17.405     1602.261      526.143      302.926        0.891        0.122      124.036       20.079        0.026      341.547       16.334      866.660
07/06/2014  05:48:00     -120.123      -41.903       -9.405       29.012       28.301       14.845      841.723      800.941      220.364        0.907        0.093      127.222       12.090        0.009      341.532       16.308      866.661
07/06/2014  05:49:00     -140.138      -43.374       -8.704       44.052       25.234       16.459     1940.538      636.732      270.898        1.222        0.142      146.697       20.332        0.019      341.579       16.388      866.663
07/06/2014  05:50:00      -89.388      -26.636       -0.398       41.888       27.232       16.495     1754.565      741.588      272.090        0.573        0.138       93.272       16.502        0.031      341.604       16.431      866.677
07/06/2014  05:51:00     -132.972      -32.680       -4.825       32.696       28.457       21.471     1068.997      809.797      461.011        1.056        0.117      136.929       18.718        0.019      341.589       16.406      866.682
07/06/2014  05:52:00     -105.104      -42.604       -0.746       32.130       33.576       16.058     1032.346     1127.335      257.873        0.764        0.121      113.410       17.437        0.024      341.641       16.496      866.701
07/06/2014  05:53:00      -79.995      -46.639        6.193       40.519       28.242       21.059     1641.768      797.603      443.492        0.575        0.144       92.598       19.318        0.044      341.732       16.648      866.706
07/06/2014  05:54:00      -35.673      -30.928        7.791       36.148       23.032       16.454     1306.655      530.494      270.728        0.220        0.105       47.214       19.463        0.170      341.778       16.727      866.716
07/06/2014  05:55:00      -76.453      -84.281       -3.391       40.101       31.438       21.797     1608.062      988.335      475.089        0.802        0.154      113.790       18.372        0.026      341.913       16.956      866.724
07/06/2014  05:56:00      -76.125      -64.483       -1.264       39.783       29.842       24.879     1582.695      890.522      618.976        0.652        0.155       99.765       23.473        0.055      341.939       17.000      866.719
07/06/2014  05:57:00      -69.937      -71.780        6.234       55.384       40.051       23.983     3067.425     1604.048      575.175        0.766        0.262      100.218       25.221        0.063      341.903       16.939      866.714
07/06/2014  05:58:00      -83.053      -58.881        2.398       50.910       43.118       21.706     2591.790     1859.172      471.130        0.765        0.246      101.807       21.939        0.046      341.765       16.704      866.703
07/06/2014  05:59:00     -117.415      -86.527        0.098       42.461       37.336       24.496     1802.955     1393.973      600.075        1.253        0.190      145.853       23.152        0.025      341.599       16.424      866.687
07/06/2014  06:00:00     -108.481      -86.483       -4.195       59.094       32.518       26.353     3492.071     1057.425      694.486        1.225        0.262      138.735       29.308        0.045      341.634       16.482      866.678
07/06/2014  06:01:00      -77.255      -68.663        1.633       53.540       48.581       29.411     2866.487     2360.134      865.019        0.839        0.305      103.358       26.581        0.066      341.562       16.361      866.677
07/06/2014  06:02:00     -114.741      -73.771       -2.371       50.393       34.442       19.098     2539.449     1186.235      364.728        1.135        0.205      136.410       18.796        0.019      341.696       16.589      866.689
07/06/2014  06:03:00      -96.018      -60.748        3.043       60.083       32.346       21.329     3610.005     1046.239      454.905        0.901        0.256      113.621       28.600        0.063      341.671       16.545      866.697
07/06/2014  06:04:00      -97.884      -99.396       -1.987       34.244       38.165       26.162     1172.682     1456.557      684.441        1.139        0.166      139.502       23.535        0.028      341.687       16.572      866.723
07/06/2014  06:05:00     -107.298      -62.289       -7.753       41.277       49.041       20.562     1703.759     2404.994      422.777        0.999        0.227      124.068       19.101        0.024      341.712       16.615      866.741
07/06/2014  06:06:00     -109.940      -85.337       -7.818       33.672       32.665       18.531     1133.822     1067.023      343.390        1.099        0.127      139.174       18.164        0.017      341.716       16.623      866.765
07/06/2014  06:07:00      -94.902      -61.464        1.864       27.633       29.091       17.930      763.563      846.314      321.486        0.736        0.097      113.067       16.141        0.020      341.615       16.452      866.782
07/06/2014  06:08:00      -77.900      -60.629        7.798       40.484       34.437       21.735     1638.964     1185.934      472.393        0.655        0.165       98.713       19.678        0.040      341.566       16.367      866.793
07/06/2014  06:09:00      -83.599      -76.870        3.324       48.795       39.514       27.705     2380.939     1561.332      767.569        0.881        0.235      113.568       30.846        0.074      341.530       16.307      866.793
07/06/2014  06:10:00      -77.852      -88.183       -5.192       35.792       32.033       25.877     1281.058     1026.142      669.638        0.842        0.149      117.632       23.477        0.040      341.525       16.297      866.784
07/06/2014  06:11:00      -86.264      -43.155       -2.719       32.767       26.979       18.120     1073.684      727.863      328.351        0.572        0.106       96.457       17.923        0.035      341.579       16.388      866.769
07/06/2014  06:12:00      -24.503      -39.378        4.305       35.790       28.210       15.099     1280.892      795.786      227.987        0.224        0.115       46.379       16.182        0.122      341.659       16.526      866.761
07/06/2014  06:13:00      -59.395      -77.576        4.297       70.445       56.941       27.341     4962.466     3242.334      747.530        0.926        0.448       97.703       35.143        0.129      341.610       16.443      866.741
07/06/2014  06:14:00     -106.437      -77.392      -10.646       42.571       43.310       20.290     1812.304     1875.787      411.697        1.077        0.205      131.600       12.120        0.008      341.589       16.407      866.718
07/06/2014  06:15:00     -104.764      -67.257       -4.154       43.011       34.011       25.861     1849.905     1156.732      668.781        0.960        0.184      124.495       25.976        0.044      341.702       16.598      866.692
07/06/2014  06:16:00     -112.236      -46.926       -2.279       36.825       30.937       19.070     1356.100      957.110      363.657        0.874        0.134      121.651       17.850        0.022      341.710       16.611      866.672
07/06/2014  06:17:00     -100.225      -41.231        2.421       37.085       35.393       19.632     1375.313     1252.674      385.432        0.738        0.151      108.375       19.726        0.033      341.620       16.459      866.654
07/06/2014  06:18:00     -135.670      -55.088       -2.490       40.015       28.277       24.684     1601.163      799.564      609.298        1.223        0.151      146.428       26.091        0.032      341.693       16.583      866.641
07/06/2014  06:19:00     -121.118      -62.396       -3.575       33.908       26.394       17.462     1149.767      696.660      304.907        1.036        0.108      136.245       15.570        0.013      341.720       16.628      866.635
07/06/2014  06:20:00      -85.186      -49.766        1.800       37.582       23.878       15.795     1412.427      570.147      249.489        0.598        0.112       98.657       15.261        0.024      341.702       16.599      866.633
07/06/2014  06:21:00     -113.032      -60.953        1.626       42.738       33.932       18.885     1826.537     1151.353      356.643        0.991        0.167      128.419       13.614        0.011      341.674       16.552      866.632
07/06/2014  06:22:00     -134.847      -36.218        0.128       36.801       32.720       19.596     1354.337     1070.603      384.004        1.115        0.140      139.626       19.268        0.019      341.672       16.548      866.626
07/06/2014  06:23:00      -85.433      -23.650        9.185       39.747       34.695       21.702     1579.815     1203.745      470.994        0.560        0.163       88.646       21.472        0.059      341.673       16.548      866.623
07/06/2014  06:24:00      -75.256      -68.869        2.448       47.861       32.359       22.655     2290.636     1047.125      513.268        0.713        0.193      102.012       12.277        0.014      341.723       16.636      866.611
07/06/2014  06:25:00     -147.467      -86.681       -6.064       64.430       52.972       32.310     4151.197     2806.005     1043.939        1.865        0.400      171.056       31.115        0.033      341.722       16.631      866.603
07/06/2014  06:26:00     -168.966     -119.228       -5.710       51.380       40.714       29.438     2639.949     1657.598      866.569        2.398        0.258      206.797       22.247        0.012      341.651       16.509      866.594
07/06/2014  06:27:00     -179.580     -113.266       -4.330       61.607       42.766       35.301     3795.474     1828.970     1246.134        2.598        0.344      212.317       37.743        0.032      341.695       16.582      866.600
07/06/2014  06:28:00     -120.794     -103.318      -10.875       57.739       38.979       26.525     3333.769     1519.357      703.598        1.547        0.278      158.952       23.781        0.022      341.681       16.562      866.605
07/06/2014  06:29:00      -99.109      -84.342        4.844       51.087       38.339       27.800     2609.899     1469.909      772.844        1.091        0.243      130.139       27.183        0.044      341.697       16.590      866.604
07/06/2014  06:30:00     -126.533      -62.121        0.235       55.257       27.034       28.197     3053.374      730.816      795.065        1.222        0.229      140.959       30.914        0.048      341.722       16.631      866.597
07/06/2014  06:31:00     -121.911      -70.158       -3.126       48.619       30.831       24.320     2363.841      950.534      591.485        1.185        0.195      140.658       24.339        0.030      341.801       16.766      866.589
07/06/2014  06:32:00     -119.554      -70.689       -3.811       40.598       40.372       24.843     1648.233     1629.901      617.170        1.160        0.195      138.889       23.551        0.029      341.807       16.776      866.586
07/06/2014  06:33:00     -159.279      -67.841      -13.505       54.036       31.032       26.885     2919.881      963.001      722.818        1.738        0.230      173.125       26.954        0.024      341.869       16.881      866.583
07/06/2014  06:34:00     -145.797      -55.170       -0.286       49.548       41.865       26.746     2454.989     1752.666      715.337        1.461        0.246      155.886       25.476        0.027      341.918       16.965      866.568
07/06/2014  06:35:00      -79.825      -36.529       -0.686       45.042       31.105       18.863     2028.750      967.511      355.815        0.553        0.168       87.787       18.784        0.046      341.979       17.066      866.566
07/06/2014  06:36:00      -56.788      -24.124        6.320       40.311       18.907       20.644     1624.968      357.458      426.161        0.313        0.120       61.700       22.732        0.136      342.101       17.275      866.576
07/06/2014  06:37:00      -28.802      -29.742        2.876       25.650       31.808       16.652      657.908     1011.747      277.297        0.183        0.097       41.402       10.698        0.067      342.158       17.371      866.574
07/06/2014  06:38:00      -85.164      -16.275       -6.131       35.953       22.531       21.213     1292.586      507.663      449.999        0.490        0.113       86.705       19.529        0.051      342.106       17.284      866.591
07/06/2014  06:39:00      -86.715      -15.294       -8.859       24.065       19.381       13.676      579.106      375.617      187.035        0.449        0.057       88.053        8.352        0.009      342.112       17.292      866.614
07/06/2014  06:40:00      -34.099      -22.746        1.276       38.963       27.533       17.688     1518.085      758.040      312.856        0.213        0.129       40.990        8.932        0.047      342.239       17.508      866.618
07/06/2014  06:41:00       20.950      -48.714        0.554       24.362       17.622       12.266      593.493      310.518      150.461        0.193        0.053       53.028        8.174        0.024      341.872       16.886      866.625
07/06/2014  06:42:00       12.641      -25.268       17.664       19.038       23.025       19.078      362.441      530.138      363.956        0.118        0.063       28.253       18.366        0.423      342.148       17.355      866.642
07/06/2014  06:43:00       -3.625      -20.000       17.546       33.194       19.519       16.609     1101.839      380.994      275.848        0.124        0.088       20.326       18.209        0.802      342.251       17.530      866.648
07/06/2014  06:44:00      -30.087      -65.697       -2.306       17.262       13.958       14.011      297.960      194.825      196.322        0.296        0.034       72.258        8.802        0.015      342.268       17.558      866.653
07/06/2014  06:45:00      -43.432      -46.139       -4.840       27.772       21.891       12.096      771.302      479.230      146.321        0.272        0.070       63.365        6.233        0.010      342.311       17.631      866.653
07/06/2014  06:46:00      -38.859      -44.014        6.128       29.966       31.144       19.833      897.937      969.922      393.341        0.287        0.113       58.714       21.447        0.133      342.334       17.669      866.634
07/06/2014  06:47:00      -41.960      -67.235        7.819       37.264       41.911       22.661     1388.582     1756.544      513.511        0.500        0.183       79.254       25.942        0.107      342.293       17.601      866.621
07/06/2014  06:48:00      -46.032      -55.861       15.865       36.835       28.789       27.066     1356.793      828.784      732.571        0.420        0.146       72.383       21.687        0.090      342.350       17.698      866.599
07/06/2014  06:49:00      -76.834      -90.581        1.428       41.475       34.730       25.223     1720.213     1206.143      636.185        0.884        0.178      118.779       18.119        0.023      342.344       17.690      866.599
07/06/2014  06:50:00      -77.654      -57.687        6.911       44.241       34.377       23.217     1957.291     1181.751      539.046        0.654        0.184       96.737       21.703        0.050      342.354       17.705      866.596
07/06/2014  06:51:00      -50.604      -54.274        7.510       44.267       31.149       19.866     1959.541      970.288      394.645        0.444        0.166       74.206       23.386        0.099      342.509       17.969      866.615
07/06/2014  06:52:00      -54.284      -57.410        5.688       38.851       34.259       23.889     1509.371     1173.645      570.704        0.476        0.163       79.010       21.367        0.073      342.418       17.812      866.624
07/06/2014  06:53:00      -69.893      -75.490      -12.486       34.910       25.730       18.390     1218.683      662.052      338.200        0.648        0.111      102.878        1.869        0.000      342.473       17.907      866.640
07/06/2014  06:54:00      -59.785      -26.761        8.068       46.499       31.323       24.296     2162.183      981.110      590.319        0.404        0.187       65.501       23.611        0.130      342.561       18.056      866.654
07/06/2014  06:55:00      -39.119      -49.305        9.981       39.105       50.825       24.260     1529.196     2583.218      588.542        0.438        0.235       62.938       25.115        0.159      342.468       17.899      866.654
07/06/2014  06:56:00      -98.131      -63.646       -2.993       40.602       35.478       22.031     1648.553     1258.689      485.387        0.854        0.170      116.964       20.314        0.030      342.398       17.780      866.650
07/06/2014  06:57:00     -109.910      -54.808       -8.331       29.784       29.738       20.324      887.077      884.346      413.054        0.867        0.109      122.817       14.632        0.014      342.432       17.838      866.644
07/06/2014  06:58:00      -76.074      -44.669        2.813       35.695       28.621       21.599     1274.149      819.172      466.508        0.517        0.128       88.219       14.285        0.026      342.527       18.000      866.642
07/06/2014  06:59:00      -82.598      -94.666       -2.476       36.553       40.297       18.012     1336.150     1623.888      324.441        0.954        0.164      125.635       14.755        0.014      342.544       18.028      866.645
07/06/2014  07:00:00      -97.966      -41.562       -4.977       33.911       37.501       21.439     1149.967     1406.340      459.610        0.718        0.151      106.418       18.051        0.029      342.632       18.177      866.657
07/06/2014  07:01:00      -35.582      -43.257        5.344       35.911       31.891       18.475     1289.608     1017.008      341.327        0.291        0.132       56.011       22.217        0.157      342.814       18.488      866.663
07/06/2014  07:02:00      -47.214      -66.279       -0.192       31.919       32.769       17.662     1018.797     1073.782      311.948        0.451        0.120       81.376       16.195        0.040      342.715       18.318      866.679
07/06/2014  07:03:00      -59.018     -105.760       -4.108       33.299       22.607       14.639     1108.825      511.056      214.308        0.826        0.092      121.112       12.703        0.011      342.699       18.290      866.683
07/06/2014  07:04:00      -42.299     -101.980        0.616       24.263       29.826       16.488      588.694      889.576      271.851        0.697        0.088      110.404       17.303        0.025      342.662       18.227      866.683
07/06/2014  07:05:00       -6.238      -27.427        4.252       18.498       21.170       19.080      342.189      448.158      364.038        0.098        0.058       28.127       15.742        0.313      342.819       18.497      866.684
07/06/2014  07:06:00       -4.243      -35.327        8.766       26.286       24.352       19.220      690.934      593.020      369.411        0.150        0.083       35.581       15.933        0.201      342.779       18.427      866.673
07/06/2014  07:07:00       -1.296      -33.627        2.966       28.618       28.047       20.051      818.982      786.618      402.038        0.157        0.100       33.652       12.517        0.138      342.754       18.386      866.663
07/06/2014  07:08:00      -40.727      -54.327       -0.668       30.704       33.986       19.281      942.751     1155.056      371.775        0.354        0.123       67.898       19.713        0.084      342.817       18.491      866.653
07/06/2014  07:09:00      -61.796      -73.669        1.403       32.212       36.239       17.335     1037.609     1313.246      300.489        0.595        0.133       96.156       16.494        0.029      342.771       18.413      866.649
07/06/2014  07:10:00      -22.333      -75.339        8.392       29.330       36.053       21.758      860.251     1299.789      473.423        0.444        0.132       78.580       23.061        0.086      342.874       18.589      866.648
07/06/2014  07:11:00       -6.520       -9.789       17.540       15.009       26.525       17.703      225.283      703.550      313.411        0.084        0.062       11.761       17.989        2.339      343.210       19.161      866.661
07/06/2014  07:12:00       -2.007        8.584       25.612       15.744       19.394       18.681      247.888      376.116      348.962        0.085        0.049        8.816       16.485        3.497      343.393       19.473      866.671
07/06/2014  07:13:00        3.828      -41.396       13.903       10.665       16.830       13.409      113.745      283.248      179.811        0.125        0.029       41.573        5.070        0.015      343.045       18.881      866.712
07/06/2014  07:14:00       16.633      -29.749        3.158       26.216       17.610       14.336      687.269      310.106      205.523        0.119        0.060       34.083       14.585        0.183      342.664       18.232      866.737
07/06/2014  07:15:00       40.970       -6.507       13.959       28.258       23.940       24.891      798.505      573.106      619.571        0.195        0.100       41.483       15.030        0.131      342.561       18.057      866.769
07/06/2014  07:16:00       45.520      -11.681        4.620       24.232       23.211       25.615      587.202      538.766      656.139        0.201        0.089       46.995        6.149        0.017      342.667       18.237      866.787
07/06/2014  07:17:00       11.969        8.525       35.916       20.429       18.611       15.199      417.362      346.376      230.999        0.125        0.050       14.694       10.909        0.551      342.965       18.743      866.803
07/06/2014  07:18:00       23.582       24.603       45.030       41.186       36.105       23.938     1696.249     1303.604      573.027        0.338        0.179       34.080       26.293        0.595      342.740       18.362      866.808
07/06/2014  07:19:00       -3.116       22.770       37.752       21.173       25.577       19.234      448.315      654.166      369.949        0.171        0.074       22.982       14.193        0.381      343.055       18.897      866.815
07/06/2014  07:20:00        9.540       -7.336       26.545       21.580       23.197       21.970      465.706      538.105      482.698        0.117        0.074       12.034       12.641        1.103      343.327       19.360      866.822
07/06/2014  07:21:00       28.166       -7.915       27.650       30.663       17.315       20.459      940.208      299.805      418.568        0.164        0.083       29.257        6.267        0.046      343.306       19.325      866.828
07/06/2014  07:22:00       28.328       11.372       28.259       25.872       17.741       20.740      669.370      314.748      430.165        0.157        0.071       30.525       18.099        0.352      342.991       18.789      866.840
07/06/2014  07:23:00       40.372       -3.379       26.769       30.982       21.316       22.788      959.907      454.379      519.304        0.215        0.097       40.513       18.360        0.205      343.007       18.817      866.843
07/06/2014  07:24:00       55.354      -21.286       13.197       31.031       22.728       24.557      962.910      516.566      603.050        0.289        0.104       59.306       18.350        0.096      342.848       18.545      866.848
07/06/2014  07:25:00       86.803      -27.455        1.138       18.664       20.999       18.809      348.336      440.951      353.781        0.472        0.057       91.041        9.308        0.010      342.648       18.204      866.866
07/06/2014  07:26:00       44.484        2.400       29.606       36.271       29.090       27.391     1315.578      846.199      750.263        0.289        0.146       44.548       23.978        0.290      342.990       18.787      866.883
07/06/2014  07:27:00       31.950        8.097       33.353       34.927       29.223       28.670     1219.924      853.984      821.955        0.255        0.145       32.960       27.878        0.715      343.153       19.065      866.907
07/06/2014  07:28:00       63.200        3.340       33.261       50.872       33.632       37.828     2588.003     1131.107     1430.967        0.513        0.258       63.289       36.109        0.326      342.628       18.169      866.920
07/06/2014  07:29:00       24.896       11.562       45.396       35.478       33.115       22.074     1258.724     1096.627      487.247        0.283        0.142       27.450       22.730        0.686      343.164       19.082      866.924
07/06/2014  07:30:00        2.643      -33.973       11.267       30.829       44.019       21.632      950.452     1937.642      467.965        0.232        0.168       34.076       19.590        0.330      343.414       19.510      866.924
07/06/2014  07:31:00      -24.888      -16.558        5.116       10.822       10.547       11.035      117.106      111.239      121.775        0.063        0.018       29.893        4.905        0.027      343.412       19.506      866.915
07/06/2014  07:32:00      -11.121        1.193       33.025       16.535       28.882       18.436      273.416      834.180      339.900        0.133        0.072       11.185       10.021        0.803      343.924       20.380      866.901
07/06/2014  07:33:00      -16.492       -6.636       21.277       17.793       20.316       17.496      316.592      412.734      306.096        0.090        0.052       17.778       14.398        0.656      343.930       20.389      866.885
07/06/2014  07:34:00      -12.648       14.922       31.647       16.834       21.257       20.177      283.394      451.857      407.108        0.126        0.057       19.561        6.917        0.125      343.840       20.238      866.877
07/06/2014  07:35:00      -12.492        6.897       24.477       23.176       10.834       12.931      537.113      117.384      167.218        0.081        0.041       14.269       12.664        0.788      343.996       20.502      866.859
07/06/2014  07:36:00        4.498       -8.788       20.001       26.478       18.705       18.541      701.091      349.890      343.774        0.095        0.070        9.872       13.701        1.926      343.538       19.721      866.853
07/06/2014  07:37:00      -18.046       -6.156       14.196       14.105       10.981       10.799      198.956      120.589      116.620        0.050        0.022       19.067        9.139        0.230      343.767       20.111      866.851
07/06/2014  07:38:00      -30.809       -9.626        6.057       16.306       14.353       11.526      265.880      206.004      132.843        0.084        0.030       32.278       12.032        0.139      343.596       19.820      866.860
07/06/2014  07:39:00       13.159      -11.297        6.577       22.668       26.886       24.740      513.851      722.858      612.069        0.110        0.092       17.343       17.963        1.073      343.555       19.751      866.869
07/06/2014  07:40:00        4.757        2.107       24.786       26.299       13.932       19.368      691.622      194.110      375.116        0.095        0.063        5.202        5.803        1.244      343.924       20.381      866.874
07/06/2014  07:41:00      -31.817      -28.849       -0.859       30.854       24.355       21.582      951.970      593.147      465.791        0.193        0.101       42.949       21.703        0.255      343.645       19.903      866.895
07/06/2014  07:42:00       -8.537       -5.612       10.076       30.457       25.920       20.957      927.645      671.842      439.181        0.112        0.102       10.216       17.254        2.852      343.882       20.307      866.893
07/06/2014  07:43:00      -17.339      -25.019       -3.516       22.108       30.858       16.978      488.767      952.192      288.248        0.133        0.086       30.440       16.329        0.288      343.671       19.946      866.906
07/06/2014  07:44:00       14.013      -13.189        1.721       47.830       35.173       35.994     2287.686     1237.169     1295.562        0.260        0.241       19.244       32.588        2.868      343.709       20.013      866.915
07/06/2014  07:45:00      -27.355      -22.774       15.217       46.129       29.802       20.686     2127.912      888.158      427.920        0.247        0.172       35.594       22.602        0.403      343.978       20.470      866.924
07/06/2014  07:46:00      -71.221      -69.480       -6.570       68.881       30.721       24.698     4744.577      943.756      610.013        0.812        0.315       99.499       26.716        0.072      343.648       19.907      866.926
07/06/2014  07:47:00      -47.473      -49.425        4.247       36.643       31.549       21.948     1342.721      995.349      481.736        0.377        0.141       68.531       14.294        0.044      343.765       20.108      866.914
07/06/2014  07:48:00      -85.138      -56.661       -7.924       34.499       19.814       17.111     1190.199      392.580      292.801        0.620        0.094      102.269       18.307        0.032      343.709       20.011      866.896
07/06/2014  07:49:00      -60.724      -74.731        0.388       30.884       24.244       20.095      953.816      587.762      403.794        0.561        0.097       96.292       14.057        0.021      343.690       19.979      866.881
07/06/2014  07:50:00      -58.537      -60.051        0.166       37.035       25.665       21.852     1371.603      658.690      477.497        0.477        0.125       83.861       10.315        0.015      343.665       19.936      866.869
07/06/2014  07:51:00      -45.068      -44.130        4.689       40.742       22.813       17.829     1659.903      520.419      317.874        0.325        0.125       63.076       22.231        0.124      343.876       20.295      866.867
07/06/2014  07:52:00      -27.228      -78.112       -1.152       32.362       28.486       15.309     1047.329      811.439      234.377        0.447        0.105       82.722       17.606        0.045      343.677       19.957      866.864
07/06/2014  07:53:00      -23.306      -52.901        4.819       19.338       17.516       15.681      373.946      306.820      245.902        0.215        0.046       57.808       10.429        0.033      343.751       20.083      866.861
07/06/2014  07:54:00      -54.705      -50.011       -3.931       24.705       29.653       13.335      610.333      879.314      177.812        0.359        0.083       74.120       13.368        0.033      343.797       20.162      866.852
07/06/2014  07:55:00      -24.006      -90.321        2.928       19.305       22.335       11.098      372.680      498.868      123.160        0.487        0.050       93.456        8.408        0.008      343.771       20.117      866.842
07/06/2014  07:56:00      -78.048     -108.181       -8.299       36.862       28.779       20.031     1358.796      828.232      401.233        1.023        0.129      133.396       21.401        0.026      343.757       20.094      866.852
07/06/2014  07:57:00      -62.842      -85.450        2.764       35.888       31.864       21.102     1287.924     1015.292      445.305        0.700        0.137      106.070       21.421        0.041      343.786       20.142      866.860
07/06/2014  07:58:00      -40.725      -31.195        0.236       31.795       22.599       16.312     1010.894      510.695      266.076        0.221        0.089       51.299        7.826        0.023      343.953       20.429      866.864
07/06/2014  07:59:00      -55.018      -43.059        0.523       29.738       18.385       19.368      884.322      338.002      375.101        0.324        0.080       69.865       19.470        0.078      343.851       20.257      866.880
07/06/2014  08:00:00      -48.002      -22.511       12.373       67.880       28.120       28.810     4607.741      790.720      830.021        0.460        0.311       53.018       33.980        0.411      344.291       21.007      866.893
07/06/2014  08:01:00      -27.651      -55.452        4.459       26.158       29.446       15.996      684.231      867.062      255.857        0.283        0.090       61.964       12.862        0.043      343.971       20.460      866.910
07/06/2014  08:02:00      -39.377      -17.540       14.898       29.549       26.508       23.995      873.146      702.662      575.737        0.212        0.108       43.107       23.989        0.310      344.481       21.332      866.923
07/06/2014  08:03:00      -40.464      -15.126        9.427       40.134       21.214       19.397     1610.746      450.042      376.227        0.220        0.122       43.199       20.877        0.234      344.310       21.038      866.915
07/06/2014  08:04:00      -16.395       -7.811       11.997       39.738       21.045       19.072     1579.097      442.872      363.750        0.143        0.119       18.160       12.339        0.462      344.658       21.634      866.904
07/06/2014  08:05:00      -13.966        4.433       -0.408       49.767       29.076       22.813     2476.755      845.387      520.447        0.203        0.192       14.653       22.875        2.437      344.022       20.547      866.893
07/06/2014  08:06:00      -53.405      -18.824       11.850       45.625       30.254       19.454     2081.633      915.281      378.446        0.336        0.169       56.625        7.909        0.020      344.265       20.962      866.870
07/06/2014  08:07:00      -55.120      -73.294       -3.473       40.951       45.805       21.756     1676.987     2098.071      473.324        0.633        0.212       91.707       13.747        0.022      344.006       20.518      866.851
07/06/2014  08:08:00      -77.312      -55.098      -13.594       22.136       32.722       14.964      490.007     1070.716      223.921        0.549        0.089       94.936       11.328        0.014      344.006       20.519      866.846
07/06/2014  08:09:00      -43.542      -26.307       13.881       36.237       32.529       16.636     1313.102     1058.124      276.767        0.271        0.132       50.873       19.319        0.144      344.211       20.870      866.844
07/06/2014  08:10:00      -66.068      -82.317       -7.364       35.376       39.308       22.580     1251.468     1545.090      509.857        0.725        0.165      105.551       12.357        0.014      344.122       20.716      866.846
07/06/2014  08:11:00      -32.882     -107.866        2.019       22.497       27.837       15.142      506.133      774.903      229.275        0.712        0.076      112.767        4.739        0.002      344.042       20.579      866.854
07/06/2014  08:12:00      -38.069      -14.666        1.105       32.026       29.687       34.582     1025.680      881.347     1195.947        0.238        0.155       40.796       29.414        0.520      344.416       21.220      866.851
07/06/2014  08:13:00      -13.966       -2.170       18.446       34.848       24.039       27.100     1214.384      577.881      734.406        0.153        0.126       14.133       19.835        1.970      344.491       21.348      866.854
07/06/2014  08:14:00      -18.113       -6.205       10.544       18.563       27.507       27.293      344.583      756.618      744.906        0.116        0.092       19.147       20.104        1.102      344.929       22.100      866.854
07/06/2014  08:15:00       13.547        8.414       27.624       30.985       25.812       28.371      960.041      666.272      804.905        0.172        0.122       15.947        6.695        0.176      344.520       21.398      866.850
07/06/2014  08:16:00       59.006        5.918       18.070       48.981       30.978       38.764     2399.161      959.640     1502.641        0.435        0.243       59.302       30.065        0.257      344.199       20.850      866.841
07/06/2014  08:17:00       52.154        7.884       26.626       54.286       32.023       32.497     2946.924     1025.450     1056.054        0.426        0.251       52.746       35.030        0.441      344.175       20.809      866.840
07/06/2014  08:18:00       -3.580      -15.561       23.006       25.627       30.355       22.264      656.733      921.447      495.675        0.143        0.104       15.967       18.674        1.368      344.535       21.423      866.843
07/06/2014  08:19:00      -22.383        8.759       18.745       36.561       29.585       21.872     1336.707      875.247      478.369        0.181        0.135       24.036       13.953        0.337      344.236       20.912      866.842
07/06/2014  08:20:00      -14.927      -10.774       -3.074       20.343       19.522       15.472      413.848      381.111      239.370        0.069        0.052       18.409        9.651        0.275      344.618       21.566      866.850
07/06/2014  08:21:00      -15.291      -39.378       -6.910       35.180       23.480       28.435     1237.645      551.333      808.541        0.221        0.130       42.243       20.524        0.236      344.419       21.224      866.855
07/06/2014  08:22:00      -19.226        4.773       20.704       11.649       16.826       15.867      135.692      283.117      251.775        0.075        0.034       19.809       12.450        0.395      345.055       22.315      866.853
07/06/2014  08:23:00       -7.325        4.611       10.221       15.340       12.774       15.111      235.317      163.175      228.347        0.040        0.031        8.655        8.952        1.070      344.878       22.009      866.861
07/06/2014  08:24:00       25.849       -5.573        8.879       27.927       34.192       29.834      779.929     1169.078      890.047        0.181        0.142       26.443       17.787        0.452      344.353       21.112      866.862
07/06/2014  08:25:00       44.594       16.304       34.502       36.385       25.158       27.939     1323.899      632.903      780.614        0.309        0.137       47.480       21.255        0.200      344.322       21.058      866.862
07/06/2014  08:26:00        8.736        8.979       39.490       33.418       45.773       31.400     1116.761     2095.146      985.959        0.296        0.210       12.527       31.854        6.466      344.812       21.897      866.874
07/06/2014  08:27:00        8.290       25.199       48.689       27.299       36.358       24.579      745.257     1321.936      604.114        0.287        0.134       26.528       20.049        0.571      344.957       22.144      866.892
07/06/2014  08:28:00       -6.978       11.711       51.833       34.202       34.448       28.218     1169.773     1186.686      796.266        0.301        0.158       13.632       24.605        3.258      345.259       22.664      866.902
07/06/2014  08:29:00       31.462      -42.425       19.386       26.050       44.574       27.648      678.604     1986.842      764.407        0.330        0.171       52.818       26.721        0.256      344.976       22.177      866.917
07/06/2014  08:30:00      -21.695      -16.107       14.609       23.187       45.367       26.258      537.644     2058.183      689.479        0.211        0.164       27.020       27.662        1.048      345.014       22.243      866.922
07/06/2014  08:31:00        3.253      -12.643       32.710       16.334       43.494       20.786      266.796     1891.730      432.047        0.192        0.130       13.055       12.952        0.984      345.456       23.001      866.935
07/06/2014  08:32:00        9.455        5.340       34.384       23.860       47.587       24.125      569.308     2264.566      581.995        0.236        0.171       10.859       21.958        4.089      345.240       22.630      866.941
07/06/2014  08:33:00       70.730        7.252       27.235       31.171       26.118       32.015      971.642      682.164     1024.937        0.424        0.134       71.101       23.547        0.110      344.406       21.202      866.947
07/06/2014  08:34:00       60.892        0.264       20.855       22.033       11.583       23.450      485.449      134.156      549.917        0.266        0.058       60.893        5.982        0.010      344.451       21.280      866.955
07/06/2014  08:35:00       30.848        3.534      -10.513       20.002       22.544       26.150      400.095      508.224      683.800        0.133        0.080       31.050       13.095        0.178      344.322       21.059      866.960
07/06/2014  08:36:00       42.440      -22.701       13.983       29.054       25.696       32.366      844.144      660.299     1047.543        0.253        0.128       48.130       20.002        0.173      344.515       21.389      866.968
07/06/2014  08:37:00       41.245      -17.695        3.287       26.401       20.524       26.548      697.000      421.228      704.815        0.192        0.091       44.881       11.833        0.070      344.408       21.206      866.970
07/06/2014  08:38:00       49.091       60.599       40.585       41.869       36.586       34.231     1753.013     1338.504     1171.740        0.600        0.213       77.988       25.912        0.110      344.656       21.630      866.973
07/06/2014  08:39:00       49.354       47.275       26.841       33.098       27.867       25.110     1095.457      776.551      630.507        0.395        0.125       68.343       11.498        0.028      344.935       22.106      866.978
07/06/2014  08:40:00       79.367       78.398       52.137       29.322       25.458       37.029      859.794      648.091     1371.164        0.902        0.144      111.558       20.463        0.034      344.754       21.797      866.984
07/06/2014  08:41:00       65.939        7.391        9.449       59.920       29.222       28.002     3590.438      853.910      784.087        0.486        0.261       66.351       26.275        0.157      345.092       22.377      866.990
07/06/2014  08:42:00       19.312       43.702       74.983       38.478       43.523       20.344     1480.557     1894.239      413.866        0.585        0.189       47.779       22.044        0.213      345.569       23.194      866.988
07/06/2014  08:43:00       13.391       32.251       53.067       32.708       30.249       24.221     1069.835      914.980      586.669        0.330        0.129       34.921       19.546        0.313      345.887       23.740      866.980
07/06/2014  08:44:00       -5.714       29.542       54.035       17.360       24.442       20.268      301.353      597.424      410.803        0.257        0.065       30.090       16.042        0.284      345.799       23.588      866.967
07/06/2014  08:45:00       -3.240       52.756        1.007       32.916       40.079       24.264     1083.470     1606.324      588.749        0.304        0.164       52.855       11.993        0.051      345.571       23.196      866.949
07/06/2014  08:46:00       24.469       67.355       11.011       44.587       40.088       35.818     1988.039     1607.075     1282.944        0.507        0.244       71.662       24.272        0.115      345.780       23.557      866.932
07/06/2014  08:47:00       29.700       25.425       21.323       36.009       33.090       27.961     1296.637     1094.950      781.823        0.258        0.159       39.097       14.296        0.134      345.942       23.834      866.910
07/06/2014  08:48:00       85.129       63.656       22.152       26.664       23.893       23.974      710.990      570.861      574.751        0.682        0.093      106.297       13.691        0.017      345.324       22.774      866.899
07/06/2014  08:49:00       62.784       65.723       -7.597       30.909       26.541       23.641      955.365      704.414      558.896        0.527        0.111       90.893       17.136        0.036      345.126       22.436      866.892
07/06/2014  08:50:00       70.343       30.173       -3.352       25.670       27.230       23.382      658.936      741.460      546.701        0.391        0.097       76.541       18.257        0.057      345.177       22.522      866.872
07/06/2014  08:51:00       12.957       18.326       -4.195       29.736       25.767       18.943      884.209      663.923      358.838        0.121        0.095       22.444       10.086        0.202      345.339       22.799      866.866
07/06/2014  08:52:00       -8.328       28.906       14.232       16.798       32.485       18.929      282.184     1055.307      358.311        0.140        0.085       30.082       15.460        0.264      345.994       23.924      866.851
07/06/2014  08:53:00        0.505        2.463       33.304       15.392       17.889       12.859      236.915      320.024      165.347        0.092        0.036        2.514        6.294        6.267      346.666       25.077      866.839
07/06/2014  08:54:00       21.839       25.511       21.261       28.306       26.865       20.984      801.251      721.742      440.312        0.177        0.098       33.582       14.323        0.182      346.087       24.083      866.835
07/06/2014  08:55:00       25.414       27.197       20.277       42.431       28.152       22.996     1800.409      792.513      528.829        0.246        0.156       37.223       12.735        0.117      346.124       24.146      866.831
07/06/2014  08:56:00       37.901       56.371       10.358       41.990       28.029       27.348     1763.190      785.599      747.913        0.401        0.165       67.928       12.030        0.031      345.566       23.189      866.837
07/06/2014  08:57:00       70.274       71.451        5.493       38.245       42.277       38.043     1462.707     1787.365     1447.307        0.738        0.235      100.218       27.525        0.075      345.564       23.185      866.836
07/06/2014  08:58:00       45.660       60.780       20.567       50.050       32.148       36.107     2504.955     1033.515     1303.689        0.552        0.242       76.020       31.878        0.176      346.002       23.936      866.841
07/06/2014  08:59:00       16.647       81.783       -0.536       42.462       38.781       33.628     1803.020     1503.933     1130.848        0.570        0.222       83.460       17.276        0.043      345.872       23.714      866.853
07/06/2014  09:00:00        4.370       42.872        0.577       41.608       36.636       29.739     1731.245     1342.222      884.402        0.291        0.198       43.094       23.920        0.308      346.116       24.131      866.849
07/06/2014  09:01:00       35.431       37.628        4.624       43.808       35.849       24.281     1919.184     1285.130      589.563        0.324        0.190       51.684       19.703        0.145      346.030       23.985      866.835
07/06/2014  09:02:00        3.423       47.584       24.809       28.650       33.017       24.372      820.797     1090.127      593.979        0.270        0.125       47.707       18.123        0.144      346.452       24.711      866.831
07/06/2014  09:03:00       21.528       81.854       16.769       37.257       32.528       32.819     1388.118     1058.099     1077.067        0.548        0.176       84.637       25.228        0.089      346.132       24.160      866.824
07/06/2014  09:04:00       -2.498       17.930       35.814       46.347       35.026       16.924     2148.021     1226.819      286.428        0.264        0.183       18.104       17.111        0.893      346.100       24.105      866.818
07/06/2014  09:05:00       -4.541        7.028       21.301       24.216       10.472       14.983      586.421      109.655      224.500        0.072        0.046        8.367       12.169        2.115      346.348       24.531      866.820
07/06/2014  09:06:00      -12.796      -19.195       14.824       19.575       24.527       22.997      383.177      601.558      528.842        0.113        0.076       23.069       11.599        0.253      346.240       24.346      866.804
07/06/2014  09:07:00      -35.899        2.692        5.099       25.189       14.139       14.777      634.467      199.905      218.353        0.119        0.053       36.000        9.951        0.076      345.722       23.456      866.792
07/06/2014  09:08:00      -21.635      -21.082        5.857       16.543       20.331       15.245      273.664      413.368      232.407        0.093        0.046       30.208       12.790        0.179      346.042       24.006      866.779
07/06/2014  09:09:00       17.815       13.717       41.280       38.397       36.134       34.977     1474.346     1305.700     1223.370        0.311        0.200       22.484       24.096        1.149      346.758       25.238      866.768
07/06/2014  09:10:00       29.979       38.352       58.558       35.851       32.301       22.261     1285.268     1043.338      495.546        0.431        0.141       48.679       14.273        0.086      346.221       24.313      866.759
07/06/2014  09:11:00       33.864       41.459       42.564       46.688       29.611       43.291     2179.783      876.806     1874.097        0.480        0.247       53.532       39.868        0.555      346.018       23.963      866.747
07/06/2014  09:12:00       27.357       59.603       30.374       30.448       24.804       20.230      927.082      615.221      409.264        0.359        0.098       65.581       13.075        0.040      345.930       23.813      866.736
07/06/2014  09:13:00       29.715       57.650       16.026       24.958       17.936       23.229      622.888      321.707      539.572        0.297        0.074       64.858       17.810        0.075      345.808       23.602      866.724
07/06/2014  09:14:00       37.273       21.749       23.309       25.800       22.253       26.161      665.615      495.190      684.404        0.213        0.092       43.154       14.577        0.114      345.938       23.828      866.712
07/06/2014  09:15:00      -30.692       -8.052        9.273       39.899       19.082       23.465     1591.937      364.121      550.611        0.180        0.125       31.731       21.336        0.452      346.377       24.582      866.704
07/06/2014  09:16:00      -15.596        5.731       33.238       22.588       17.136       17.986      510.205      293.646      323.495        0.125        0.056       16.616       13.981        0.708      347.201       26.003      866.676
07/06/2014  09:17:00      -12.054        2.862       30.198       14.042       20.062       19.783      197.181      402.499      391.354        0.103        0.050       12.389       14.682        1.404      347.010       25.672      866.670
07/06/2014  09:18:00        0.293       -6.277       56.699       22.369       56.590       22.992      500.374     3202.409      528.633        0.374        0.212        6.284       21.647       11.867      346.863       25.418      866.662
07/06/2014  09:19:00        5.235       -9.322       37.016       30.559       54.555       23.391      933.868     2976.244      547.128        0.297        0.223       10.691       18.013        2.839      346.583       24.936      866.637
07/06/2014  09:20:00      -19.042       10.054       30.240       20.898       26.639       19.373      436.735      709.644      375.314        0.145        0.076       21.534       17.384        0.652      346.901       25.484      866.626
07/06/2014  09:21:00       -6.359        1.243       37.310       21.602       21.457       20.388      466.653      460.423      415.668        0.139        0.067        6.479       14.870        5.267      347.168       25.943      866.613
07/06/2014  09:22:00        1.567       -5.524       39.233       22.652       34.794       18.506      513.102     1210.620      342.458        0.182        0.103        5.742       16.767        8.527      347.081       25.794      866.590
07/06/2014  09:23:00        7.680      -29.525       17.441       29.465       31.010       22.042      868.205      961.649      485.843        0.177        0.116       30.508       14.703        0.232      346.644       25.040      866.572
07/06/2014  09:24:00      -32.729      -10.325       16.296       21.890       23.070       17.490      479.179      532.226      305.914        0.138        0.066       34.319       13.034        0.144      346.458       24.721      866.566
07/06/2014  09:25:00      -27.381        8.476       11.242       17.559       10.497       14.262      308.308      110.184      203.408        0.078        0.031       28.663       12.762        0.198      346.673       25.090      866.553
07/06/2014  09:26:00      -22.972       12.582       31.023       15.796       12.793       19.282      249.527      163.657      371.779        0.122        0.039       26.192       13.984        0.285      346.917       25.510      866.543
07/06/2014  09:27:00      -10.186       11.781       52.225       11.507       25.579       26.112      132.420      654.271      681.812        0.222        0.073       15.574       20.898        1.801      347.182       25.968      866.537
07/06/2014  09:28:00       -9.455       14.900       53.527       14.685       29.322       20.844      215.637      859.752      434.490        0.234        0.075       17.646       20.298        1.323      347.161       25.930      866.531
07/06/2014  09:29:00       -8.911        3.157       44.022       19.724       45.299       24.408      389.042     2051.985      595.729        0.253        0.152        9.454       26.941        8.122      347.265       26.110      866.515
07/06/2014  09:30:00       33.509       65.001       55.159       31.942       36.878       37.474     1020.317     1359.992     1404.269        0.609        0.189       73.130       33.335        0.208      346.406       24.631      866.505
07/06/2014  09:31:00       27.825       30.593       52.052       29.042       30.620       26.723      843.423      937.606      714.125        0.346        0.125       41.354       12.490        0.091      346.930       25.534      866.492
07/06/2014  09:32:00      -14.880       25.573       50.988       17.620       30.186       14.934      310.458      911.219      223.017        0.246        0.072       29.587        9.282        0.098      347.289       26.152      866.475
07/06/2014  09:33:00      -67.716      -73.808        2.012       40.992       45.105       22.941     1680.318     2034.418      526.272        0.714        0.212      100.166       23.526        0.055      346.461       24.726      866.463
07/06/2014  09:34:00      -72.633      -69.732        9.989       46.205       44.648       28.913     2134.936     1993.460      835.959        0.760        0.248      100.689       25.597        0.065      346.529       24.843      866.444
07/06/2014  09:35:00      -71.564       -9.341      -10.991       24.459       19.905       15.067      598.249      396.226      227.016        0.328        0.061       72.171        9.419        0.017      346.225       24.320      866.422
07/06/2014  09:36:00      -66.102      -48.805       -5.940       28.262       46.672       16.844      798.761     2178.274      283.720        0.502        0.163       82.167       20.677        0.063      346.339       24.515      866.395
07/06/2014  09:37:00      -60.439      -55.595       -1.463       20.187       28.096       13.972      407.521      789.368      195.227        0.407        0.070       82.120       10.213        0.015      346.282       24.419      866.378
07/06/2014  09:38:00      -61.918      -49.571       -1.022       28.039       19.946       18.037      786.183      397.832      325.335        0.390        0.075       79.317       11.409        0.021      346.369       24.568      866.355
07/06/2014  09:39:00      -24.495      -22.788        5.260       18.396       27.388       15.225      338.396      750.110      231.793        0.123        0.066       33.456       10.307        0.095      346.609       24.982      866.342
07/06/2014  09:40:00      -14.460      -59.497        1.139       21.073       20.784       15.116      444.058      431.961      228.503        0.243        0.055       61.229        9.809        0.026      346.471       24.743      866.326
07/06/2014  09:41:00       -7.019      -36.668        6.691       34.206       26.169       28.230     1170.056      684.808      796.922        0.204        0.133       37.333       18.267        0.239      346.630       25.016      866.316
07/06/2014  09:42:00      -43.022      -32.439       13.578       41.023       29.051       23.148     1682.847      843.944      535.842        0.307        0.153       53.881       22.190        0.170      346.992       25.641      866.310
07/06/2014  09:43:00      -12.807      -32.777       24.873       32.123       40.895       22.741     1031.919     1672.414      517.150        0.254        0.161       35.191       26.591        0.571      347.411       26.363      866.307
07/06/2014  09:44:00      -61.657      -52.275       -3.056       19.742       30.989       18.393      389.760      960.321      338.286        0.412        0.084       80.834       11.502        0.020      346.433       24.677      866.305
07/06/2014  09:45:00      -29.000       -3.361        7.534       30.346       17.337       26.266      920.905      300.565      689.881        0.141        0.096       29.194       21.384        0.537      347.172       25.950      866.294
07/06/2014  09:46:00      -57.942      -16.044       -6.866       21.701       22.123       18.317      470.913      489.440      335.515        0.248        0.065       60.123        5.336        0.008      346.683       25.107      866.283
07/06/2014  09:47:00      -49.739       12.868       -0.266       12.916       10.998       14.447      166.815      120.957      208.713        0.157        0.025       51.376        9.588        0.035      346.615       24.990      866.272
07/06/2014  09:48:00      -68.271       -4.089       -9.829       20.092       25.118       10.189      403.688      630.891      103.815        0.296        0.057       68.394       12.117        0.031      346.495       24.785      866.263
07/06/2014  09:49:00      -25.355      -25.554       -0.635       11.269       10.169        9.399      126.980      103.412       88.339        0.081        0.016       35.999        7.726        0.046      346.573       24.919      866.244
07/06/2014  09:50:00      -31.803      -15.319       -0.388       12.424       15.356       11.587      154.365      235.809      134.252        0.089        0.026       35.300        7.682        0.047      346.706       25.146      866.239
07/06/2014  09:51:00      -25.399       -0.895       -2.093       10.627       14.500        9.406      112.940      210.255       88.475        0.053        0.021       25.415        8.458        0.111      346.781       25.277      866.232
07/06/2014  09:52:00      -38.632        4.552        1.514       13.409       21.804       15.231      179.809      475.412      231.973        0.120        0.044       38.899        9.286        0.057      346.779       25.271      866.219
07/06/2014  09:53:00      -33.994      -14.401        1.738       21.042       13.323       13.396      442.770      177.499      179.445        0.108        0.040       36.919       11.630        0.099      346.912       25.501      866.212
07/06/2014  09:54:00      -24.071      -20.279        4.439       24.235       17.334       18.863      587.335      300.478      355.799        0.113        0.062       31.475       13.922        0.196      347.128       25.873      866.206
07/06/2014  09:55:00      -24.753      -44.153        7.513       25.672       27.015       18.090      659.075      729.811      327.233        0.217        0.086       50.618        8.159        0.026      347.118       25.857      866.194
07/06/2014  09:56:00      -14.347        4.849       22.098       13.426       15.505       21.550      180.257      240.393      464.405        0.080        0.044       15.144       12.578        0.690      348.019       27.411      866.183
07/06/2014  09:57:00        9.283        3.961       32.204       18.844       16.899       14.356      355.093      285.579      206.085        0.099        0.042       10.093        8.788        0.758      348.570       28.364      866.179
07/06/2014  09:58:00      -34.119      -16.408       13.646       33.003       22.672       22.569     1089.210      514.034      509.377        0.187        0.106       37.860       20.233        0.286      347.695       26.853      866.173
07/06/2014  09:59:00      -82.478      -11.650        2.022       38.836       33.628       22.454     1508.252     1130.847      504.199        0.504        0.157       83.297       17.904        0.046      347.072       25.776      866.177
07/06/2014  10:00:00       -6.614       19.736       17.399       34.393       33.726       16.857     1182.855     1137.453      284.145        0.167        0.130       20.815        9.785        0.221      347.694       26.850      866.177
07/06/2014  10:01:00       90.685       62.612       26.383       43.221       37.738       29.325     1868.055     1424.174      859.929        0.850        0.208      110.200       21.022        0.036      347.348       26.253      866.184
07/06/2014  10:02:00       94.365       78.929       14.671       34.929       26.211       38.467     1220.012      686.999     1479.721        0.937        0.169      123.023       24.597        0.040      347.006       25.663      866.195
07/06/2014  10:03:00       54.761       48.627       -7.107       24.216       38.359       26.057      586.424     1471.438      678.965        0.407        0.137       73.235       17.477        0.057      346.980       25.620      866.200
07/06/2014  10:04:00      -36.659      -20.743       -6.592       27.452       18.642       20.218      753.630      347.534      408.769        0.166        0.075       42.121       13.868        0.108      347.153       25.917      866.195
07/06/2014  10:05:00      -48.891      -17.084       -4.578       24.189       17.007       14.758      585.086      289.248      217.785        0.190        0.055       51.790       14.188        0.075      347.066       25.767      866.197
07/06/2014  10:06:00       -9.427       -7.712       20.601       13.319       21.350       15.685      177.390      455.815      246.020        0.073        0.044       12.180       12.102        0.987      348.039       27.446      866.199
07/06/2014  10:07:00       89.340       57.615       17.433       42.683       44.839       28.238     1821.855     2010.580      797.363        0.812        0.231      106.307       25.093        0.056      347.589       26.668      866.210
07/06/2014  10:08:00      103.730       66.459       20.437       49.145       38.497       36.162     2415.190     1482.050     1307.677        1.040        0.260      123.194       20.913        0.029      347.517       26.544      866.210
07/06/2014  10:09:00      126.515       97.942       15.682       46.030       32.639       37.344     2118.758     1065.276     1394.577        1.521        0.229      159.995       21.770        0.019      347.372       26.293      866.212
07/06/2014  10:10:00       66.034       77.699       46.120       55.218       46.013       44.799     3049.023     2117.173     2006.985        0.985        0.359      101.969       35.571        0.122      347.507       26.526      866.224
07/06/2014  10:11:00       18.715       24.765       50.179       25.844       26.370       18.399      667.913      695.374      338.506        0.259        0.085       31.041       17.492        0.318      347.965       27.318      866.231
07/06/2014  10:12:00       17.788       22.629       34.062       23.368       24.423       25.736      546.079      596.462      662.323        0.190        0.090       28.784       17.744        0.380      348.249       27.807      866.233
07/06/2014  10:13:00       68.689       59.393       15.510       50.222       28.859       27.741     2522.216      832.838      769.537        0.630        0.206       90.806       20.729        0.052      347.662       26.793      866.237
07/06/2014  10:14:00       87.580       57.976       10.800       25.024       32.333       31.039      626.193     1045.391      963.391        0.689        0.132      105.031       16.196        0.024      347.420       26.376      866.235
07/06/2014  10:15:00       89.103       59.583       15.034       37.867       34.262       25.977     1433.927     1173.882      674.786        0.750        0.164      107.189       16.029        0.022      347.568       26.633      866.236
07/06/2014  10:16:00       95.550       66.346       -1.746       41.760       36.628       27.858     1743.904     1341.591      776.045        0.870        0.193      116.326       15.767        0.018      347.563       26.622      866.238
07/06/2014  10:17:00       49.898       82.785        0.373       35.986       39.174       24.678     1294.977     1534.623      609.011        0.639        0.172       96.660       15.976        0.027      347.775       26.989      866.241
07/06/2014  10:18:00       33.362       37.144       42.385       43.332       36.059       37.576     1877.643     1300.217     1411.930        0.444        0.229       49.927       33.361        0.446      348.012       27.399      866.238
07/06/2014  10:19:00       22.383       53.582       52.887       42.382       43.873       41.162     1796.254     1924.819     1694.302        0.579        0.271       58.069       17.143        0.087      348.061       27.483      866.236
07/06/2014  10:20:00        4.226       76.932       84.860       34.603       50.717       29.760     1197.372     2572.181      885.658        0.890        0.233       77.048       26.866        0.122      348.186       27.700      866.225
07/06/2014  10:21:00       46.267       80.638       88.207       40.468       35.047       33.648     1637.673     1228.272     1132.158        1.021        0.200       92.969       28.074        0.091      347.766       26.974      866.237
07/06/2014  10:22:00      128.128       95.629        3.671       45.256       36.940       36.238     2048.065     1364.543     1313.183        1.515        0.236      159.880       24.569        0.024      347.372       26.293      866.235
07/06/2014  10:23:00       26.222       59.602       -6.605       29.223       37.322       28.628      853.994     1392.895      819.577        0.367        0.153       65.115       29.189        0.201      347.856       27.130      866.229
07/06/2014  10:24:00       34.021       55.738       71.058       38.942       58.646       42.269     1516.472     3439.402     1786.629        0.803        0.337       65.300       42.417        0.422      348.286       27.871      866.226
07/06/2014  10:25:00       32.509       59.355       81.444       52.759       64.953       48.913     2783.543     4218.853     2392.503        1.030        0.470       67.675       39.115        0.334      348.075       27.507      866.220
07/06/2014  10:26:00       68.638       59.213       49.458       50.985       33.555       35.949     2599.472     1125.928     1292.343        0.784        0.251       90.650       25.269        0.078      347.854       27.125      866.235
07/06/2014  10:27:00       47.395       34.499       22.937       30.140       25.725       25.846      908.441      661.771      668.037        0.310        0.112       58.621       19.129        0.106      347.965       27.316      866.221
07/06/2014  10:28:00       27.847       69.420       14.250       36.447       31.969       39.953     1328.410     1022.016     1596.206        0.487        0.197       74.797       24.434        0.107      347.912       27.225      866.217
07/06/2014  10:29:00      -62.651        6.804       -2.531       14.958       21.278       16.897      223.728      452.744      285.525        0.247        0.048       63.019       13.003        0.043      347.696       26.853      866.196
07/06/2014  10:30:00      -80.018        3.717       -5.269       38.148       24.877       15.880     1455.267      618.849      252.184        0.438        0.116       80.104       18.068        0.051      347.594       26.677      866.186
07/06/2014  10:31:00       -1.937       -7.517       16.722       22.383       23.055       20.514      501.017      531.542      420.820        0.090        0.073        7.762       12.666        2.662      348.618       28.447      866.169
07/06/2014  10:32:00       25.222       23.102       39.972       40.938       33.300       27.241     1675.944     1108.865      742.099        0.315        0.176       34.203       26.374        0.595      348.630       28.466      866.172
07/06/2014  10:33:00       98.431       79.477       25.620       56.340       45.754       41.734     3174.180     2093.389     1741.739        1.183        0.350      126.512       18.516        0.021      348.190       27.706      866.159
07/06/2014  10:34:00       65.132       79.175       14.558       52.521       55.686       36.301     2758.422     3100.915     1317.796        0.895        0.359      102.522       35.391        0.119      348.122       27.589      866.153
07/06/2014  10:35:00       62.333       47.841       48.864       47.355       41.657       48.956     2242.531     1735.288     2396.720        0.747        0.319       78.576       32.664        0.173      348.458       28.170      866.136
07/06/2014  10:36:00       80.656       96.371      110.783       65.995       72.230       46.569     4355.341     5217.106     2168.668        1.990        0.587      125.669       47.384        0.142      348.069       27.494      866.139
07/06/2014  10:37:00      104.864       78.835       89.982       41.255       53.335       43.145     1702.010     2844.648     1861.483        1.586        0.320      131.192       43.129        0.108      347.966       27.318      866.132
07/06/2014  10:38:00       65.452       45.048       59.682       46.894       45.328       40.094     2199.042     2054.620     1607.494        0.787        0.293       79.457       35.715        0.202      348.207       27.735      866.124
07/06/2014  10:39:00        9.854       31.865       24.674       39.444       22.953       32.980     1555.844      526.848     1087.706        0.245        0.159       33.354       18.491        0.307      348.334       27.956      866.106
07/06/2014  10:40:00       75.986       47.802        8.151       62.732       37.537       24.334     3935.289     1409.058      592.158        0.703        0.297       89.771       13.983        0.024      348.180       27.688      866.096
07/06/2014  10:41:00       45.374       43.515       10.645       61.292       47.659       35.748     3756.738     2271.400     1277.897        0.568        0.365       62.867       29.807        0.225      348.618       28.446      866.079
07/06/2014  10:42:00        5.840       80.823        1.614       63.550       54.889       35.890     4038.648     3012.801     1288.113        0.745        0.417       81.033       29.492        0.132      348.305       27.904      866.079
07/06/2014  10:43:00       -0.628       23.285       34.330       30.800       24.575       32.691      948.611      603.910     1068.678        0.217        0.131       23.293       13.661        0.344      349.410       29.818      866.064
07/06/2014  10:44:00      -12.310        4.016       26.796       22.013       16.514       17.839      484.584      272.703      318.241        0.098        0.054       12.948        9.164        0.501      349.043       29.183      866.067
07/06/2014  10:45:00        0.673        4.617       14.513       20.368       22.322       18.769      414.863      498.250      352.263        0.075        0.063        4.666       15.199       10.612      349.148       29.365      866.057
07/06/2014  10:46:00      -51.596       10.806        8.909       31.232       32.230       27.950      975.416     1038.764      781.209        0.283        0.140       52.715       14.745        0.078      348.444       28.145      866.053
07/06/2014  10:47:00      -39.487       32.630      -10.731       27.227       27.542       20.705      741.283      758.562      428.677        0.233        0.096       51.225       10.204        0.040      348.221       27.758      866.051
07/06/2014  10:48:00       14.780       34.247       12.925       22.597       22.255       28.725      510.614      495.278      825.134        0.169        0.092       37.300       11.070        0.088      348.933       28.992      866.037
07/06/2014  10:49:00      -32.694       26.680       10.117       17.810       16.990       25.074      317.184      288.653      628.704        0.156        0.062       42.198       14.732        0.122      348.666       28.529      866.033
07/06/2014  10:50:00       -1.025      -19.911       -0.747       30.142       42.127       23.564      908.542     1774.671      555.240        0.182        0.162       19.937       17.873        0.804      348.815       28.787      866.025
07/06/2014  10:51:00      100.377     -151.533      -14.048       47.917       58.195       37.525     2296.052     3386.618     1408.154        2.016        0.355      181.763       25.357        0.019      348.313       27.917      866.013
07/06/2014  10:52:00       73.154      -69.266       32.268       71.671      129.913       90.895     5136.803    16877.355     8261.831        2.073        1.514      100.744      101.042        1.006      348.607       28.425      865.997
07/06/2014  10:53:00       41.777      157.693      145.021       44.954       54.571       28.935     2020.819     2977.969      837.251        2.674        0.292      163.133       31.429        0.037      348.180       27.686      866.000
07/06/2014  10:54:00       73.971       28.538       45.673       38.708       48.850       46.639     1498.293     2386.289     2175.192        0.721        0.303       79.285       35.787        0.204      348.247       27.804      866.019
07/06/2014  10:55:00       29.999       37.612       19.650       19.947       25.437       27.215      397.878      647.025      740.644        0.224        0.089       48.110       20.016        0.173      348.332       27.949      866.014
07/06/2014  10:56:00      -27.516      -35.492        1.822       35.379       45.347       24.431     1251.667     2056.313      596.869        0.296        0.195       44.909       23.305        0.269      348.617       28.444      866.003
07/06/2014  10:57:00      -39.030      -44.282       10.753       40.141       45.433       30.308     1611.328     2064.177      918.564        0.410        0.230       59.028       26.324        0.199      348.665       28.525      865.991
07/06/2014  10:58:00      -60.651      -50.758       12.281       60.041       37.757       32.031     3604.947     1425.573     1025.969        0.623        0.303       79.088       35.605        0.203      348.716       28.616      865.981
07/06/2014  10:59:00      -39.738      -31.612       23.628       51.580       33.790       27.002     2660.451     1141.761      729.133        0.383        0.227       50.778       22.399        0.195      348.955       29.031      865.977
07/06/2014  11:00:00       -1.213        4.892       37.141       29.276       19.158       23.406      857.110      367.045      547.829        0.159        0.089        5.041       15.689        9.687      349.767       30.440      865.968
07/06/2014  11:01:00      -19.525      -16.509       26.213       22.056       23.795       19.861      486.469      566.203      394.460        0.139        0.072       25.569       16.526        0.418      349.336       29.690      865.960
07/06/2014  11:02:00       15.899       52.364       11.283       48.954       39.007       31.616     2396.518     1521.525      999.596        0.402        0.246       54.724       27.158        0.246      349.020       29.143      865.947
07/06/2014  11:03:00       97.599       90.426       -2.456       73.134       54.023       39.945     5348.568     2918.508     1595.635        1.378        0.493      133.050       22.491        0.029      348.794       28.751      865.942
07/06/2014  11:04:00      126.302      101.640       22.001       50.005       37.083       39.190     2500.518     1375.175     1535.837        1.609        0.271      162.121       23.783        0.022      348.484       28.214      865.934
07/06/2014  11:05:00       35.777      140.896      -12.770       42.439       63.008       38.055     1801.030     3970.011     1448.155        1.426        0.361      145.367       35.775        0.061      348.628       28.462      865.928
07/06/2014  11:06:00       -2.283      121.047      -10.959       35.698       55.890       29.327     1274.370     3123.733      860.064        1.002        0.263      121.069       30.618        0.064      348.774       28.718      865.922
07/06/2014  11:07:00        7.029        9.811       18.404       21.456       17.547       24.601      460.381      307.880      605.217        0.093        0.069       12.069       13.098        1.178      349.592       30.136      865.922
07/06/2014  11:08:00       23.032       35.252       27.200       29.533       43.240       32.052      872.194     1869.689     1027.303        0.314        0.188       42.109       19.478        0.214      349.176       29.413      865.904
07/06/2014  11:09:00       61.344       46.465       45.670       46.137       51.231       34.901     2128.661     2624.646     1218.058        0.699        0.299       76.955       11.643        0.023      349.111       29.300      865.899
07/06/2014  11:10:00       12.165       22.401       11.838       28.038       34.407       28.025      786.151     1183.863      785.386        0.177        0.138       25.491       17.709        0.483      349.502       29.977      865.884
07/06/2014  11:11:00       65.995       51.171       58.026       44.398       31.069       36.026     1971.150      965.279     1297.847        0.729        0.212       83.509       28.608        0.117      349.193       29.442      865.890
07/06/2014  11:12:00       99.071       58.265       34.072       57.955       48.683       43.287     3358.759     2369.989     1873.766        1.099        0.380      114.934       30.542        0.071      348.957       29.031      865.886
07/06/2014  11:13:00       65.397      -69.630       15.683       62.865       73.109       48.700     3951.985     5344.864     2371.708        1.052        0.583       95.525       43.536        0.208      349.356       29.724      865.880
07/06/2014  11:14:00       69.679      -40.033       27.417       51.856      108.621       73.280     2689.057    11798.425     5369.893        1.353        0.993       80.361       84.208        1.098      349.016       29.133      865.880
07/06/2014  11:15:00       92.439       78.819       82.478       71.127       54.567       51.134     5059.027     2977.580     2614.673        1.610        0.533      121.480       42.819        0.124      348.834       28.820      865.889
07/06/2014  11:16:00       35.499       74.213       71.994       37.175       40.291       45.265     1381.988     1623.381     2048.953        0.850        0.253       82.266       28.602        0.121      349.006       29.117      865.892
07/06/2014  11:17:00       30.045       33.541       52.257       35.876       53.834       32.871     1287.075     2898.070     1080.519        0.501        0.263       45.030       36.969        0.674      349.091       29.265      865.891
07/06/2014  11:18:00       22.334       18.687       38.579       31.245       42.168       34.499      976.245     1778.107     1190.164        0.314        0.197       29.121       29.507        1.027      349.662       30.254      865.887
07/06/2014  11:19:00       41.068     -107.848        6.636       38.342       31.563       32.827     1470.098      996.207     1077.616        0.845        0.177      115.403       22.598        0.038      348.945       29.012      865.884
07/06/2014  11:20:00       -1.363      -63.463      -13.218       20.267       50.030       15.886      410.759     2503.049      252.356        0.368        0.158       63.477       15.503        0.060      348.871       28.884      865.876
07/06/2014  11:21:00      -18.743       -0.063        9.170       36.936       17.931       32.522     1364.284      321.533     1057.681        0.159        0.137       18.743       32.471        3.001      349.035       29.168      865.864
07/06/2014  11:22:00      -28.402       33.841       -2.141       42.340       31.826       26.607     1792.703     1012.865      707.924        0.273        0.176       44.180       15.189        0.118      348.957       29.033      865.842
07/06/2014  11:23:00     -117.580       -6.787      -17.866       19.793       16.238       13.788      391.763      263.686      190.110        0.752        0.042      117.776       10.166        0.007      348.605       28.423      865.830
07/06/2014  11:24:00      -45.100      -22.295        3.805       35.996       34.248       18.882     1295.730     1172.899      356.545        0.268        0.141       50.309       18.214        0.131      349.368       29.747      865.805
07/06/2014  11:25:00      -24.800        5.388       14.436       32.346       26.154       26.271     1046.270      684.038      690.187        0.164        0.121       25.379       18.620        0.538      349.781       30.464      865.792
07/06/2014  11:26:00       40.961       29.448       24.392       41.005       41.000       30.663     1681.373     1681.016      940.208        0.372        0.215       50.448       20.828        0.170      349.391       29.785      865.767
07/06/2014  11:27:00       23.940       21.249       14.128       40.947       41.076       25.517     1676.639     1687.201      651.131        0.262        0.201       32.010       16.140        0.254      349.493       29.961      865.752
07/06/2014  11:28:00       55.024       37.888       -0.100       71.289       43.220       25.683     5082.131     1867.927      659.598        0.604        0.380       66.807       22.932        0.118      349.303       29.631      865.726
07/06/2014  11:29:00      102.533       69.384       13.629       60.765       52.772       39.084     3692.401     2784.841     1527.534        1.176        0.400      123.803       18.584        0.023      349.131       29.332      865.719
07/06/2014  11:30:00      103.055       58.118       16.982       57.109       44.841       28.399     3261.472     2010.698      806.480        1.018        0.304      118.314       21.043        0.032      349.204       29.461      865.709
07/06/2014  11:31:00       57.599       59.649       -5.877       38.364       62.995       31.518     1471.792     3968.415      993.373        0.667        0.322       82.919       35.849        0.187      349.088       29.259      865.695
07/06/2014  11:32:00      -41.149      -23.417       13.846       39.724       45.422       25.431     1578.012     2063.157      646.753        0.336        0.214       47.345       26.822        0.321      349.642       30.221      865.679
07/06/2014  11:33:00      -86.172      -45.325        6.488       49.604       47.405       32.360     2460.599     2247.254     1047.169        0.764        0.288       97.366       31.849        0.107      349.178       29.415      865.668
07/06/2014  11:34:00      -76.215      -49.435       -6.079       37.676       37.520       26.320     1419.477     1407.721      692.730        0.590        0.176       90.843       11.064        0.015      348.990       29.090      865.651
07/06/2014  11:35:00      -14.492      -21.616       -6.090       16.226       23.710       14.130      263.271      562.159      199.655        0.087        0.051       26.024       11.222        0.186      349.010       29.124      865.640
07/06/2014  11:36:00      -19.562       21.527       30.896       19.814       21.720       26.409      392.608      471.758      697.418        0.168        0.078       29.088       16.448        0.320      350.184       31.162      865.620
07/06/2014  11:37:00       -7.418      -47.717       13.319       31.740       44.359       25.389     1007.427     1967.722      644.612        0.306        0.181       48.290       24.814        0.264      349.380       29.767      865.620
07/06/2014  11:38:00      -12.562      -18.189       10.630       27.923       25.411       30.069      779.707      645.715      904.152        0.147        0.116       22.105       21.827        0.975      349.889       30.650      865.602
07/06/2014  11:39:00      -82.166       14.369        3.607       47.068       28.601       27.691     2215.409      818.035      766.777        0.538        0.190       83.413       28.241        0.115      349.595       30.139      865.595
07/06/2014  11:40:00      -72.258      -14.575      -11.097       37.219       30.071       16.465     1385.278      904.261      271.111        0.406        0.128       73.713       16.170        0.048      349.075       29.237      865.579
07/06/2014  11:41:00      -29.924      -35.062        2.334       23.839       14.468       18.564      568.307      209.320      344.619        0.163        0.056       46.095       14.076        0.093      349.384       29.774      865.571
07/06/2014  11:42:00       -9.511       -0.292       14.933       28.671       28.652       21.538      822.033      820.948      463.899        0.121        0.105        9.516       13.539        2.024      350.230       31.242      865.557
07/06/2014  11:43:00      -41.435       20.991       20.864       55.566       53.961       33.795     3087.578     2911.828     1142.100        0.487        0.357       46.449       30.450        0.430      350.088       30.995      865.545
07/06/2014  11:44:00      -85.215        3.271        4.605       41.493       41.043       25.621     1721.652     1684.498      656.455        0.568        0.203       85.277       24.169        0.080      349.610       30.165      865.541
07/06/2014  11:45:00      -31.664       12.484        7.950       29.546       19.468       23.664      872.967      379.002      559.962        0.152        0.091       34.036       18.183        0.285      349.893       30.657      865.529
07/06/2014  11:46:00      -13.345      -33.568        4.669       33.828       29.114       24.781     1144.339      847.602      614.112        0.197        0.130       36.124       18.680        0.267      349.556       30.071      865.515
07/06/2014  11:47:00       -9.822       -1.872       12.291       18.725       38.302       32.619      350.634     1467.057     1064.000        0.157        0.144        9.999       29.414        8.654      350.063       30.952      865.497
07/06/2014  11:48:00      -68.891       -3.108       12.937       51.261       43.326       36.186     2627.663     1877.180     1309.439        0.537        0.291       68.961       34.320        0.248      349.865       30.607      865.489
07/06/2014  11:49:00      -51.957       19.473       30.648       61.179       38.480       25.053     3742.844     1480.700      627.656        0.493        0.293       55.486       32.841        0.350      350.220       31.225      865.480
07/06/2014  11:50:00      -44.777      -11.081       13.982       49.945       35.119       29.228     2494.477     1233.332      854.272        0.345        0.229       46.128       30.447        0.436      349.923       30.708      865.475
07/06/2014  11:51:00      -48.277      -47.136        4.968       52.286       36.750       21.260     2733.780     1350.593      452.009        0.456        0.227       67.473       24.246        0.129      349.611       30.166      865.471
07/06/2014  11:52:00      -13.419        5.690        5.253       41.206       31.774       27.421     1697.919     1009.570      751.904        0.185        0.173       14.576       21.220        2.119      349.761       30.427      865.453
07/06/2014  11:53:00      -44.199      -62.368        2.962       44.278       34.605       22.644     1960.527     1197.536      512.745        0.476        0.184       76.442       16.757        0.048      349.635       30.208      865.447
07/06/2014  11:54:00      -53.103      -51.707        8.399       52.732       49.161       30.361     2780.706     2416.788      921.763        0.584        0.306       74.118       30.385        0.168      349.940       30.737      865.444
07/06/2014  11:55:00      -61.871      -21.885       16.109       48.214       34.887       35.709     2324.554     1217.134     1275.119        0.469        0.241       65.628       33.218        0.256      349.731       30.374      865.432
07/06/2014  11:56:00      -45.277       -6.611       14.051       36.561       37.143       26.516     1336.725     1379.620      703.093        0.285        0.171       45.757       25.164        0.302      350.020       30.877      865.417
07/06/2014  11:57:00      -18.640      -23.602       -8.289       26.518       26.867       15.280      703.205      721.822      233.490        0.132        0.083       30.075        7.373        0.060      349.807       30.506      865.413
07/06/2014  11:58:00      -56.281       24.072       -4.205       39.602       53.515       36.126     1568.294     2863.870     1305.120        0.475        0.287       61.213       27.377        0.200      349.825       30.538      865.405
07/06/2014  11:59:00     -101.900        3.654      -17.261       31.410       22.770       15.334      986.588      518.478      235.143        0.622        0.087      101.965       15.628        0.023      349.459       29.902      865.398
07/06/2014  12:00:00      -29.452      -20.775       12.479       31.183       29.911       21.129      972.393      894.649      446.445        0.188        0.116       36.042       18.803        0.272      350.219       31.223      865.383
07/06/2014  12:01:00       -5.962        0.040       34.293       20.844       25.804       11.721      434.484      665.836      137.371        0.122        0.062        5.962        8.888        2.222      350.850       32.319      865.370
07/06/2014  12:02:00       42.344       53.303       69.072       41.829       35.580       31.317     1749.630     1265.966      980.768        0.670        0.200       68.075       27.019        0.158      350.164       31.127      865.353
07/06/2014  12:03:00       10.292       65.102       97.797       47.272       64.259       51.128     2234.625     4129.225     2614.026        1.144        0.449       65.911       44.747        0.461      350.209       31.203      865.336
07/06/2014  12:04:00      113.805       66.291       58.154       83.224       88.318       61.316     6926.305     7800.114     3759.651        1.960        0.924      131.705       35.445        0.072      349.732       30.375      865.339
07/06/2014  12:05:00       98.143       63.884       10.001       48.584       58.260       33.087     2360.373     3394.215     1094.768        1.033        0.342      117.103       26.179        0.050      349.364       29.736      865.347
07/06/2014  12:06:00        7.498       38.160       -5.319       27.026       26.211       30.423      730.409      687.008      925.564        0.194        0.117       38.890       16.472        0.179      349.735       30.381      865.330
07/06/2014  12:07:00       11.910       25.307       29.831       26.692       25.327       31.557      712.466      641.475      995.832        0.201        0.117       27.969        7.247        0.067      350.227       31.235      865.322
07/06/2014  12:08:00      -48.459       25.908       -3.966       28.794       20.768       13.611      829.080      431.330      185.259        0.224        0.072       54.950        9.228        0.028      349.736       30.383      865.317
07/06/2014  12:09:00      -33.702       21.410       15.156       34.665       24.420       29.440     1201.649      596.326      866.737        0.224        0.133       39.928       25.539        0.409      350.505       31.722      865.310
07/06/2014  12:10:00      -77.782      -10.822       -4.338       42.487       51.641       24.488     1805.107     2666.774      599.664        0.563        0.254       78.531       21.716        0.076      350.140       31.084      865.294
07/06/2014  12:11:00     -123.090       37.637       -0.411       61.792       43.542       26.838     3818.263     1895.869      720.254        1.150        0.322      128.716       18.701        0.021      349.845       30.572      865.274
07/06/2014  12:12:00      -94.370      -39.684       -8.270       38.283       49.374       22.039     1465.585     2437.747      485.719        0.747        0.219      102.374       16.619        0.026      349.525       30.019      865.272
07/06/2014  12:13:00      -39.148      -44.379       16.681       52.939       50.279       32.916     2802.505     2527.937     1083.455        0.510        0.321       59.178       35.835        0.367      350.148       31.101      865.253
07/06/2014  12:14:00      -20.774      -40.663       17.638       34.906       33.223       27.715     1218.422     1103.776      768.125        0.274        0.155       45.662       22.741        0.248      350.449       31.623      865.247
07/06/2014  12:15:00      -21.819      -29.784       10.258       35.894       26.446       30.860     1288.399      699.370      952.353        0.220        0.147       36.921       29.683        0.646      350.138       31.081      865.235
07/06/2014  12:16:00      -55.318      -32.210        3.720       28.214       27.594       19.994      796.011      761.439      399.776        0.303        0.098       64.013       10.283        0.026      349.804       30.501      865.221
07/06/2014  12:17:00       -8.793      -81.304        0.655       69.442       72.112       32.367     4822.260     5200.196     1047.622        0.888        0.554       81.778       40.381        0.244      350.116       31.042      865.202
07/06/2014  12:18:00       18.511      -27.288       48.840       62.952      130.451       53.900     3962.902    17017.555     2905.220        1.368        1.194       32.974       27.497        0.695      350.545       31.787      865.162
07/06/2014  12:19:00      104.327      100.105       85.030      123.079       78.285       85.283    15148.560     6128.540     7273.111        2.834        1.428      144.586       84.769        0.344      350.346       31.440      865.150
07/06/2014  12:20:00      232.151      123.796       32.270       80.149       66.434       57.031     6423.842     4413.416     3252.536        4.217        0.704      263.097       46.123        0.031      350.012       30.859      865.136
07/06/2014  12:21:00      151.179       88.452       26.588       76.305       68.116       53.497     5822.443     4639.730     2861.967        2.235        0.666      175.154       45.254        0.067      350.304       31.368      865.127
07/06/2014  12:22:00      132.599       79.292       28.843       54.328       63.132       52.743     2951.539     3985.606     2781.868        1.721        0.486      154.498       33.369        0.047      350.067       30.957      865.118
07/06/2014  12:23:00       79.495       56.089       18.622       59.322       44.891       28.218     3519.129     2015.228      796.283        0.807        0.317       97.290       24.496        0.063      349.854       30.587      865.104
07/06/2014  12:24:00      124.740       69.453        1.294       52.339       40.265       32.819     2739.398     1621.310     1077.099        1.291        0.272      142.772       17.608        0.015      349.927       30.713      865.077
07/06/2014  12:25:00       58.212       49.385       -8.275       49.362       44.477       32.589     2436.615     1978.244     1062.056        0.569        0.274       76.338       28.154        0.136      350.152       31.107      865.064
07/06/2014  12:26:00       65.926       36.799       -9.309       38.399       40.130       28.987     1474.474     1610.381      840.258        0.486        0.196       75.501       24.019        0.101      349.858       30.594      865.061
07/06/2014  12:27:00        9.125      -29.966       -5.915       17.186       33.503       14.479      295.342     1122.472      209.648        0.132        0.081       31.324       16.151        0.266      349.999       30.841      865.038
07/06/2014  12:28:00      -14.773       70.660        4.966       38.332       90.829       37.209     1469.306     8249.841     1384.473        0.817        0.555       72.188       41.721        0.334      350.548       31.794      865.027
07/06/2014  12:29:00       66.428      128.308        0.473       70.780       61.358       59.789     5009.877     3764.828     3574.734        1.661        0.617      144.484       42.576        0.087      350.017       30.871      865.010
07/06/2014  12:30:00       10.849       76.050      -15.935       33.753       57.792       32.125     1139.292     3339.909     1032.025        0.583        0.276       76.820       37.788        0.242      350.249       31.275      865.016
07/06/2014  12:31:00      -52.234       12.683       -8.581       38.883       31.559       24.713     1511.921      995.955      610.735        0.304        0.156       53.751       19.369        0.130      350.219       31.222      864.985
07/06/2014  12:32:00       18.983        8.353       22.724       41.974       21.985       24.473     1761.852      483.333      598.918        0.189        0.142       20.739       24.460        1.391      351.111       32.774      864.971
07/06/2014  12:33:00       42.304       38.418       22.275       51.114       40.835       26.178     2612.659     1667.517      685.285        0.436        0.248       57.145       16.752        0.086      350.519       31.746      864.952
07/06/2014  12:34:00       19.929       63.910      -13.477       22.137       53.031       22.593      490.055     2812.330      510.457        0.424        0.191       66.945       28.185        0.177      350.253       31.281      864.940
07/06/2014  12:35:00      -10.914       29.664       11.401       22.421       29.366       27.001      502.720      862.355      729.042        0.161        0.105       31.608       14.140        0.200      350.706       32.071      864.935
07/06/2014  12:36:00       -8.680       23.635       -4.154       30.621       25.194       23.764      937.663      634.742      564.736        0.139        0.107       25.178       15.556        0.382      350.620       31.921      864.914
07/06/2014  12:37:00      -21.122       64.717        9.470       34.379       39.546       35.062     1181.935     1563.925     1229.318        0.435        0.199       68.077       27.311        0.161      350.752       32.151      864.912
07/06/2014  12:38:00      -37.637       74.407      -24.292       56.617       49.995       28.160     3205.444     2499.535      792.986        0.702        0.325       83.385       28.130        0.114      350.117       31.045      864.903
07/06/2014  12:39:00      -48.755        9.491       -4.215       41.844       30.580       30.981     1750.892      935.119      959.846        0.306        0.182       49.671       31.705        0.407      350.355       31.458      864.879
07/06/2014  12:40:00       26.411       66.419       -2.204       43.056       41.908       30.205     1853.784     1756.262      912.346        0.482        0.226       71.478       18.615        0.068      350.613       31.908      864.868
07/06/2014  12:41:00       23.052       43.348        8.104       39.173       40.812       29.004     1534.553     1665.602      841.222        0.326        0.202       49.097       22.315        0.207      350.810       32.252      864.862
07/06/2014  12:42:00       50.204       42.248       48.456       46.791       49.995       38.228     2189.365     2499.500     1461.368        0.640        0.308       65.615       25.479        0.151      350.680       32.024      864.865
07/06/2014  12:43:00       40.497       48.896       70.208       68.932       53.473       52.634     4751.684     2859.358     2770.327        0.967        0.519       63.489       54.098        0.726      350.491       31.695      864.844
07/06/2014  12:44:00        9.390       -0.519       38.166       25.924       50.563       28.168      672.029     2556.588      793.415        0.278        0.201        9.404       22.790        5.873      350.826       32.279      864.849
07/06/2014  12:45:00      -70.900      -66.214       18.817       55.488       42.922       42.560     3078.909     1842.336     1811.382        0.825        0.337       97.011       32.188        0.110      350.641       31.957      864.817
07/06/2014  12:46:00      -56.503      -41.577       15.731       77.019       46.638       34.204     5931.855     2175.082     1169.916        0.722        0.464       70.152       35.533        0.257      350.830       32.286      864.802
07/06/2014  12:47:00        7.103        6.183       35.317       22.978       21.158       22.442      527.997      447.640      503.639        0.141        0.074        9.417       18.136        3.709      351.453       33.370      864.799
07/06/2014  12:48:00       17.324       61.390       81.824       48.991       51.508       37.077     2400.077     2653.079     1374.718        0.859        0.321       63.788       31.160        0.239      350.823       32.273      864.795
07/06/2014  12:49:00       15.667       23.993       49.071       28.637       50.558       27.542      820.099     2556.114      758.576        0.368        0.207       28.655       27.811        0.942      351.031       32.636      864.784
07/06/2014  12:50:00       50.995       52.717       29.395       79.505       41.125       45.985     6321.040     1691.259     2114.600        0.818        0.506       73.345       14.231        0.038      350.693       32.046      864.767
07/06/2014  12:51:00      151.980       54.217        7.138       70.188       64.082       36.823     4926.328     4106.560     1355.901        1.824        0.519      161.361       15.655        0.009      350.534       31.766      864.768
07/06/2014  12:52:00       73.515       63.212       27.399       68.930       44.384       43.914     4751.399     1969.955     1928.446        0.940        0.432       96.955       34.770        0.129      350.881       32.375      864.758
07/06/2014  12:53:00      102.899       63.973       29.528       83.843       68.333       42.682     7029.573     4669.366     1821.749        1.453        0.676      121.164       40.052        0.109      351.085       32.727      864.737
07/06/2014  12:54:00       83.443       78.005       38.342       67.172       64.171       48.826     4512.088     4117.911     2383.942        1.276        0.551      114.226       23.044        0.041      350.922       32.445      864.722
07/06/2014  12:55:00       61.198       70.367       60.929       49.888       60.313       54.091     2488.778     3637.691     2925.853        1.073        0.453       93.256       43.857        0.221      350.978       32.542      864.703
07/06/2014  12:56:00        3.738       -4.916       35.849       43.838       56.172       30.345     1921.797     3155.247      920.806        0.366        0.300        6.175       21.643       12.282      351.132       32.812      864.689
07/06/2014  12:57:00       -2.939      -35.696       28.005       24.808       47.480       31.967      615.433     2254.384     1021.908        0.298        0.195       35.817       30.211        0.711      350.986       32.557      864.673
07/06/2014  12:58:00       -3.819       24.189       53.023       24.149       37.955       28.953      583.173     1440.550      838.256        0.314        0.143       24.489       18.561        0.574      351.346       33.184      864.640
07/06/2014  12:59:00       12.527        9.633        7.039       45.426       44.437       28.456     2063.498     1974.650      809.747        0.257        0.242       15.802       25.882        2.683      350.958       32.508      864.627
07/06/2014  13:00:00       14.916      -41.431       13.482       30.382       33.217       29.434      923.088     1103.356      866.367        0.251        0.145       44.034       26.121        0.352      351.130       32.809      864.604
07/06/2014  13:01:00       14.999       23.551       46.465       27.601       30.909       26.485      761.817      955.348      701.448        0.268        0.121       27.922       18.412        0.435      351.121       32.792      864.590
07/06/2014  13:02:00       -5.762       29.595       41.191       25.149       20.758       18.126      632.468      430.875      328.567        0.200        0.070       30.150       11.094        0.135      351.332       33.160      864.573
07/06/2014  13:03:00      126.735       81.201       15.340       96.210       83.855       33.507     9256.317     7031.633     1122.747        2.015        0.871      150.517       41.061        0.074      350.739       32.124      864.552
07/06/2014  13:04:00      136.863       44.544       36.518       90.745       59.619       68.782     8234.617     3554.408     4730.913        1.928        0.826      143.929       41.334        0.082      350.834       32.290      864.547
07/06/2014  13:05:00      117.824       61.470       26.034       62.887       50.133       46.111     3954.732     2513.323     2126.234        1.347        0.430      132.895       19.453        0.021      350.819       32.265      864.541
07/06/2014  13:06:00      124.192       70.636       19.998       44.779       37.672       33.161     2005.165     1419.161     1099.639        1.267        0.226      142.874       19.361        0.018      350.669       32.005      864.551
07/06/2014  13:07:00      133.999       85.800       18.476       45.976       41.539       38.936     2113.828     1725.506     1516.036        1.551        0.268      159.115       26.539        0.028      350.552       31.801      864.549
07/06/2014  13:08:00      109.446       81.998       35.137       30.238       34.826       31.541      914.308     1212.845      994.830        1.153        0.156      136.756       11.697        0.007      350.505       31.719      864.543
07/06/2014  13:09:00       63.109       38.161       20.126       83.065       51.153       44.856     6899.869     2616.643     2012.104        0.868        0.576       73.749       36.863        0.250      350.378       31.498      864.529
07/06/2014  13:10:00      131.232       74.641        9.843       48.951       33.904       31.488     2396.199     1149.514      991.477        1.371        0.227      150.974       23.056        0.023      350.443       31.611      864.527
07/06/2014  13:11:00       61.895       52.160        8.808       36.887       26.697       22.345     1360.671      712.734      499.310        0.460        0.129       80.942        9.412        0.014      350.548       31.795      864.530
07/06/2014  13:12:00       -1.871       40.677        2.894       17.820       23.930       22.032      317.559      572.651      485.407        0.152        0.069       40.720       18.693        0.211      350.789       32.214      864.518
07/06/2014  13:13:00       35.464       21.514       14.942       39.450       31.848       26.719     1556.304     1014.284      713.915        0.261        0.164       41.479       19.880        0.230      350.769       32.179      864.517
07/06/2014  13:14:00      116.293       59.284       -4.080       64.599       43.652       36.839     4173.062     1905.495     1357.084        1.224        0.372      130.532       20.880        0.026      350.725       32.103      864.505
07/06/2014  13:15:00       77.823       64.508        6.480       53.262       53.900       39.603     2836.791     2905.179     1568.361        0.878        0.366      101.082       26.458        0.069      350.805       32.241      864.489
07/06/2014  13:16:00       33.845       78.005       -6.711       36.472       40.952       29.529     1330.218     1677.038      871.968        0.558        0.194       85.031       15.175        0.032      350.677       32.020      864.482
07/06/2014  13:17:00       51.505       58.885       -7.460       20.593       24.171       23.040      424.081      584.244      530.829        0.386        0.077       78.232       17.832        0.052      350.649       31.972      864.477
07/06/2014  13:18:00       27.587       33.881       -7.768       24.211       30.365       24.814      586.196      922.043      615.725        0.205        0.106       43.692       16.165        0.137      350.857       32.333      864.461
07/06/2014  13:19:00       17.049       55.146        1.651       29.304       27.685       23.954      858.732      766.457      573.792        0.277        0.110       57.722       17.063        0.087      351.047       32.663      864.436
07/06/2014  13:20:00       -4.844       29.910        3.778       22.005       48.261       24.217      484.218     2329.171      586.450        0.217        0.170       30.300       26.791        0.782      350.999       32.580      864.409
07/06/2014  13:21:00      -25.062       -3.387        5.540       37.070       17.355       20.603     1374.210      301.195      424.488        0.138        0.105       25.290       11.832        0.219      351.371       33.228      864.383
07/06/2014  13:22:00       43.185       25.250       38.586       55.855       32.305       27.743     3119.803     1043.587      769.665        0.446        0.247       50.025       32.761        0.429      351.252       33.019      864.367
07/06/2014  13:23:00       51.101       52.991       23.081       34.665       36.018       44.318     1201.664     1297.328     1964.088        0.521        0.223       73.617       24.146        0.108      350.781       32.199      864.351
07/06/2014  13:24:00       11.160        5.764       11.526       19.564       16.429       17.776      382.757      269.909      315.996        0.063        0.048       12.561        9.659        0.591      351.340       33.173      864.340
07/06/2014  13:25:00       -4.130       21.512       19.129       18.033       17.621       18.626      325.175      310.493      346.924        0.091        0.049       21.904       10.023        0.209      351.253       33.022      864.334
07/06/2014  13:26:00      -72.079       50.241       10.983       48.882       41.530       42.836     2389.420     1724.718     1834.964        0.689        0.297       87.861       30.987        0.124      351.224       32.972      864.324
07/06/2014  13:27:00      -29.428       22.489       10.910       33.777       29.478       22.230     1140.894      868.944      494.155        0.200        0.125       37.037       16.934        0.209      351.609       33.644      864.304
07/06/2014  13:28:00      -40.854       47.923       -4.507       30.422       33.597       24.655      925.523     1128.787      607.848        0.332        0.133       62.974       20.590        0.107      351.147       32.837      864.284
07/06/2014  13:29:00      -95.012       56.575       -4.491       42.528       35.174       30.867     1808.637     1237.231      952.778        0.812        0.200      110.581       27.283        0.061      350.982       32.551      864.269
07/06/2014  13:30:00      -46.580       15.699      -21.159       24.626       47.663       29.294      606.452     2271.725      858.154        0.330        0.187       49.154       11.657        0.056      350.886       32.385      864.260
07/06/2014  13:31:00      -21.735      -54.138       -2.568       57.104       75.671       35.325     3260.867     5726.034     1247.827        0.682        0.512       58.338       24.482        0.176      350.889       32.389      864.233
07/06/2014  13:32:00       14.095      -18.733       13.856       68.077       58.189       34.905     4634.430     3386.018     1218.335        0.499        0.462       23.443       31.843        1.845      351.224       32.972      864.216
07/06/2014  13:33:00     -165.865       11.053      -26.592       59.584       59.004       27.162     3550.273     3481.458      737.794        1.805        0.388      166.232       25.971        0.024      350.962       32.513      864.203
07/06/2014  13:34:00     -116.362      -15.410       -1.752       55.436       39.874       27.017     3073.114     1589.928      729.936        0.959        0.270      117.378       19.345        0.027      351.087       32.733      864.192
07/06/2014  13:35:00      -45.370      -33.942       -0.660       26.862       25.088       16.213      721.563      629.429      262.864        0.241        0.081       56.661       16.164        0.081      350.805       32.240      864.187
07/06/2014  13:36:00      -38.393       -5.253        4.224       31.955       20.688       21.895     1021.135      428.013      479.390        0.172        0.096       38.751       20.169        0.271      351.233       32.988      864.158
07/06/2014  13:37:00      -91.635       26.967       11.727       46.540       41.115       41.250     2165.982     1690.469     1701.596        0.741        0.278       95.521       29.244        0.094      351.361       33.210      864.148
07/06/2014  13:38:00        6.780       25.866       15.800       23.299       31.155       21.969      542.827      970.629      482.643        0.148        0.100       26.740       14.165        0.281      351.430       33.330      864.139
07/06/2014  13:39:00       -5.280       50.709       19.875       26.684       46.726       27.717      712.031     2183.354      768.213        0.333        0.183       50.983       27.920        0.300      351.700       33.801      864.132
07/06/2014  13:40:00      -24.911       50.099       -6.209       19.160       39.911       29.820      367.109     1592.876      889.222        0.301        0.142       55.950       26.756        0.229      351.292       33.091      864.121
07/06/2014  13:41:00       10.807       49.448       26.794       35.997       47.257       26.473     1295.807     2233.178      700.840        0.375        0.211       50.615       25.839        0.261      351.599       33.626      864.114
07/06/2014  13:42:00      -22.674       96.031        6.899       30.042       62.425       35.179      902.506     3896.886     1237.531        0.791        0.302       98.671       39.872        0.163      351.666       33.742      864.106
07/06/2014  13:43:00      -24.245       74.918        3.287       31.623       38.159       31.677      999.983     1456.123     1003.428        0.483        0.173       78.743       25.399        0.104      351.588       33.607      864.093
07/06/2014  13:44:00       -5.100       90.446       -0.989       43.719       58.588       35.372     1911.383     3432.500     1251.146        0.740        0.330       90.590       37.994        0.176      351.648       33.712      864.078
07/06/2014  13:45:00       41.881       56.186        3.483       42.166       43.776       32.435     1777.990     1916.317     1052.013        0.483        0.237       70.078       20.516        0.086      351.414       33.301      864.052
07/06/2014  13:46:00       27.444       47.814        3.993       27.705       28.336       27.214      767.541      802.910      740.604        0.268        0.116       55.131       19.936        0.131      351.325       33.147      864.037
07/06/2014  13:47:00        6.748       17.256        9.468       25.799       28.333       21.895      665.578      802.751      479.385        0.119        0.097       18.528       11.791        0.405      351.512       33.474      864.018
07/06/2014  13:48:00       47.207       42.531       12.331       41.056       22.650       31.820     1685.558      513.020     1012.503        0.370        0.161       63.541        7.900        0.015      351.513       33.476      863.994
07/06/2014  13:49:00      126.412      100.723        0.171       75.102       51.541       40.268     5640.381     2656.516     1621.545        1.802        0.496      161.632       30.305        0.035      351.393       33.264      863.974
07/06/2014  13:50:00      130.134       75.883        1.068       87.525       59.756       46.439     7660.644     3570.766     2156.538        1.804        0.669      150.643       32.871        0.048      351.464       33.388      863.954
07/06/2014  13:51:00       73.758      103.470       12.023       71.505       67.976       52.980     5112.907     4620.762     2806.837        1.441        0.627      127.068       47.454        0.139      351.450       33.365      863.947
07/06/2014  13:52:00       19.523       24.000       -6.481       45.717       49.145       29.621     2090.048     2415.234      877.396        0.319        0.269       30.938       17.106        0.306      351.782       33.945      863.937
07/06/2014  13:53:00       17.287       18.656       13.579       55.361       37.354       34.087     3064.842     1395.315     1161.927        0.323        0.281       25.434       24.612        0.936      351.759       33.906      863.929
07/06/2014  13:54:00       -5.651       19.515       17.052       30.195       43.029       29.832      911.719     1851.506      889.968        0.218        0.183       20.317        9.340        0.211      352.157       34.601      863.926
07/06/2014  13:55:00       39.153       25.283       19.739       46.424       38.685       32.633     2155.160     1496.562     1064.883        0.364        0.236       46.607       18.993        0.166      351.792       33.963      863.932
07/06/2014  13:56:00       32.621       42.871        0.602       32.923       36.077       28.671     1083.939     1301.519      822.035        0.305        0.160       53.871       17.479        0.105      351.327       33.152      863.930
07/06/2014  13:57:00       15.315       11.279        3.813       41.263       36.863       29.840     1702.673     1358.855      890.404        0.216        0.198       19.020       17.257        0.823      351.394       33.267      863.929
07/06/2014  13:58:00      -27.972      -17.559        3.737       39.879       40.448       32.954     1590.310     1636.008     1085.962        0.271        0.216       33.027       24.542        0.552      351.947       34.234      863.921
07/06/2014  13:59:00       28.255       36.380       -3.370       61.340       55.489       43.018     3762.655     3079.028     1850.566        0.541        0.435       46.064       34.791        0.570      351.505       33.461      863.915
07/06/2014  14:00:00        2.497       61.681      -13.649       36.777       41.869       24.661     1352.534     1753.002      608.144        0.385        0.186       61.732       17.659        0.082      351.441       33.350      863.890
07/06/2014  14:01:00       39.217       25.308        1.147       29.023       27.516       27.130      842.331      757.156      736.046        0.226        0.117       46.674       12.004        0.066      351.328       33.153      863.865
07/06/2014  14:02:00       14.965       35.822        5.748       26.263       30.426       25.716      689.763      925.729      661.312        0.191        0.114       38.822       21.371        0.303      351.641       33.698      863.842
07/06/2014  14:03:00       38.351       -5.685       15.246       37.032       41.435       26.257     1371.397     1716.838      689.452        0.276        0.189       38.770       12.171        0.099      351.343       33.179      863.845
07/06/2014  14:04:00       -1.383       17.676       50.848       39.005       39.235       44.700     1521.424     1539.359     1998.071        0.398        0.253       17.730       37.058        4.368      351.735       33.863      863.827
07/06/2014  14:05:00       30.816     -143.203       -2.908       78.693       88.622       52.734     6192.522     7853.875     2780.840        1.914        0.841      146.481       51.088        0.122      351.491       33.435      863.804
07/06/2014  14:06:00       49.518     -144.849       -6.365       85.588       65.139       40.035     7325.343     4243.053     1602.807        1.832        0.659      153.079       25.156        0.027      351.260       33.031      863.794
07/06/2014  14:07:00      -74.833      -75.387       -5.310       73.185       47.308       32.055     5356.022     2238.058     1027.507        0.997        0.431      106.222       28.222        0.071      351.633       33.684      863.774
07/06/2014  14:08:00      -41.566      -39.527       11.620       66.232       33.515       28.384     4386.670     1123.231      805.633        0.487        0.316       57.359       24.553        0.183      351.939       34.220      863.771
07/06/2014  14:09:00     -150.779      -37.641       -1.849       84.335       50.269       36.928     7112.463     2526.946     1363.644        1.758        0.550      155.406       33.407        0.046      351.565       33.565      863.757
07/06/2014  14:10:00      -85.735       -7.552        6.050       50.106       28.821       28.816     2510.659      830.644      830.352        0.581        0.209       86.067       31.376        0.133      351.565       33.566      863.749
07/06/2014  14:11:00       22.486      -57.843       -5.864       29.962       35.074       27.665      897.693     1230.185      765.336        0.339        0.145       62.060       16.756        0.073      351.231       32.983      863.734
07/06/2014  14:12:00       32.388      -17.056       35.814       40.869       69.313       44.597     1670.283     4804.317     1988.931        0.554        0.423       36.605       31.513        0.741      351.823       34.016      863.719
07/06/2014  14:13:00       25.562       56.814       60.697       38.117       45.389       36.390     1452.885     2060.130     1324.252        0.620        0.242       62.299       27.033        0.188      351.191       32.915      863.696
07/06/2014  14:14:00       17.153       25.669       40.696       30.157       23.956       30.367      909.473      573.913      922.146        0.251        0.120       30.872       13.368        0.188      351.132       32.811      863.684
07/06/2014  14:15:00       28.383       12.106        7.065       22.343       19.313       23.155      499.219      372.999      536.171        0.120        0.070       30.857       14.574        0.223      351.381       33.245      863.658
07/06/2014  14:16:00       23.029      -32.980       30.120       30.465       41.531       27.184      928.103     1724.786      738.981        0.296        0.170       40.224       13.069        0.106      351.772       33.929      863.638
07/06/2014  14:17:00      -25.406      -64.922       16.495       44.003       75.554       35.210     1936.227     5708.409     1239.722        0.701        0.444       69.717       33.404        0.230      351.834       34.038      863.621
07/06/2014  14:18:00      -58.954     -180.534        2.171       71.790       75.058       32.608     5153.763     5633.646     1063.277        2.396        0.593      189.916       25.333        0.018      351.497       33.444      863.598
07/06/2014  14:19:00     -138.984      -44.658       -5.124       47.192       45.643       34.379     2227.122     2083.304     1181.942        1.341        0.275      145.982       30.644        0.044      351.763       33.911      863.575
07/06/2014  14:20:00      -71.050      -74.402       12.722       92.741       78.462       51.060     8600.851     6156.339     2607.131        1.405        0.868      102.877       55.762        0.294      351.856       34.074      863.550
07/06/2014  14:21:00     -218.837      -33.560      -15.870       57.937       52.202       30.967     3356.739     2725.009      958.942        2.815        0.352      221.396       20.278        0.008      351.248       33.010      863.533
07/06/2014  14:22:00     -182.893       23.648       -8.723       77.547       42.403       29.641     6013.554     1798.000      878.568        2.139        0.435      184.416       27.996        0.023      351.524       33.490      863.497
07/06/2014  14:23:00      -93.166      -89.594       -4.573       66.851       55.837       37.166     4469.090     3117.805     1381.329        1.285        0.448      129.255       39.199        0.092      351.841       34.045      863.487
07/06/2014  14:24:00     -124.632      -41.853        2.933       46.560       46.981       25.585     2167.858     2207.225      654.590        1.116        0.251      131.472       15.263        0.013      351.562       33.561      863.473
07/06/2014  14:25:00       -9.931      -52.381        0.639       38.009       35.952       28.126     1444.707     1292.557      791.086        0.319        0.176       53.315       26.097        0.240      351.634       33.687      863.456
07/06/2014  14:26:00       10.777      -31.010       29.584       64.162       46.233       43.977     4116.762     2137.533     1933.940        0.507        0.409       32.830       33.109        1.017      352.016       34.354      863.448
07/06/2014  14:27:00       14.563      -19.625       51.256       53.622      102.860       72.409     2875.328    10580.115     5243.041        1.096        0.935       24.438       64.362        6.937      352.096       34.494      863.410
07/06/2014  14:28:00       -1.324     -104.336      -15.425       76.990       62.940       49.594     5927.471     3961.465     2459.571        1.174        0.617      104.345       14.033        0.018      351.680       33.767      863.418
07/06/2014  14:29:00       40.349     -121.573      -28.941       96.866       65.018       45.541     9382.998     4227.279     2073.962        1.646        0.784      128.094       35.465        0.077      351.726       33.845      863.419
07/06/2014  14:30:00      -41.932      -85.301      -10.091       51.639       56.556       32.645     2666.585     3198.587     1065.716        0.803        0.347       95.050       25.785        0.074      352.215       34.703      863.416
07/06/2014  14:31:00      -74.345      -38.930        0.280       54.495       55.769       31.548     2969.679     3110.144      995.305        0.706        0.354       83.921       29.411        0.123      352.333       34.908      863.396
07/06/2014  14:32:00      -75.040      -46.708        9.692       76.767       46.523       34.604     5893.166     2164.353     1197.414        0.858        0.463       88.389       28.018        0.100      351.987       34.303      863.394
07/06/2014  14:33:00      -27.359      -78.108        0.344       55.748       51.251       34.363     3107.883     2626.637     1180.811        0.688        0.346       82.761       33.624        0.165      351.769       33.923      863.391
07/06/2014  14:34:00      -31.272      -37.389       16.405       54.756       47.493       37.822     2998.216     2255.555     1430.527        0.466        0.334       48.743       39.082        0.643      351.909       34.167      863.371
07/06/2014  14:35:00       50.817       55.620        1.198       36.387       42.712       27.913     1323.984     1824.349      779.126        0.480        0.196       75.339       25.981        0.119      351.399       33.277      863.347
07/06/2014  14:36:00       73.853      -37.148       13.874       71.135       86.242       56.810     5060.233     7437.643     3227.399        1.137        0.786       82.669       57.656        0.486      351.722       33.839      863.328
07/06/2014  14:37:00       50.323       37.007       65.599       60.235      101.900       72.636     3628.246    10383.511     5276.021        1.374        0.964       62.466       71.364        1.305      351.801       33.977      863.290
07/06/2014  14:38:00       14.335      -81.297       16.037       61.279       82.402       43.339     3755.159     6790.087     1878.240        0.975        0.621       82.551       48.709        0.348      351.888       34.130      863.267
07/06/2014  14:39:00      -49.135      -19.543       14.852       57.045       36.182       39.337     3254.125     1309.160     1547.400        0.456        0.306       52.879       27.658        0.274      352.229       34.725      863.273
07/06/2014  14:40:00      -52.397      -28.928       20.681       56.138       35.893       27.867     3151.432     1288.330      776.544        0.461        0.261       59.852       29.283        0.239      352.457       35.126      863.263
07/06/2014  14:41:00      -34.912      -90.121        0.734       82.517       83.525       39.894     6809.027     6976.455     1591.502        1.236        0.769       96.646       35.777        0.137      352.125       34.543      863.242
07/06/2014  14:42:00       -8.747     -102.595        0.999       79.353       65.201       39.396     6296.899     4251.145     1552.070        1.135        0.605      102.967       30.361        0.087      351.970       34.273      863.231
07/06/2014  14:43:00      -74.478      -39.625       22.496       99.455       75.097       44.529     9891.237     5639.579     1982.845        1.257        0.876       84.363       46.780        0.307      352.132       34.555      863.218
07/06/2014  14:44:00        4.211      -65.640       -6.839       86.068       87.211       47.040     7407.708     7605.790     2212.782        1.080        0.861       65.775       29.572        0.202      352.104       34.505      863.223
07/06/2014  14:45:00      -18.710      -99.661       10.231       72.453       78.788       66.778     5249.378     6207.613     4459.238        1.315        0.796      101.402       45.858        0.205      351.987       34.302      863.204
07/06/2014  14:46:00       64.120     -165.956        3.171       74.145       75.521       51.990     5497.489     5703.385     2702.910        2.278        0.695      177.913       44.322        0.062      351.678       33.760      863.199
07/06/2014  14:47:00      -15.639     -111.521        3.952       68.634       45.927       39.703     4710.617     2109.259     1576.366        1.055        0.420      112.612       25.826        0.053      352.132       34.555      863.201
07/06/2014  14:48:00      -33.911       -8.460       32.598       45.513       48.849       27.352     2071.440     2386.202      748.117        0.374        0.260       34.950       23.764        0.462      352.082       34.469      863.202
07/06/2014  14:49:00      -21.414        6.298       26.473       26.530       21.210       22.939      703.856      449.850      526.201        0.144        0.084       22.320       21.133        0.896      352.373       34.977      863.173
07/06/2014  14:50:00      -34.184       54.291       -3.419       45.948       34.928       23.932     2111.264     1219.937      572.756        0.402        0.195       64.156       12.669        0.039      352.100       34.501      863.139
07/06/2014  14:51:00      -68.593       35.195        5.749       36.713       35.612       21.924     1347.812     1268.206      480.664        0.454        0.155       77.095       18.600        0.058      352.183       34.645      863.119
07/06/2014  14:52:00      -75.126       37.508       -2.606       26.461       31.809       18.856      700.191     1011.844      355.564        0.456        0.103       83.969       13.578        0.026      351.866       34.092      863.110
07/06/2014  14:53:00      -66.573      -17.231        3.313       66.198       42.613       28.021     4382.136     1815.830      785.203        0.586        0.349       68.767       19.536        0.081      352.124       34.543      863.096
07/06/2014  14:54:00      -80.914       -7.967        2.843       55.085       52.970       31.617     3034.329     2805.812      999.660        0.673        0.342       81.306       23.841        0.086      351.932       34.207      863.084
07/06/2014  14:55:00     -172.502      -17.249      -10.725       90.205       48.392       24.777     8136.894     2341.760      613.900        2.063        0.555      173.362       28.058        0.026      351.776       33.932      863.067
07/06/2014  14:56:00     -193.511      -32.208      -17.265       62.156       63.246       38.248     3863.430     4000.103     1462.917        2.405        0.466      196.173       33.142        0.029      351.752       33.890      863.037
07/06/2014  14:57:00     -124.281      -27.639        3.047       67.583       45.923       29.448     4567.521     2108.917      867.200        1.188        0.377      127.317       30.477        0.057      351.906       34.161      863.037
07/06/2014  14:58:00      -33.448      -21.335       14.336       64.629       41.954       31.833     4176.948     1760.146     1013.361        0.436        0.348       39.673       33.980        0.734      352.210       34.692      863.032
07/06/2014  14:59:00     -108.205      -62.196       12.439       73.690       61.378       37.112     5430.257     3767.209     1377.303        1.315        0.529      124.806       24.060        0.037      352.089       34.481      863.018
07/06/2014  15:00:00     -101.033      -94.496      -19.497       80.255       87.767       35.957     6440.850     7703.061     1292.903        1.747        0.772      138.337       29.276        0.045      351.980       34.288      863.000
07/06/2014  15:01:00      -45.238     -184.210       -1.061       45.233       47.640       27.620     2046.021     2269.537      762.853        2.053        0.254      189.684       14.154        0.006      351.622       33.662      862.999
07/06/2014  15:02:00      -68.183     -120.775      -10.607       28.771       81.496       23.106      827.799     6641.597      533.885        1.367        0.400      138.693       27.270        0.039      351.505       33.462      862.996
07/06/2014  15:03:00      -79.100       -7.865       10.918       53.895       34.763       29.980     2904.621     1208.470      898.804        0.572        0.251       79.490       10.435        0.017      352.079       34.463      862.969
07/06/2014  15:04:00      -88.451        1.022       -7.385       36.122       19.691       21.891     1304.783      387.750      479.205        0.503        0.109       88.457       16.298        0.034      351.695       33.794      862.951
07/06/2014  15:05:00      -34.282      -11.429       12.439       68.721       29.599       24.006     4722.598      876.090      576.306        0.382        0.309       36.136       30.374        0.706      351.744       33.878      862.957
07/06/2014  15:06:00       30.598       -1.561       17.991       39.961       36.906       29.102     1596.875     1362.020      846.926        0.253        0.190       30.637       28.855        0.887      351.710       33.819      862.963
07/06/2014  15:07:00       18.901      -97.992        9.878       57.881       53.723       47.693     3350.247     2886.173     2274.589        0.928        0.426       99.798       38.818        0.151      352.155       34.597      862.949
07/06/2014  15:08:00       22.468      -34.149       36.665       74.203       74.460       47.311     5506.056     5544.355     2238.350        0.815        0.664       40.877       35.738        0.764      352.246       34.756      862.921
07/06/2014  15:09:00       19.535      -55.452       34.159       56.016       68.520       44.654     3137.796     4694.923     1993.960        0.722        0.491       58.793       47.411        0.650      352.226       34.720      862.921
07/06/2014  15:10:00      110.522     -116.560      -13.893      111.375      123.306       61.757    12404.498    15204.437     3813.923        2.870        1.571      160.628       70.098        0.190      352.163       34.609      862.903
07/06/2014  15:11:00      130.514     -186.574       -6.686      110.677      112.428       77.267    12249.402    12640.122     5970.201        4.137        1.543      227.693       53.911        0.056      351.962       34.256      862.894
07/06/2014  15:12:00      171.669     -181.283      -44.673       95.066       92.427       47.322     9037.499     8542.680     2239.334        4.207        0.991      249.667       51.902        0.043      351.799       33.971      862.897
07/06/2014  15:13:00       38.519      -15.225       14.993       58.042       72.459       55.877     3368.817     5250.270     3122.260        0.684        0.587       41.419       47.212        1.299      352.054       34.422      862.904
07/06/2014  15:14:00       -4.488      -47.983       36.572       53.499       93.809       46.293     2862.124     8800.035     2143.078        0.873        0.690       48.192       38.837        0.649      352.192       34.660      862.884
07/06/2014  15:15:00       36.757      -79.906       13.175       56.548       99.536       44.623     3197.657     9907.508     1991.174        1.150        0.755       87.955       54.970        0.391      352.082       34.467      862.845
07/06/2014  15:16:00       54.698     -167.341      -29.110       67.690       76.487       41.868     4581.997     5850.236     1752.935        2.201        0.609      176.054       45.916        0.068      352.022       34.362      862.844
07/06/2014  15:17:00      -95.757      -78.709        2.002       81.790       57.964       45.152     6689.628     3359.852     2038.715        1.373        0.604      123.954       20.759        0.028      352.291       34.833      862.843
07/06/2014  15:18:00     -249.830     -191.641        0.815      110.467       85.586       54.121    12203.054     7324.933     2929.136        6.080        1.123      314.867       50.508        0.026      351.836       34.035      862.830
07/06/2014  15:19:00     -206.194     -101.290       -7.787       91.621       56.894       46.032     8394.356     3236.884     2118.986        3.329        0.688      229.729       38.665        0.028      351.817       34.006      862.813
07/06/2014  15:20:00     -202.790      -78.177      -12.998       59.675       58.425       30.881     3561.047     3413.516      953.658        2.767        0.396      217.337       16.771        0.006      351.797       33.967      862.789
07/06/2014  15:21:00     -168.492      -22.023       -9.031       95.826       93.776       49.286     9182.558     8793.892     2429.108        2.468        1.020      169.925       49.079        0.083      352.047       34.404      862.764
07/06/2014  15:22:00     -214.288      -85.359        2.413      138.459      116.228       55.811    19170.859    13509.030     3114.920        4.450        1.790      230.663       31.331        0.018      352.000       34.321      862.749
07/06/2014  15:23:00     -246.299     -132.777      -19.842       88.060       57.346       39.240     7754.631     3288.583     1539.769        4.563        0.629      279.809       27.094        0.009      351.735       33.860      862.755
07/06/2014  15:24:00     -106.110      -56.726       -2.447       66.232       56.347       26.529     4386.728     3174.984      703.779        1.137        0.413      120.321       25.110        0.044      351.915       34.178      862.760
07/06/2014  15:25:00     -181.259      -66.844       -3.065       50.515       69.417       31.464     2551.722     4818.690      989.993        2.285        0.418      193.192       21.655        0.013      351.855       34.071      862.731
07/06/2014  15:26:00     -125.837     -101.918       -8.167       57.374       63.683       25.024     3291.807     4055.518      626.188        1.713        0.399      161.933       24.082        0.022      351.870       34.098      862.714
07/06/2014  15:27:00      -91.812        3.602        3.341       35.489       56.117       25.011     1259.471     3149.082      625.527        0.674        0.252       91.883       21.650        0.056      352.117       34.531      862.692
07/06/2014  15:28:00     -137.057      -22.205        4.189       74.339       61.481       37.415     5526.218     3779.934     1399.886        1.500        0.535      138.844       35.509        0.065      352.369       34.970      862.662
07/06/2014  15:29:00     -165.139      -15.478       -8.246       49.883       43.974       27.322     2488.315     1933.756      746.512        1.637        0.258      165.862       28.901        0.030      351.939       34.219      862.645
07/06/2014  15:30:00      -44.167       37.748       14.370       89.495       82.082       38.632     8009.374     6737.458     1492.456        0.991        0.812       58.100       42.366        0.532      352.234       34.734      862.626
07/06/2014  15:31:00      -56.922      217.783      -21.448       53.978       71.402       37.499     2913.643     5098.188     1406.172        3.027        0.471      225.099       37.549        0.028      351.846       34.052      862.611
07/06/2014  15:32:00       -8.497      180.873       -5.325       40.117       78.041       40.295     1609.392     6090.440     1623.665        2.107        0.466      181.073       32.951        0.033      351.953       34.240      862.590
07/06/2014  15:33:00      -13.244      122.507      -11.699       27.719       92.773       30.560      768.361     8606.873      933.929        1.281        0.515      123.221       30.905        0.063      351.924       34.192      862.580
07/06/2014  15:34:00      -26.758      108.952       -9.976       25.693       46.950       30.356      660.129     2204.327      921.500        0.824        0.189      112.189       31.746        0.080      351.973       34.279      862.568
07/06/2014  15:35:00      -37.283       10.719        0.916       33.478       52.598       20.539     1120.776     2766.513      421.853        0.291        0.215       38.794       15.145        0.152      352.318       34.881      862.559
07/06/2014  15:36:00      -53.090      109.231       -2.352       40.364       53.505       28.519     1629.267     2862.788      813.358        1.003        0.265      121.450       19.099        0.025      352.218       34.707      862.547
07/06/2014  15:37:00       -3.557       51.852        9.931       32.009       40.879       19.278     1024.545     1671.099      371.631        0.293        0.153       51.974       18.474        0.126      352.117       34.531      862.553
07/06/2014  15:38:00       28.046       13.559        7.087       34.869       28.418       20.168     1215.856      807.592      406.758        0.173        0.122       31.152       20.668        0.440      351.565       33.567      862.554
07/06/2014  15:39:00      -45.057        0.386      -10.743       27.271       42.371       17.986      743.713     1795.261      323.505        0.250        0.143       45.059       12.505        0.077      352.544       35.276      862.546
07/06/2014  15:40:00      -46.861      -55.459       13.095       81.261       46.030       31.760     6603.330     2118.779     1008.708        0.759        0.487       72.606       40.293        0.308      352.397       35.019      862.538
07/06/2014  15:41:00      -16.941       23.457       43.812       70.060       55.450       39.350     4908.410     3074.738     1548.449        0.614        0.477       28.935       40.799        1.988      351.771       33.925      862.501
07/06/2014  15:42:00       33.607      -54.903       15.343       64.340       70.573       42.082     4139.686     4980.487     1770.934        0.763        0.545       64.372       16.122        0.063      352.256       34.773      862.482
07/06/2014  15:43:00        6.172     -109.802       -7.861       48.499       73.396       38.059     2352.121     5387.030     1448.517        1.067        0.459      109.975       36.934        0.113      352.427       35.072      862.462
07/06/2014  15:44:00       88.423     -189.941      -25.760       45.683       61.158       34.896     2086.901     3740.271     1217.696        2.580        0.352      209.514       20.323        0.009      351.859       34.076      862.451
07/06/2014  15:45:00      -35.053      -70.772        6.769       80.557       68.660       31.490     6489.460     4714.193      991.639        0.924        0.610       78.977       28.710        0.132      352.229       34.725      862.439
07/06/2014  15:46:00        2.256       12.387       47.802       37.217       48.080       42.985     1385.075     2311.646     1847.708        0.399        0.277       12.591       31.534        6.273      352.092       34.488      862.416
07/06/2014  15:47:00       55.591      -14.985       50.242       65.975       80.919       60.114     4352.761     6547.845     3613.711        1.017        0.726       57.575       74.254        1.663      351.994       34.315      862.418
07/06/2014  15:48:00       46.421      -24.828       32.075       34.675       29.526       25.954     1202.382      871.795      673.610        0.327        0.137       52.643       16.160        0.094      352.293       34.838      862.417
07/06/2014  15:49:00       55.338      -18.284       31.885       60.716       54.829       34.981     3686.484     3006.253     1223.676        0.616        0.396       58.281       29.831        0.262      352.246       34.757      862.398
07/06/2014  15:50:00       44.003      -18.504       49.652       50.979      101.859       55.450     2598.871    10375.333     3074.732        1.039        0.802       47.735       61.296        1.649      352.173       34.628      862.369
07/06/2014  15:51:00       97.531     -107.685       35.808       92.115      157.244       89.174     8485.203    24725.747     7952.030        3.177        2.058      145.287      105.032        0.523      352.387       35.000      862.349
07/06/2014  15:52:00       80.179     -196.187       -8.773      110.317       91.381       56.353    12169.826     8350.548     3175.628        3.434        1.185      211.939       52.181        0.061      352.062       34.432      862.355
07/06/2014  15:53:00       79.159     -126.788       18.585       62.956      115.361       62.070     3963.444    13308.183     3852.632        2.190        1.056      149.470       75.192        0.253      352.074       34.453      862.340
07/06/2014  15:54:00       32.039     -114.945      -16.288       46.786       44.335       32.903     2188.956     1965.608     1082.581        0.987        0.262      119.326        9.842        0.007      352.282       34.818      862.319
07/06/2014  15:55:00       40.407      -88.866       14.884       43.831       66.641       43.694     1921.163     4441.058     1909.189        0.901        0.414       97.621       28.996        0.088      352.303       34.856      862.307
07/06/2014  15:56:00        5.958      -30.027       11.217       50.283       55.383       37.357     2528.406     3067.324     1395.562        0.403        0.350       30.612       23.386        0.584      352.402       35.029      862.309
07/06/2014  15:57:00       -9.013      -64.252       27.690       77.533       84.868       40.262     6011.411     7202.623     1621.056        0.990        0.742       64.881       48.233        0.553      352.440       35.093      862.312
07/06/2014  15:58:00      -46.460      -50.276       11.477       76.013       49.028       36.438     5777.901     2403.731     1327.708        0.716        0.475       68.456       35.421        0.268      352.802       35.728      862.303
07/06/2014  15:59:00      -67.938      -69.206       10.661       67.322       95.884       33.910     4532.249     9193.778     1149.905        1.219        0.744       96.979       34.237        0.125      352.512       35.220      862.293
07/06/2014  16:00:00      -77.888     -133.137      -11.355       82.686      127.010       46.512     6837.046    16131.617     2163.412        2.452        1.257      154.246       49.827        0.104      352.301       34.851      862.293
07/06/2014  16:01:00      -88.936     -134.226       -1.229      128.896       94.126       56.685    16614.123     8859.678     3213.215        2.730        1.434      161.016       45.476        0.080      352.261       34.779      862.267
07/06/2014  16:02:00     -295.508     -194.677       -0.778      140.851      106.513       62.403    19839.038    11345.104     3894.170        8.015        1.754      353.870       64.784        0.034      352.052       34.411      862.231
07/06/2014  16:03:00     -189.158      -56.225        6.589      165.333      135.155       70.531    27334.998    18266.945     4974.607        4.477        2.529      197.338       78.977        0.160      352.303       34.851      862.222
07/06/2014  16:04:00      -62.837      -42.873       12.579       85.353       78.707       55.983     7285.105     6194.768     3134.139        1.128        0.831       76.070       45.671        0.360      352.326       34.895      862.251
07/06/2014  16:05:00       25.620      -98.762       -3.348       76.361       79.836       46.399     5830.973     6373.753     2152.905        1.239        0.718      102.031       25.864        0.064      352.475       35.155      862.262
07/06/2014  16:06:00       15.473     -150.944      -11.647       80.623       74.944       70.001     6500.045     5616.553     4900.134        2.009        0.851      151.735       42.871        0.080      352.520       35.234      862.230
07/06/2014  16:07:00     -111.474     -159.395       11.010      131.289      111.055       54.620    17236.849    12333.292     2983.377        3.525        1.628      194.508       66.019        0.115      352.511       35.216      862.251
07/06/2014  16:08:00     -179.007     -146.387      -23.234       76.552      140.286       35.163     5860.238    19680.244     1236.456        4.039        1.339      231.241       38.055        0.027      351.925       34.188      862.241
07/06/2014  16:09:00      -88.129       23.449       -9.031       80.636       54.310       29.638     6502.231     2949.569      878.400        0.936        0.517       91.195       32.900        0.130      352.278       34.810      862.181
07/06/2014  16:10:00      -16.456      -35.235        7.774       55.197       53.162       40.512     3046.763     2826.146     1641.189        0.454        0.376       38.888       36.555        0.884      352.656       35.472      862.165
07/06/2014  16:11:00       92.665     -127.728      -13.668       95.852      104.093       50.757     9187.686    10835.298     2576.227        2.384        1.130      157.801       65.568        0.173      352.453       35.114      862.151
07/06/2014  16:12:00       54.311      -84.329       -0.173       83.436      117.216       69.592     6961.514    13739.568     4843.061        1.780        1.277      100.305       65.712        0.429      352.303       34.854      862.133
07/06/2014  16:13:00      -10.756      -32.680       36.300       34.969       61.635       48.957     1222.804     3798.845     2396.822        0.496        0.371       34.405       44.166        1.648      352.447       35.107      862.123
07/06/2014  16:14:00      -16.515     -127.650       -5.709       47.878       99.238       48.482     2292.290     9848.112     2350.518        1.554        0.725      128.714       54.313        0.178      352.363       34.959      862.113
07/06/2014  16:15:00      -76.980     -144.122       -5.035       83.008       90.062       45.979     6890.401     8111.111     2114.038        2.192        0.856      163.393       39.366        0.058      352.484       35.170      862.104
07/06/2014  16:16:00      -75.062      -47.977        6.252       63.007       52.839       34.617     3969.917     2791.983     1198.317        0.797        0.398       89.085       29.823        0.112      352.454       35.120      862.073
07/06/2014  16:17:00       67.134      -99.712       -3.947       65.856       71.954       35.977     4337.013     5177.411     1294.351        1.264        0.540      120.206       42.224        0.123      352.262       34.782      862.051
07/06/2014  16:18:00       23.734     -100.616        7.437       48.410       44.171       29.394     2343.524     1951.038      864.036        0.795        0.258      103.377       19.302        0.035      352.390       35.007      862.036
07/06/2014  16:19:00        3.200      -25.573       50.629       33.426       67.964       29.778     1117.272     4619.094      886.747        0.492        0.331       25.773       27.117        1.107      352.596       35.367      862.024
07/06/2014  16:20:00       36.782       39.982       51.378       37.502       28.905       30.523     1406.437      835.508      931.665        0.438        0.159       54.328       25.901        0.227      352.303       34.856      862.018
07/06/2014  16:21:00       31.561       -9.204       14.533       39.746       20.198       14.565     1579.753      407.974      212.149        0.175        0.110       32.876       12.693        0.149      352.471       35.149      862.010
07/06/2014  16:22:00       55.953        1.002       20.757       45.322       28.834       22.131     2054.117      831.419      489.774        0.347        0.169       55.962       13.229        0.056      351.860       34.081      862.005
07/06/2014  16:23:00       38.876      -42.959       19.556       31.351       36.117       25.283      982.884     1304.448      639.227        0.333        0.146       57.938       15.979        0.076      351.953       34.243      862.003
07/06/2014  16:24:00       19.807       17.692       30.440       35.548       36.114       27.370     1263.690     1304.228      749.125        0.247        0.166       26.558       15.009        0.319      351.976       34.284      861.996
07/06/2014  16:25:00       27.553       -0.194       -3.045       52.491       49.200       20.985     2755.342     2420.684      440.390        0.319        0.281       27.553       22.960        0.694      352.281       34.817      861.978
07/06/2014  16:26:00       16.825       28.097       -6.548       36.404       24.162       17.024     1325.225      583.817      289.827        0.166        0.110       32.750       15.507        0.224      352.004       34.333      861.969
07/06/2014  16:27:00       23.552      -11.911       16.158       39.621       50.297       26.258     1569.843     2529.786      689.469        0.287        0.239       26.393       31.636        1.437      352.025       34.370      861.964
07/06/2014  16:28:00       61.653      -49.939       35.133       64.519       73.422       36.761     4162.766     5390.806     1351.402        0.922        0.545       79.341       39.703        0.250      352.471       35.149      861.943
07/06/2014  16:29:00      142.960      -98.841       21.114      106.358       81.542       62.846    11311.945     6649.064     3949.631        2.628        1.096      173.802       61.760        0.126      352.538       35.265      861.909
07/06/2014  16:30:00       85.363       40.630      107.844       91.561       98.717       91.864     8383.370     9745.087     8439.083        2.356        1.328       94.539       67.845        0.515      352.306       34.859      861.860
07/06/2014  16:31:00      160.623     -250.829      -27.273      138.930      154.356       80.709    19301.655    23825.760     6513.968        6.954        2.482      297.850       79.764        0.072      352.548       35.279      861.851
07/06/2014  16:32:00      -56.315     -178.380       -9.894      122.355       95.914       60.834    14970.812     9199.467     3700.790        3.148        1.394      187.058       34.833        0.035      352.533       35.256      861.900
07/06/2014  16:33:00     -116.469     -153.066        7.183      147.814       96.959       60.290    21849.103     9401.074     3634.848        3.596        1.744      192.339       35.403        0.034      352.403       35.029      861.889
07/06/2014  16:34:00     -264.164     -207.909       -2.413      118.908      133.296       55.138    14139.210    17767.939     3040.218        7.398        1.747      336.168       60.334        0.032      352.264       34.784      861.878
07/06/2014  16:35:00     -194.582     -280.959        0.325      135.968      107.272       77.795    18487.365    11507.235     6052.116        7.642        1.802      341.760       71.931        0.044      352.146       34.577      861.886
07/06/2014  16:36:00     -246.082     -169.144       -5.499      157.772      134.896       61.726    24892.082    18197.062     3810.136        6.804        2.345      298.607       77.274        0.067      352.299       34.845      861.897
07/06/2014  16:37:00     -234.719     -173.256        2.216       79.878       77.191       48.552     6380.549     5958.518     2357.254        4.990        0.735      291.737       40.064        0.019      352.255       34.767      861.908
07/06/2014  16:38:00     -101.206     -119.912       -9.902       77.114       88.009       39.276     5946.498     7745.623     1542.629        1.997        0.762      156.913       38.165        0.059      352.104       34.504      861.905
07/06/2014  16:39:00      -51.595       -9.261      -11.602       70.613       33.028       34.208     4986.230     1090.863     1170.167        0.506        0.362       52.419       21.632        0.170      352.202       34.680      861.880
07/06/2014  16:40:00      -26.296        2.262        1.818       27.993       69.690       31.686      783.600     4856.690     1004.011        0.367        0.332       26.393       21.371        0.656      352.327       34.898      861.867
07/06/2014  16:41:00       79.736     -125.951      -12.677       56.288       75.312       41.098     3168.387     5671.958     1689.044        1.645        0.526      149.068       40.351        0.073      352.331       34.904      861.846
07/06/2014  16:42:00       28.342      -20.338       30.835       45.052       35.086       26.564     2029.687     1231.037      705.642        0.307        0.198       34.884       19.985        0.328      352.547       35.282      861.835
07/06/2014  16:43:00       43.735      -55.262        0.501       43.072       48.114       30.254     1855.166     2314.988      915.276        0.503        0.254       70.474       30.205        0.184      352.322       34.889      861.838
07/06/2014  16:44:00      -64.455      -66.653       -7.120       89.327       55.727       34.569     7979.330     3105.469     1195.008        1.046        0.614       92.721       18.087        0.038      352.805       35.733      861.819
07/06/2014  16:45:00      -48.983      -94.529       -2.925       76.477       64.470       44.766     5848.741     4156.323     2003.987        1.167        0.600      106.466       41.112        0.149      352.772       35.676      861.832
07/06/2014  16:46:00      -11.289     -148.265       10.701       87.719       72.672       47.664     7694.590     5281.186     2271.903        1.873        0.762      148.694       41.925        0.079      352.423       35.063      861.828
07/06/2014  16:47:00      -18.439     -132.772       -9.710       94.846       54.338       38.930     8995.731     2952.647     1515.565        1.576        0.673      134.046       21.470        0.026      352.338       34.916      861.816
07/06/2014  16:48:00       27.609     -111.274      -25.765       61.090       51.455       44.069     3731.972     2647.586     1942.089        1.106        0.416      114.648       34.265        0.089      352.231       34.728      861.804
07/06/2014  16:49:00       -0.348      -92.255       21.206       93.627       88.199       56.065     8765.999     7779.027     3143.310        1.432        0.984       92.256       48.957        0.282      352.537       35.265      861.780
07/06/2014  16:50:00      -86.691     -160.182       31.060       93.670      108.798       60.346     8774.059    11837.089     3641.612        2.919        1.213      182.136       58.964        0.105      352.671       35.497      861.793
07/06/2014  16:51:00     -171.665     -129.309       17.966      142.642       92.829       64.171    20346.689     8617.191     4117.883        3.979        1.654      214.918       69.179        0.104      352.605       35.379      861.790
07/06/2014  16:52:00     -225.694     -151.372       -8.333       99.284       73.915       52.029     9857.391     5463.473     2707.030        4.597        0.901      271.756       53.378        0.039      352.248       34.755      861.794
07/06/2014  16:53:00      -69.631      -57.854        9.772       78.070       46.849       28.224     6094.943     2194.793      796.622        0.869        0.454       90.529       28.518        0.099      352.326       34.894      861.777
07/06/2014  16:54:00      -56.085       39.486        4.473       36.321       40.053       29.524     1319.183     1604.224      871.671        0.426        0.190       68.591       17.790        0.067      352.475       35.156      861.749
07/06/2014  16:55:00     -100.221      -95.191       20.418      143.969       72.097       44.841    20726.987     5198.017     2010.687        2.372        1.397      138.223       44.577        0.104      352.393       35.009      861.731
07/06/2014  16:56:00     -181.394     -111.870       12.337      144.049       79.328       56.150    20750.046     6292.887     3152.813        3.788        1.510      213.117       64.232        0.091      352.544       35.273      861.725
07/06/2014  16:57:00     -213.055     -128.005       20.176      180.548      104.565       68.785    32597.467    10933.924     4731.329        5.522        2.413      248.552       81.783        0.108      352.571       35.320      861.710
07/06/2014  16:58:00     -278.134     -165.929       -9.241      106.578      103.953       52.326    11358.780    10806.200     2738.012        6.494        1.245      323.869       48.606        0.023      352.290       34.828      861.726
07/06/2014  16:59:00     -182.459     -102.454        2.894      122.101      115.767       57.665    14908.751    13402.017     3325.258        3.771        1.582      209.256       56.750        0.074      352.449       35.108      861.713
07/06/2014  17:00:00     -108.863      -96.443       12.793      112.287       87.011       54.088    12608.332     7570.867     2925.480        2.221        1.155      145.438       57.405        0.156      352.493       35.185      861.713
07/06/2014  17:01:00      -89.812      -91.612       13.124       67.651       64.400       38.862     4576.618     4147.348     1510.225        1.343        0.512      128.293       34.140        0.071      352.366       34.966      861.710
07/06/2014  17:02:00      -57.194     -111.654        9.423       66.866       74.821       37.325     4471.109     5598.216     1393.164        1.364        0.573      125.451       50.980        0.165      352.379       34.986      861.694
07/06/2014  17:03:00      -80.911      -97.598        1.279       78.033       61.738       38.778     6089.172     3811.563     1503.729        1.374        0.570      126.775       46.377        0.134      352.366       34.965      861.678
07/06/2014  17:04:00      -79.717       13.067       -1.869       31.148       21.224       18.055      970.216      450.460      325.988        0.414        0.087       80.781       10.942        0.018      352.276       34.807      861.656
07/06/2014  17:05:00     -106.746      -94.918       -8.238       49.243       82.204       34.485     2424.922     6757.516     1189.239        1.542        0.519      142.843       33.764        0.056      352.379       34.987      861.641
07/06/2014  17:06:00     -149.204      -98.099      -19.264       85.529       44.108       41.581     7315.155     1945.501     1729.016        2.162        0.549      178.564       46.488        0.068      352.188       34.651      861.625
07/06/2014  17:07:00     -127.460      -78.472       -0.991       76.712       65.138       29.781     5884.760     4242.957      886.887        1.671        0.551      149.680       37.901        0.064      352.295       34.841      861.580
07/06/2014  17:08:00      -98.446      -32.169        0.441       51.409       49.746       30.575     2642.859     2474.623      934.849        0.839        0.303      103.569       29.910        0.083      352.424       35.066      861.566
07/06/2014  17:09:00      -80.602      -22.675        4.443       77.625       68.231       36.796     6025.625     4655.511     1353.910        0.953        0.602       83.730       45.364        0.294      352.574       35.329      861.538
07/06/2014  17:10:00      -37.181       84.209       22.248       40.320       43.388       33.105     1625.677     1882.557     1095.972        0.679        0.230       92.053       28.342        0.095      352.603       35.380      861.513
07/06/2014  17:11:00      -76.277       67.847      -21.075       30.012       57.619       20.931      900.747     3319.931      438.126        0.776        0.233      102.085       18.926        0.034      352.270       34.799      861.508
07/06/2014  17:12:00        1.515       16.630       -2.301       25.126       20.706       17.621      631.327      428.739      310.499        0.083        0.069       16.698       17.734        1.128      352.419       35.058      861.504
07/06/2014  17:13:00       31.884       83.001        1.877       33.311       31.492       21.971     1109.613      991.744      482.738        0.525        0.129       88.915       18.140        0.042      352.328       34.900      861.488
07/06/2014  17:14:00       24.284       31.591       10.857       46.965       52.488       31.174     2205.684     2755.005      971.849        0.382        0.297       39.846       27.917        0.491      351.939       34.218      861.477
07/06/2014  17:15:00       57.597        7.356       27.816       43.657       26.162       30.267     1905.942      684.452      916.070        0.383        0.175       58.065       13.329        0.053      351.333       33.161      861.467
07/06/2014  17:16:00       17.809       25.807        5.326       30.040       38.672       25.580      902.385     1495.494      654.353        0.203        0.153       31.355       22.246        0.503      351.444       33.354      861.451
07/06/2014  17:17:00       -4.185       -1.509        6.091       21.897       20.362       22.299      479.480      414.620      497.264        0.072        0.070        4.449        9.497        4.557      352.155       34.596      861.438
07/06/2014  17:18:00       20.142       -8.925       16.935       24.820       14.070       15.568      616.045      197.963      242.350        0.091        0.053       22.031        7.001        0.101      351.932       34.209      861.431
07/06/2014  17:19:00     -155.895       -7.278       -9.686       95.355       41.301       28.400     9092.549     1705.785      806.550        1.803        0.580      156.065       28.458        0.033      352.486       35.173      861.419
07/06/2014  17:20:00     -110.804       26.694      -20.721       96.960       52.318       41.278     9401.275     2737.149     1703.898        1.363        0.692      113.974       47.088        0.171      352.328       34.898      861.411
07/06/2014  17:21:00       -0.930       92.731      -12.252       45.274       90.884       37.699     2049.702     8259.985     1421.213        1.024        0.587       92.736       20.915        0.051      352.325       34.893      861.405
07/06/2014  17:22:00       18.968       53.107       29.090      148.445       84.428       53.118    22036.038     7128.135     2821.561        1.800        1.599       56.393       46.298        0.674      352.400       35.022      861.373
07/06/2014  17:23:00      -99.665      -36.229        3.227       79.221       69.108       34.836     6276.001     4775.867     1213.548        1.176        0.613      106.045       35.279        0.111      352.811       35.744      861.364
07/06/2014  17:24:00      -36.669      -83.580       12.421       77.904       46.827       43.345     6068.997     2192.806     1878.832        0.931        0.507       91.270       42.537        0.217      352.586       35.350      861.368
07/06/2014  17:25:00      -13.551      -75.317       -1.159       29.544       39.327       22.481      872.838     1546.610      505.384        0.439        0.146       76.526        6.821        0.008      352.539       35.269      861.361
07/06/2014  17:26:00      -25.121      -16.058        6.131       18.660       25.279       21.271      348.212      639.024      452.448        0.118        0.072       29.815       14.657        0.242      352.661       35.482      861.352
07/06/2014  17:27:00      -57.763      -55.832       17.425       32.847       66.228       39.862     1078.921     4386.131     1589.015        0.690        0.353       80.335       24.071        0.090      352.585       35.349      861.335
07/06/2014  17:28:00      -12.115      -92.881      -19.942       57.096       78.443       32.287     3259.926     6153.271     1042.480        0.981        0.523       93.668       31.814        0.115      352.523       35.240      861.334
07/06/2014  17:29:00       -8.102      -38.897       28.835       80.536       57.801       41.576     6486.104     3341.005     1728.526        0.698        0.578       39.732       45.445        1.308      352.752       35.640      861.324
07/06/2014  17:30:00     -215.144      -32.087       -6.999      125.117       92.318       50.536    15654.328     8522.660     2553.929        3.704        1.337      217.524       50.696        0.054      352.581       35.337      861.309
07/06/2014  17:31:00     -153.855      -61.656       -9.470       92.212       63.959       38.245     8503.043     4090.733     1462.642        2.081        0.703      165.749       36.865        0.049      352.722       35.587      861.293
07/06/2014  17:32:00     -186.921      -29.902      -13.470       92.066       66.682       40.523     8476.229     4446.553     1642.127        2.529        0.728      189.298       44.431        0.055      352.613       35.396      861.280
07/06/2014  17:33:00     -205.947      -69.720       -5.971       56.210       79.067       40.394     3159.611     6251.602     1631.708        2.918        0.552      217.429       25.491        0.014      352.656       35.469      861.269
07/06/2014  17:34:00     -107.327        4.098        3.439       54.812       42.290       30.449     3004.322     1788.437      927.154        0.863        0.286      107.405       27.474        0.065      352.705       35.558      861.266
07/06/2014  17:35:00      -18.968       14.778       19.452       64.987       28.007       27.829     4223.362      784.384      774.432        0.337        0.289       24.045       26.975        1.259      352.602       35.379      861.268
07/06/2014  17:36:00      -38.386      152.134        0.199       47.275      111.822       46.870     2234.915    12504.239     2196.822        2.077        0.847      156.902       65.947        0.177      352.571       35.322      861.272
07/06/2014  17:37:00        0.457      254.061      -30.718       45.424      117.349       41.112     2063.306    13770.882     1690.225        4.150        0.876      254.061       53.770        0.045      352.320       34.881      861.262
07/06/2014  17:38:00      -42.601      106.618       -7.874       47.116       61.079       31.075     2219.924     3730.630      965.631        1.008        0.346      114.814       27.877        0.059      352.454       35.119      861.270
07/06/2014  17:39:00       16.932       93.032       -6.237       41.331       61.798       29.577     1708.275     3818.934      874.813        0.769        0.320       94.560       30.983        0.107      352.464       35.138      861.260
07/06/2014  17:40:00       31.387      148.166      -15.194       57.327       72.618       37.098     3286.365     5273.361     1376.295        1.655        0.497      151.454       36.364        0.058      352.425       35.067      861.248
07/06/2014  17:41:00      -15.387      154.302      -12.410       56.716       78.591       46.843     3216.675     6176.591     2194.240        1.789        0.579      155.067       54.400        0.123      352.433       35.082      861.233
07/06/2014  17:42:00      -86.049      115.607      -17.709       65.086       62.132       34.542     4236.144     3860.381     1193.145        1.518        0.464      144.116       32.660        0.051      352.556       35.296      861.229
07/06/2014  17:43:00     -154.376       59.404      -17.840       71.309       67.781       37.771     5085.021     4594.314     1426.650        1.939        0.555      165.411       36.100        0.048      352.617       35.403      861.222
07/06/2014  17:44:00      -54.609       59.735       -6.709       46.283       96.700       39.909     2142.093     9350.824     1592.734        0.984        0.654       80.934       22.969        0.081      352.618       35.407      861.219
07/06/2014  17:45:00     -105.884      157.638      -26.308       52.935       71.186       34.090     2802.073     5067.496     1162.111        2.289        0.452      189.898       30.765        0.026      352.501       35.199      861.220
07/06/2014  17:46:00      -95.963      221.839      -31.702       49.635       73.741       38.404     2463.618     5437.766     1474.900        3.440        0.469      241.706       37.292        0.024      352.366       34.961      861.215
07/06/2014  17:47:00        2.250      249.093      -36.042       39.863       55.114       21.400     1589.047     3037.596      457.974        3.422        0.254      249.103       20.640        0.007      352.205       34.677      861.220
07/06/2014  17:48:00      -62.006      157.007      -26.702       46.672       73.080       26.165     2178.310     5340.683      684.620        1.870        0.410      168.808       22.210        0.017      352.371       34.971      861.216
07/06/2014  17:49:00     -185.217       42.889       -4.453      141.623      131.551       45.348    20057.095    17305.571     2056.447        3.779        1.971      190.118       48.041        0.064      352.695       35.537      861.205
07/06/2014  17:50:00     -149.141     -103.545       -2.905      117.000       66.037       54.163    13688.975     4360.923     2933.662        2.697        1.049      181.562       48.789        0.072      352.403       35.028      861.210
07/06/2014  17:51:00      -59.381      -92.016       -1.454       35.332       42.386       24.932     1248.346     1796.570      621.586        0.783        0.183      109.513       26.715        0.060      352.518       35.231      861.205
07/06/2014  17:52:00       -4.108      -83.533       -1.263       50.722       33.653       27.894     2572.708     1132.524      778.066        0.574        0.224       83.634       17.379        0.043      352.584       35.348      861.190
07/06/2014  17:53:00      -45.978      -94.054       19.501       81.956       75.865       41.771     6716.758     5755.563     1744.837        1.278        0.711      104.690       36.806        0.124      352.600       35.375      861.185
07/06/2014  17:54:00     -204.420     -150.191       10.534      109.051       70.738       54.211    11892.178     5003.900     2938.796        4.214        0.992      253.663       56.497        0.050      352.459       35.123      861.175
07/06/2014  17:55:00     -219.514     -121.144       -6.269       68.115       52.449       33.326     4639.602     2750.855     1110.623        3.570        0.425      250.724       31.261        0.016      352.354       34.940      861.187
07/06/2014  17:56:00     -213.602      -37.180      -17.257       51.283       74.491       31.477     2629.992     5548.873      990.809        2.824        0.458      216.814       30.498        0.020      352.313       34.870      861.191
07/06/2014  17:57:00     -160.731       -9.331      -12.099       45.911       58.971       32.606     2107.837     3477.626     1063.138        1.636        0.332      161.002       29.087        0.033      352.581       35.341      861.193
07/06/2014  17:58:00      -88.495       36.300      -14.215       33.575       22.470       19.242     1127.284      504.897      370.263        0.568        0.100       95.651       10.755        0.013      352.494       35.192      861.182
07/06/2014  17:59:00      -13.858       25.119        7.017       27.857       30.244       15.682      776.031      914.718      245.938        0.140        0.097       28.688       12.357        0.186      352.519       35.233      861.165
07/06/2014  18:00:00     -179.061       -6.543      -13.712       91.121       44.255       37.595     8303.008     1958.492     1413.419        2.198        0.584      179.181       40.777        0.052      352.758       35.650      861.170
07/06/2014  18:01:00     -284.135       39.056      -15.962       86.727       62.802       37.546     7521.602     3944.072     1409.695        4.769        0.644      286.807       38.587        0.018      352.379       34.982      861.178
07/06/2014  18:02:00     -163.019      -22.264       -6.058      132.570       75.257       41.732    17574.751     5663.625     1741.550        2.604        1.249      164.532       58.954        0.128      352.455       35.117      861.188
07/06/2014  18:03:00     -195.670      -18.236      -24.371       77.872       67.029       32.903     6064.011     4492.849     1082.579        2.542        0.582      196.518       27.536        0.020      352.339       34.915      861.193
07/06/2014  18:04:00      -63.999       16.620        0.485       43.406       34.612       25.205     1884.060     1198.004      635.289        0.404        0.186       66.122       17.493        0.070      352.555       35.297      861.195
07/06/2014  18:05:00      -59.789       91.631      -20.581       67.868       48.169       25.897     4606.009     2320.240      670.672        0.999        0.380      109.412       16.779        0.024      352.303       34.855      861.195
07/06/2014  18:06:00     -107.774       30.291       -2.634       84.348       33.446       33.452     7114.544     1118.638     1119.066        1.094        0.468      111.949       44.897        0.161      352.475       35.156      861.186
07/06/2014  18:07:00     -172.160       21.075      -23.763       27.208       35.307       16.396      740.255     1246.563      268.813        1.645        0.113      173.445        8.013        0.002      352.259       34.776      861.190
07/06/2014  18:08:00      -49.481        7.978        5.824       37.932       24.795       19.155     1438.867      614.768      366.902        0.248        0.121       50.120       20.060        0.160      352.484       35.172      861.193
07/06/2014  18:09:00     -122.042      -41.986       -6.822       51.835       37.713       23.230     2686.838     1422.270      539.623        1.068        0.232      129.063       17.887        0.019      352.591       35.359      861.196
07/06/2014  18:10:00      -87.053      -25.244       -3.923       29.130       30.328       24.345      848.533      919.791      592.694        0.530        0.118       90.639        6.192        0.005      352.542       35.274      861.197
07/06/2014  18:11:00       -8.713      -10.805       -9.587       23.490       12.443       15.542      551.793      154.830      241.565        0.062        0.047       13.880       17.117        1.521      352.425       35.067      861.198
07/06/2014  18:12:00       27.756      -44.507       11.135       38.374       33.970       17.480     1472.562     1153.954      305.549        0.290        0.147       52.452       14.331        0.075      352.253       34.768      861.203
07/06/2014  18:13:00     -125.679      -58.398       -5.044       49.575       33.083       23.769     2457.718     1094.518      564.954        1.167        0.206      138.584       23.732        0.029      352.337       34.914      861.213
07/06/2014  18:14:00     -213.941      -25.067        1.513      128.323       90.818       44.909    16466.778     8247.956     2016.861        3.656        1.337      215.405       58.350        0.073      352.426       35.067      861.217
07/06/2014  18:15:00     -361.985     -101.343      -23.145      138.252      118.106       59.909    19113.720    13949.089     3589.114        8.924        1.833      375.904       42.829        0.013      352.234       34.728      861.158
07/06/2014  18:16:00     -164.784     -145.635       20.077      134.568      113.910       71.804    18108.542    12975.592     5155.831        4.250        1.812      219.917       64.530        0.086      352.432       35.077      861.181
07/06/2014  18:17:00     -229.230     -155.089       15.743      139.095      111.125       74.335    19347.514    12348.781     5525.740        5.703        1.861      276.765       71.215        0.066      352.344       34.923      861.243
07/06/2014  18:18:00     -182.288     -119.126        4.366      143.848       89.244       57.736    20692.305     7964.483     3333.427        3.971        1.600      217.761       65.888        0.092      351.948       34.233      861.254
07/06/2014  18:19:00     -164.079     -226.294       -9.323      161.580      160.801       73.084    26108.199    25856.854     5341.251        6.775        2.865      279.519       76.522        0.075      352.124       34.538      861.267
07/06/2014  18:20:00     -284.829     -166.633       -6.658      137.942      119.355       62.921    19028.023    14245.604     3959.021        7.308        1.862      329.991       62.235        0.036      352.138       34.561      861.257
07/06/2014  18:21:00     -197.554     -262.547       -3.821      164.441      179.404       74.943    27040.973    32185.651     5616.419        8.640        3.242      328.570       80.689        0.060      351.994       34.311      861.255
07/06/2014  18:22:00     -133.833      -85.510       34.048      204.609      126.197       64.132    41864.654    15925.751     4112.872        4.413        3.095      158.818       69.047        0.189      352.098       34.495      861.255
07/06/2014  18:23:00      -82.182     -298.364        3.474      176.651      180.750       79.437    31205.579    32670.562     6310.181        8.297        3.509      309.475       52.957        0.029      351.990       34.303      861.265
07/06/2014  18:24:00     -221.920     -124.266       22.501      160.135      111.579       79.028    25643.091    12449.894     6245.407        5.476        2.217      254.343       63.847        0.063      352.007       34.333      861.237
07/06/2014  18:25:00      -93.112     -118.981       16.884       94.154       92.357       54.475     8864.905     8529.804     2967.502        2.173        1.018      151.084       53.539        0.126      352.090       34.482      861.231
07/06/2014  18:26:00     -238.363     -182.465       -2.656      180.170      140.504       79.499    32461.183    19741.350     6320.138        7.431        2.926      300.184       70.923        0.056      352.038       34.388      861.222
07/06/2014  18:27:00     -123.756     -198.623        3.681      108.025      125.692       59.699    11669.477    15798.552     3564.006        4.290        1.552      234.023       59.027        0.064      352.072       34.446      861.222
07/06/2014  18:28:00      -99.243     -125.968       35.164      153.753       94.305       62.938    23639.857     8893.498     3961.240        3.172        1.825      160.366       63.118        0.155      352.117       34.528      861.215
07/06/2014  18:29:00     -215.166     -186.048       -5.529       87.887       97.810       48.215     7724.171     9566.866     2324.682        5.027        0.981      284.447       33.383        0.014      352.140       34.564      861.229
07/06/2014  18:30:00     -323.544     -250.694       -3.515      207.654      187.716       86.042    43120.310    35237.173     7403.281       12.664        4.288      409.302       93.514        0.052      352.017       34.349      861.221
07/06/2014  18:31:00     -442.171     -292.708       -8.948      204.216      178.338       96.320    41704.118    31804.467     9277.592       18.202        4.139      530.276      110.118        0.043      351.945       34.224      861.208
07/06/2014  18:32:00     -417.727     -264.532      -34.308      189.924      161.607       87.274    36071.222    26116.880     7616.796       15.772        3.490      494.442       84.721        0.029      351.891       34.130      861.212
07/06/2014  18:33:00     -212.243     -221.539      -17.582      115.197      126.962       60.168    13270.314    16119.263     3620.202        6.372        1.650      306.801       49.527        0.026      351.976       34.279      861.212
07/06/2014  18:34:00     -282.914     -270.292       -6.065      188.305      181.687       82.426    35458.629    33010.297     6793.979       11.419        3.763      391.278       96.391        0.061      351.956       34.244      861.235
07/06/2014  18:35:00     -362.429     -265.426       -0.753      229.124      155.396       95.332    52497.857    24147.973     9088.260       14.376        4.287      449.228       98.999        0.049      351.915       34.171      861.240
07/06/2014  18:36:00     -499.457     -326.951      -19.353      242.938      169.191      106.821    59019.020    28625.451    11410.794       22.788        4.953      596.954      117.875        0.039      351.820       34.005      861.212
07/06/2014  18:37:00     -338.035     -225.364      -10.149      167.263      124.361       79.388    27976.873    15465.724     6302.439       10.744        2.487      406.272       79.553        0.038      351.846       34.050      861.255
07/06/2014  18:38:00     -355.130     -148.174        0.190      252.988      130.639       90.464    64002.810    17066.419     8183.657       11.865        4.463      384.802      116.705        0.092      351.830       34.024      861.259
07/06/2014  18:39:00     -347.523     -224.925       -9.628      169.796      136.909       81.055    28830.765    18744.156     6569.894       11.279        2.707      413.961       84.295        0.041      351.873       34.099      861.267
07/06/2014  18:40:00     -241.235     -177.632       -2.323      131.170       95.820       67.402    17205.671     9181.468     4543.095        6.034        1.547      299.578       72.879        0.059      351.878       34.107      861.281
07/06/2014  18:41:00     -295.102     -161.320      -11.322      144.660      107.526       67.103    20926.481    11561.942     4502.802        7.511        1.850      336.317       60.813        0.033      351.906       34.155      861.270
07/06/2014  18:42:00     -289.765     -119.933        5.010      199.633      143.430       81.282    39853.292    20572.256     6606.770        8.269        3.352      313.604       82.294        0.069      351.850       34.059      861.265
07/06/2014  18:43:00     -325.650     -218.347       11.126      188.125      140.511       86.066    35390.918    19743.359     7407.329       10.818        3.127      392.076      100.797        0.066      351.845       34.050      861.264
07/06/2014  18:44:00     -416.474     -193.021      -31.067      145.663      121.647       83.624    21217.705    14797.967     6992.942       12.733        2.150      459.029       62.751        0.019      351.858       34.073      861.251
07/06/2014  18:45:00     -324.399     -224.002        4.789      238.285      154.152       94.970    56779.933    23762.960     9019.353       12.248        4.478      394.223      115.875        0.086      351.814       33.997      861.259
07/06/2014  18:46:00     -447.330     -295.976       -0.941      215.005      197.262      108.957    46227.355    38912.344    11871.529       19.234        4.851      536.382      108.721        0.041      351.695       33.790      861.232
07/06/2014  18:47:00     -422.879     -304.497      -13.105      205.227      157.033      100.561    42118.070    24659.506    10112.453       17.429        3.845      521.100      110.570        0.045      351.683       33.770      861.225
07/06/2014  18:48:00     -200.555     -203.016       21.475      187.429      148.670       73.817    35129.475    22102.749     5448.920        7.228        3.134      285.373       82.919        0.084      351.775       33.929      861.250
07/06/2014  18:49:00     -402.814     -343.913       -8.205      229.351      185.670      111.570    52601.717    34473.423    12447.782       19.005        4.976      529.656      119.874        0.051      351.724       33.840      861.259
07/06/2014  18:50:00     -282.718     -274.745       12.984      186.806      146.255      102.525    34896.565    21390.491    10511.421       11.118        3.340      394.226      103.679        0.069      351.800       33.971      861.256
07/06/2014  18:51:00     -430.420     -246.326        1.151      188.438      154.965      103.395    35508.748    24014.134    10690.612       15.806        3.511      495.921       99.657        0.040      351.773       33.923      861.280
07/06/2014  18:52:00     -333.290     -171.368      -15.098      169.464      141.288       75.516    28718.113    19962.243     5702.608        9.752        2.719      374.765       87.370        0.054      351.827       34.018      861.336
07/06/2014  18:53:00     -276.683      -72.015       -9.535      145.254      127.576       57.052    21098.660    16275.595     3254.902        6.122        2.031      285.901       61.141        0.046      351.863       34.080      861.372
07/06/2014  18:54:00     -290.353     -135.647       -9.568      120.591       81.414       63.820    14542.161     6628.216     4072.942        6.402        1.262      320.476       58.519        0.033      351.835       34.033      861.386
07/06/2014  18:55:00     -234.248      -17.347       -0.116      132.868      103.179       54.814    17653.911    10645.816     3004.603        4.323        1.565      234.890       51.304        0.048      351.866       34.087      861.404
07/06/2014  18:56:00     -306.374     -133.535      -13.643      192.153      177.405       63.234    36922.666    31472.593     3998.513        9.213        3.620      334.210       78.540        0.055      351.819       34.004      861.410
07/06/2014  18:57:00     -294.778      -55.465        0.687      158.041      120.163       66.050    24977.044    14439.038     4362.648        6.687        2.189      299.951       77.844        0.067      351.810       33.989      861.423
07/06/2014  18:58:00     -168.612      -65.942        7.742      125.904       81.313       53.132    15851.724     6611.867     2822.957        2.906        1.264      181.048       58.345        0.104      351.859       34.075      861.442
07/06/2014  18:59:00     -269.641      -70.174       -0.335      137.010      118.817       60.602    18771.812    14117.498     3672.548        5.709        1.828      278.623       63.799        0.052      351.771       33.920      861.452
07/06/2014  19:00:00     -395.501     -124.650       -2.575      207.096      155.775       80.921    42888.706    24265.933     6548.264       12.282        3.685      414.679       98.826        0.057      351.713       33.821      861.443
07/06/2014  19:01:00     -335.507     -109.105      -11.634      233.452      121.197       75.261    54500.011    14688.822     5664.183        9.972        3.743      352.801      102.577        0.085      351.692       33.785      861.485
07/06/2014  19:02:00     -171.360     -128.773        6.711      143.766      112.112       72.454    20668.661    12569.144     5249.514        4.223        1.924      214.352       78.007        0.132      351.711       33.819      861.504
07/06/2014  19:03:00     -262.474     -152.418       -6.657      174.265      124.972       83.316    30368.324    15618.093     6941.493        7.254        2.646      303.519       83.158        0.075      351.681       33.767      861.516
07/06/2014  19:04:00     -296.955     -113.424       -1.434      145.094      127.793       74.619    21052.361    16331.026     5567.925        7.199        2.148      317.880       85.038        0.072      351.660       33.731      861.525
07/06/2014  19:05:00     -408.120     -129.216      -15.027      174.955      126.963       76.018    30609.315    16119.689     5778.760       11.799        2.625      428.087       89.130        0.043      351.627       33.672      861.541
07/06/2014  19:06:00     -349.969     -107.706       -5.561      182.295      128.486       74.329    33231.359    16508.596     5524.743        9.468        2.763      366.167       77.056        0.044      351.588       33.603      861.532
07/06/2014  19:07:00     -191.232      -70.964       -0.596      159.969      119.051       68.818    25590.088    14173.134     4735.979        4.305        2.225      203.974       56.318        0.076      351.631       33.679      861.538
07/06/2014  19:08:00     -221.749      -54.428       11.520      154.612      112.916       62.942    23904.972    12750.124     3961.637        4.644        2.031      228.331       80.418        0.124      351.594       33.616      861.535
07/06/2014  19:09:00     -321.608     -145.236      -18.135      146.949      121.520       71.813    21593.920    14767.230     5157.168        8.318        2.076      352.881       79.403        0.051      351.531       33.505      861.548
07/06/2014  19:10:00     -235.404      -90.231        5.032      162.418      115.717       66.370    26379.453    13390.314     4405.031        5.387        2.209      252.104       61.678        0.060      351.565       33.562      861.549
07/06/2014  19:11:00     -309.801     -231.656      -12.981      140.024      151.019       78.031    19606.738    22806.818     6088.836        9.915        2.425      386.835       68.302        0.031      351.542       33.524      861.548
07/06/2014  19:12:00     -218.132      -16.658        5.641      198.804      128.415       63.904    39522.997    16490.399     4083.671        5.398        3.005      218.767       78.046        0.127      351.582       33.594      861.562
07/06/2014  19:13:00     -267.131      -69.945        4.627      188.741      154.303       81.849    35623.262    23809.325     6699.322        7.119        3.307      276.136       91.567        0.110      351.539       33.519      861.583
07/06/2014  19:14:00     -347.665       -5.956        7.101      186.943      160.364       88.645    34947.672    25716.497     7857.966        9.473        3.426      347.716       90.055        0.067      351.504       33.456      861.587
07/06/2014  19:15:00     -321.119      -83.708       -0.699      166.414      153.859       78.563    27693.486    23672.546     6172.124        8.382        2.877      331.850       83.721        0.064      351.489       33.430      861.597
07/06/2014  19:16:00     -435.132     -193.361      -27.906      198.596      125.863       80.518    39440.175    15841.541     6483.192       14.463        3.088      476.160       94.066        0.039      351.404       33.281      861.597
07/06/2014  19:17:00     -443.150     -185.946      -27.908      206.476      182.662       86.519    42632.450    33365.496     7485.594       15.760        4.174      480.581       68.749        0.020      351.355       33.196      861.603
07/06/2014  19:18:00     -273.879     -115.937        5.284      160.576      160.066       77.025    25784.621    25621.078     5932.793        7.290        2.867      297.408       84.908        0.082      351.396       33.268      861.613
07/06/2014  19:19:00     -348.072     -116.069      -18.042      180.607       85.090       56.465    32618.964     7240.365     3188.241        8.899        2.152      366.915       73.744        0.040      351.394       33.265      861.603
07/06/2014  19:20:00     -354.035      -11.731       -7.972      214.888      138.461       73.721    46176.646    19171.491     5434.745        9.815        3.539      354.229       85.292        0.058      351.409       33.291      861.605
07/06/2014  19:21:00     -508.908     -196.631      -43.074      157.047      172.994       80.020    24663.785    29927.064     6403.276       18.024        3.050      545.575       63.837        0.014      351.333       33.157      861.579
07/06/2014  19:22:00     -283.689     -141.823      -14.804      121.943      122.887       69.746    14870.025    15101.263     4864.556        6.782        1.742      317.164       52.213        0.027      351.361       33.207      861.578
07/06/2014  19:23:00     -238.722     -157.841        2.136      156.094      104.614       79.131    24365.434    10944.082     6261.650        6.173        2.079      286.185       79.571        0.077      351.357       33.199      861.563
07/06/2014  19:24:00     -322.041        5.065      -14.442      127.237      113.678       58.118    16189.270    12922.658     3377.733        6.821        1.624      322.081       57.252        0.032      351.392       33.259      861.578
07/06/2014  19:25:00     -386.975      -71.283      -33.786      137.695      121.971       74.591    18959.945    14876.996     5563.852        9.768        1.970      393.485       77.096        0.038      351.360       33.205      861.572
07/06/2014  19:26:00     -362.950      -42.136      -14.706      137.678       91.203       68.719    18955.259     8318.010     4722.351        8.285        1.600      365.387       55.496        0.023      351.396       33.268      861.578
07/06/2014  19:27:00     -310.799      -69.639       -4.028      177.277      157.709       86.236    31427.168    24872.249     7436.657        8.259        3.187      318.505       89.185        0.078      351.334       33.159      861.582
07/06/2014  19:28:00     -318.676     -141.266      -16.487      146.452      151.331       70.560    21448.301    22901.168     4978.701        8.555        2.466      348.583       61.525        0.031      351.308       33.113      861.581
07/06/2014  19:29:00     -237.000     -185.366        4.422      188.214      125.925       82.595    35424.618    15857.142     6821.985        7.432        2.905      300.882       88.060        0.086      351.333       33.159      861.576
07/06/2014  19:30:00     -394.344      -53.475      -13.483      155.009      132.869       56.659    24027.846    17654.272     3210.255       10.171        2.245      397.953       61.561        0.024      351.342       33.173      861.580
07/06/2014  19:31:00     -200.112      -76.268        8.776      159.804      139.987       57.679    25537.361    19596.477     3326.880        4.719        2.423      214.153       71.332        0.111      351.316       33.128      861.601
07/06/2014  19:32:00     -393.540     -174.112      -12.029      199.723      127.922       66.176    39889.406    16364.060     4379.244       12.297        3.032      430.335       79.764        0.034      351.271       33.050      861.606
07/06/2014  19:33:00     -337.835     -120.009      -13.899      210.928      129.500       86.050    44490.824    16770.348     7404.588        9.869        3.433      358.518       89.357        0.062      351.281       33.067      861.599
07/06/2014  19:34:00     -251.639      -49.409        0.394      112.458      124.526       68.154    12646.829    15506.774     4644.914        4.928        1.640      256.444       43.025        0.028      351.323       33.140      861.633
07/06/2014  19:35:00     -207.779      -10.746        5.335      109.613      102.241       67.372    12014.959    10453.198     4539.030        3.516        1.350      208.057       59.619        0.082      351.330       33.155      861.639
07/06/2014  19:36:00     -278.750      -44.461      -15.380      130.898      107.921       62.052    17134.352    11646.911     3850.434        5.627        1.632      282.273       65.903        0.055      351.254       33.020      861.655
07/06/2014  19:37:00     -294.709       23.903       -9.719      125.308      117.737       69.107    15702.001    13861.972     4775.721        6.092        1.717      295.676       64.434        0.047      351.324       33.143      861.654
07/06/2014  19:38:00     -379.026      -87.722      -21.350      113.846      107.802       54.651    12960.856    11621.292     2986.780        8.969        1.378      389.045       51.396        0.017      351.277       33.060      861.669
07/06/2014  19:39:00     -382.111      -39.932      -16.284      133.045       90.137       64.719    17700.918     8124.753     4188.588        8.894        1.501      384.191       72.241        0.035      351.267       33.043      861.686
07/06/2014  19:40:00     -250.274      -63.578       -5.116      132.668       88.524       59.233    17600.874     7836.420     3508.556        4.782        1.447      258.223       50.902        0.039      351.236       32.989      861.681
07/06/2014  19:41:00     -532.184      -37.482      -50.533      188.255      123.997       76.652    35439.837    15375.264     5875.601       17.192        2.835      533.502       88.146        0.027      351.206       32.936      861.703
07/06/2014  19:42:00     -468.528      -88.998      -21.317      208.396      165.006       89.688    43429.084    27226.856     8043.881       15.328        3.935      476.906       86.362        0.033      351.168       32.868      861.689
07/06/2014  19:43:00     -455.987      -80.564      -27.367      204.584      169.635       93.557    41854.527    28776.095     8752.982       14.726        3.969      463.049      105.854        0.052      351.141       32.822      861.681
07/06/2014  19:44:00     -277.782     -106.558        5.097      195.178      125.993       67.707    38094.433    15874.225     4584.299        7.354        2.928      297.519       90.196        0.092      351.155       32.848      861.686
07/06/2014  19:45:00     -283.984      -29.921      -29.869      114.819      123.917       55.484    13183.476    15355.402     3078.496        5.702        1.581      285.556       43.548        0.023      351.165       32.863      861.693
07/06/2014  19:46:00     -271.364      -26.510      -11.882      186.305      120.028       59.868    34709.716    14406.617     3584.198        6.358        2.635      272.656       67.336        0.061      351.179       32.890      861.691
07/06/2014  19:47:00     -268.407     -123.148       -8.571      179.347      122.528       80.122    32165.251    15013.069     6419.519        7.043        2.680      295.309       96.743        0.107      351.098       32.747      861.690
07/06/2014  19:48:00     -194.742      -21.749       -9.995      125.136       87.802       62.173    15659.123     7709.158     3865.427        3.286        1.362      195.953       52.282        0.071      351.172       32.880      861.684
07/06/2014  19:49:00     -317.043      -84.407      -14.627      192.998      120.022       61.463    37248.048    14405.397     3777.662        8.163        2.772      328.087       38.251        0.014      351.095       32.743      861.685
07/06/2014  19:50:00     -382.533      -84.735        3.270      197.788      139.897       72.436    39120.069    19571.159     5246.936       10.872        3.197      391.806       80.408        0.042      351.046       32.656      861.699
07/06/2014  19:51:00     -376.494     -124.671      -20.458      163.955      133.592       66.011    26881.278    17846.908     4357.455       10.339        2.454      396.599       69.586        0.031      351.037       32.640      861.699
07/06/2014  19:52:00     -364.272      -78.173      -23.279      177.264      113.892       79.262    31422.652    12971.329     6282.398        9.500        2.534      372.565       82.067        0.049      351.060       32.680      861.697
07/06/2014  19:53:00     -460.617      -94.632      -11.450      214.795      164.268       88.387    46137.059    26983.989     7812.185       15.108        4.047      470.237       88.483        0.035      351.004       32.583      861.671
07/06/2014  19:54:00     -317.227      -98.845      -14.379      161.010      141.968       79.356    25924.207    20154.898     6297.416        8.148        2.619      332.270       76.506        0.053      351.000       32.576      861.696
07/06/2014  19:55:00     -361.839      -57.683       -8.705      157.080      109.146       71.441    24674.036    11912.752     5103.875        8.800        2.085      366.408       77.930        0.045      350.982       32.547      861.700
07/06/2014  19:56:00     -407.417      -52.934      -21.013      143.993      132.330       77.066    20733.963    17511.262     5939.161       10.670        2.209      410.842       73.178        0.032      350.965       32.516      861.702
07/06/2014  19:57:00     -423.353      -47.179      -27.216      245.041      125.032       74.532    60044.952    15633.098     5555.081       13.170        4.062      425.973      101.123        0.056      350.948       32.488      861.693
07/06/2014  19:58:00     -252.118      -96.672       -5.362      134.219      101.792       65.489    18014.713    10361.606     4288.779        5.280        1.633      270.016       81.492        0.091      350.914       32.429      861.717
07/06/2014  19:59:00     -229.881      -77.497        1.415      148.280      103.879       66.007    21986.829    10790.769     4356.930        4.799        1.857      242.593       73.780        0.092      350.885       32.380      861.721
07/06/2014  20:00:00     -231.178        8.879       12.581      132.863       94.233       64.093    17652.532     8879.927     4107.946        4.216        1.532      231.348       64.763        0.078      350.879       32.369      861.733
07/06/2014  20:01:00     -250.392        5.923        1.207      156.549      113.509       61.445    24507.496    12884.371     3775.521        5.194        2.058      250.462       72.418        0.084      350.844       32.306      861.749
07/06/2014  20:02:00     -213.110      -29.255        3.805      138.431      117.205       71.566    19163.158    13736.927     5121.717        4.215        1.901      215.108       74.419        0.120      350.854       32.325      861.747
07/06/2014  20:03:00     -298.264       35.614       -6.493      149.163      131.664       76.694    22249.729    17335.517     5881.894        6.786        2.273      300.383       69.343        0.053      350.879       32.368      861.743
07/06/2014  20:04:00     -341.932      -69.040        3.746      157.372      150.937       74.387    24766.062    22781.974     5533.371        8.738        2.654      348.832       73.963        0.045      350.879       32.367      861.751
07/06/2014  20:05:00     -322.889      -29.818      -11.545      165.582      116.895       59.633    27417.335    13664.346     3556.128        7.495        2.232      324.263       73.597        0.052      350.880       32.369      861.740
07/06/2014  20:06:00     -215.433      -52.169        0.806      111.147       87.358       48.738    12353.653     7631.378     2375.410        3.574        1.118      221.660       49.889        0.051      350.840       32.300      861.744
07/06/2014  20:07:00     -388.742      -90.452      -38.524      158.889      115.855       80.652    25245.725    13422.419     6504.717       10.297        2.259      399.126       86.976        0.047      350.884       32.376      861.756
07/06/2014  20:08:00     -377.228       20.192      -24.951      166.404      111.060       61.133    27690.252    12334.331     3737.220        9.354        2.188      377.768       58.092        0.024      350.863       32.339      861.747
07/06/2014  20:09:00     -517.534       16.994      -41.934      147.311       98.942       72.920    21700.560     9789.590     5317.306       15.334        1.840      517.813       72.908        0.020      350.873       32.357      861.757
07/06/2014  20:10:00     -302.804     -117.914      -12.450      112.741      112.450       68.379    12710.599    12644.927     4675.696        6.788        1.502      324.952       60.747        0.035      350.827       32.278      861.782
07/06/2014  20:11:00     -408.059       -3.630      -33.228      115.907      121.993       69.722    13434.410    14882.269     4861.130       10.040        1.659      408.075       66.608        0.027      350.818       32.261      861.789
07/06/2014  20:12:00     -395.962      -64.325      -15.582      124.094      106.743       61.426    15399.409    11394.166     3773.142        9.586        1.528      401.153       63.947        0.025      350.791       32.214      861.802
07/06/2014  20:13:00     -316.902      -77.122       -6.864      106.108      115.360       59.757    11258.883    13308.008     3570.905        6.728        1.407      326.151       64.269        0.039      350.765       32.169      861.819
07/06/2014  20:14:00     -277.799      -32.376       -9.518      156.258       85.039       58.289    24416.440     7231.596     3397.580        5.667        1.752      279.679       72.672        0.068      350.740       32.127      861.831
07/06/2014  20:15:00     -409.835      -95.183      -20.073      152.102      122.360       64.479    23135.159    14971.930     4157.494       10.984        2.113      420.743       63.236        0.023      350.757       32.154      861.825
07/06/2014  20:16:00     -305.695      -79.117      -16.494      139.968       84.627       64.560    19591.158     7161.784     4168.037        6.545        1.546      315.767       68.663        0.047      350.734       32.115      861.839
07/06/2014  20:17:00     -222.111     -107.011       -5.306      110.756       89.356       50.659    12266.796     7984.432     2566.360        4.181        1.141      246.545       32.122        0.017      350.707       32.066      861.843
07/06/2014  20:18:00     -360.427      -70.833      -12.625      167.747      138.753       73.934    28139.192    19252.349     5466.269        9.396        2.643      367.321       70.460        0.037      350.699       32.054      861.831
07/06/2014  20:19:00     -493.421      -70.994      -30.354      134.251      184.629       82.652    18023.451    34087.937     6831.416       15.417        2.947      498.502       75.243        0.023      350.695       32.045      861.813
07/06/2014  20:20:00     -351.532     -162.062       -8.760      170.842      117.932       65.654    29186.975    13907.903     4310.455        9.865        2.370      387.090       72.592        0.035      350.646       31.962      861.846
07/06/2014  20:21:00     -221.200      -56.087       -0.485      125.287       86.855       59.150    15696.843     7543.734     3498.755        3.940        1.337      228.200       63.943        0.079      350.585       31.856      861.860
07/06/2014  20:22:00     -143.467      -66.545       20.011      160.216      130.966       83.470    25669.220    17152.115     6967.313        3.759        2.489      158.149       78.379        0.246      350.571       31.832      861.861
07/06/2014  20:23:00     -126.751      -47.972        5.249      150.212       83.270       46.031    22563.670     6933.865     2118.854        2.500        1.581      135.525       58.042        0.183      350.566       31.824      861.887
07/06/2014  20:24:00     -343.622      -54.079      -16.157      138.003      106.704       63.829    19044.817    11385.784     4074.088        7.788        1.725      347.851       59.943        0.030      350.606       31.890      861.881
07/06/2014  20:25:00     -313.064      -53.078       -2.458      178.429      114.116       72.499    31836.828    13022.558     5256.084        7.547        2.506      317.531       88.710        0.078      350.568       31.824      861.919
07/06/2014  20:26:00     -270.867      -44.562        3.192      141.722      140.466       59.389    20085.170    19730.828     3527.037        5.935        2.167      274.508       58.247        0.045      350.560       31.812      861.942
07/06/2014  20:27:00     -358.150      -87.758      -19.502      163.714      146.209       69.465    26802.226    21377.060     4825.371        9.467        2.650      368.745       63.168        0.029      350.557       31.805      861.940
07/06/2014  20:28:00     -401.705      -83.453      -27.104      143.232      125.719       73.662    20515.338    15805.298     5426.029       10.540        2.087      410.282       76.095        0.034      350.546       31.786      861.961
07/06/2014  20:29:00     -170.376      -60.342        4.150      151.293       94.596       57.876    22889.671     8948.366     3349.647        3.393        1.759      180.746       50.908        0.079      350.525       31.750      861.969
07/06/2014  20:30:00     -152.197     -113.784        0.406      108.945      100.909       67.994    11868.939    10182.722     4623.246        3.139        1.334      190.028       74.922        0.155      350.442       31.607      861.979
07/06/2014  20:31:00     -252.452      -43.078       -7.151      155.143      109.406       74.145    24069.314    11969.594     5497.542        5.358        2.077      256.100       71.716        0.078      350.484       31.679      861.998
07/06/2014  20:32:00     -230.767      -56.640       -4.305      136.163       95.961       56.982    18540.383     9208.449     3246.968        4.373        1.550      237.616       63.092        0.071      350.472       31.658      862.015
07/06/2014  20:33:00     -345.978     -146.743      -21.097      190.270      131.096       78.573    36202.670    17186.112     6173.650       10.061        2.978      375.812       98.803        0.069      350.419       31.565      862.046
07/06/2014  20:34:00     -372.445      -13.939      -22.257      131.847      102.738       61.493    17383.527    10555.080     3781.332        8.556        1.586      372.706       62.318        0.028      350.401       31.536      862.044
07/06/2014  20:35:00     -320.939     -138.539      -17.360      120.274       99.493       55.564    14465.743     9898.885     3087.308        7.497        1.373      349.564       47.589        0.019      350.438       31.599      862.076
07/06/2014  20:36:00     -189.759      -65.459        7.826      153.749       99.330       61.892    23638.621     9866.426     3830.625        3.884        1.867      200.732       67.175        0.112      350.376       31.493      862.088
07/06/2014  20:37:00     -221.301      -48.526       -6.247      122.350       82.595       48.200    14969.411     6821.904     2323.198        3.774        1.206      226.559       45.988        0.041      350.328       31.410      862.115
07/06/2014  20:38:00     -244.442       -1.929      -14.540      118.088       95.072       52.971    13944.843     9038.695     2805.950        4.287        1.289      244.450       51.664        0.045      350.317       31.390      862.119
07/06/2014  20:39:00     -312.313      -64.042      -18.306       93.791       82.045       42.860     8796.762     6731.396     1836.997        5.967        0.868      318.811       45.781        0.021      350.346       31.439      862.115
07/06/2014  20:40:00     -347.879      -34.260      -12.540      202.680      133.748       76.983    41079.235    17888.607     5926.371        9.361        3.245      349.562       93.797        0.072      350.332       31.416      862.116
07/06/2014  20:41:00     -242.317      -16.033       -3.065      190.852       94.680       58.634    36424.377     8964.290     3437.914        5.390        2.441      242.847       68.949        0.081      350.254       31.280      862.118
07/06/2014  20:42:00     -237.486      -28.586      -12.230       97.828       86.600       43.165     9570.293     7499.547     1863.251        3.815        0.947      239.200       38.571        0.026      350.297       31.355      862.138
07/06/2014  20:43:00     -389.347      -32.469      -13.362      135.344       82.715       70.778    18317.892     6841.735     5009.514        9.149        1.508      390.699       79.695        0.042      350.290       31.341      862.143
07/06/2014  20:44:00     -261.551     -149.927      -19.249      106.506       83.759       43.861    11343.531     7015.509     1923.822        5.577        1.014      301.474       49.305        0.027      350.246       31.265      862.151
07/06/2014  20:45:00     -147.858      -81.874       14.811      109.314      103.811       58.428    11949.599    10776.717     3413.775        2.746        1.307      169.013       55.631        0.108      350.124       31.054      862.165
07/06/2014  20:46:00     -181.003      -64.526       -9.294      111.782       94.190       56.427    12495.249     8871.669     3183.955        3.078        1.228      192.160       54.805        0.081      350.169       31.132      862.180
07/06/2014  20:47:00     -214.304      -66.897       -6.502      102.907      108.926       58.240    10589.930    11864.795     3391.931        3.814        1.292      224.502       57.802        0.066      350.149       31.097      862.190
07/06/2014  20:48:00     -260.677      -27.147       -9.843       98.547       74.933       51.082     9711.551     5614.892     2609.345        4.336        0.897      262.087       53.122        0.041      350.156       31.107      862.212
07/06/2014  20:49:00     -305.014      -45.039      -18.523      131.024       88.043       56.057    17167.179     7751.564     3142.434        6.173        1.403      308.322       61.283        0.040      350.174       31.139      862.222
07/06/2014  20:50:00     -341.229      -88.245      -11.004      124.342       98.946       56.843    15460.849     9790.223     3231.168        7.641        1.424      352.455       58.463        0.028      350.155       31.107      862.237
07/06/2014  20:51:00     -268.027      -58.222      -13.244      128.557      114.696       47.637    16526.779    13155.207     2269.249        5.367        1.598      274.278       54.613        0.040      350.102       31.015      862.240
07/06/2014  20:52:00     -353.124      -38.491      -28.778      146.539      104.127       64.436    21473.783    10842.362     4152.035        8.173        1.823      355.216       75.985        0.046      350.129       31.062      862.265
07/06/2014  20:53:00     -394.573      -72.727      -20.498      150.872      124.735       72.525    22762.404    15558.800     5259.865       10.248        2.179      401.220       64.818        0.026      350.099       31.009      862.271
07/06/2014  20:54:00     -290.755      -64.132        1.823      125.504      116.998       68.811    15751.306    13688.547     4734.954        6.141        1.709      297.744       65.086        0.048      350.069       30.957      862.277
07/06/2014  20:55:00     -384.658      -67.525      -14.905      187.960      129.912       68.518    35329.032    16877.194     4694.728       10.481        2.845      390.540       68.644        0.031      350.037       30.901      862.284
07/06/2014  20:56:00     -287.341      -97.669       -3.990      113.840       90.942       64.500    12959.583     8270.382     4160.282        5.875        1.270      303.487       59.461        0.038      350.008       30.853      862.301
07/06/2014  20:57:00     -258.703      -49.129       -0.494      122.793      104.834       52.583    15078.161    10990.073     2764.997        4.908        1.442      263.327       48.580        0.034      349.965       30.778      862.334
07/06/2014  20:58:00     -271.233      -63.033      -11.910      152.068       76.514       42.082    23124.597     5854.408     1770.923        5.421        1.537      278.461       54.645        0.039      349.944       30.742      862.339
07/06/2014  20:59:00     -314.922      -52.606      -15.807      140.629      108.397       63.033    19776.429    11750.008     3973.188        6.884        1.775      319.285       71.225        0.050      349.953       30.755      862.332
07/06/2014  21:00:00     -383.558     -114.582      -18.023      131.870      105.080       64.739    17389.592    11041.843     4191.187        9.659        1.631      400.307       67.733        0.029      349.947       30.747      862.336
07/06/2014  21:01:00     -264.096      -30.551       -9.106      137.786       72.489       52.317    18985.000     5254.634     2737.106        4.887        1.349      265.857       59.793        0.051      349.910       30.683      862.361
07/06/2014  21:02:00     -332.824      -72.916       -7.001      152.879       95.467       59.216    23371.924     9113.978     3506.515        7.606        1.800      340.717       67.154        0.039      349.883       30.636      862.359
07/06/2014  21:03:00     -301.968     -152.707       -8.012      152.389      114.446       65.428    23222.256    13097.818     4280.857        7.758        2.030      338.385       66.560        0.039      349.874       30.619      862.351
07/06/2014  21:04:00     -177.182      -91.787       13.251      130.136      110.014       71.576    16935.310    12102.985     5123.054        3.707        1.708      199.545       78.142        0.153      349.793       30.479      862.333
07/06/2014  21:05:00     -172.885     -164.087        9.088      124.240      139.921       67.944    15435.556    19577.913     4616.326        4.826        1.981      238.357       66.693        0.078      349.869       30.611      862.327
07/06/2014  21:06:00     -244.833     -103.684        1.213      139.723      132.800       61.248    19522.546    17635.945     3751.360        5.580        2.045      265.883       69.651        0.069      349.862       30.599      862.327
07/06/2014  21:07:00     -282.859     -107.895      -11.414      132.332      139.784       76.570    17511.781    19539.568     5863.008        6.734        2.146      302.739       81.569        0.073      349.839       30.559      862.338
07/06/2014  21:08:00     -317.711       -9.391       -7.818      142.784      118.525       71.164    20387.388    14048.153     5064.313        7.029        1.975      317.850       73.854        0.054      349.807       30.503      862.351
07/06/2014  21:09:00     -167.271      -41.631        5.394      127.109      125.509       70.203    16156.800    15752.458     4928.435        3.328        1.842      172.373       74.017        0.184      349.773       30.443      862.333
07/06/2014  21:10:00     -313.657      -65.821      -22.708      127.979      112.028       66.480    16378.517    12550.227     4419.615        6.828        1.667      320.489       62.750        0.038      349.803       30.495      862.344
07/06/2014  21:11:00     -204.715     -103.961       -8.204      175.073      137.805       80.016    30650.535    18990.354     6402.540        5.440        2.802      229.600       81.930        0.127      349.796       30.482      862.338
07/06/2014  21:12:00     -275.263        2.421       -1.718      131.405      138.834       57.207    17267.402    19274.981     3272.628        5.779        1.991      275.274       51.555        0.035      349.766       30.431      862.342
07/06/2014  21:13:00     -345.928      -90.406      -13.137      192.371      101.133       67.734    37006.626    10227.879     4587.833        8.991        2.591      357.547       80.431        0.051      349.754       30.411      862.356
07/06/2014  21:14:00     -321.614      -18.537      -11.611      173.043      123.221       73.325    29943.724    15183.344     5376.497        7.720        2.525      322.148       86.640        0.072      349.728       30.365      862.382
07/06/2014  21:15:00     -364.558      -85.041      -23.288      160.020      149.543       70.959    25606.400    22363.097     5035.202        9.683        2.650      374.346       69.434        0.034      349.736       30.378      862.364
07/06/2014  21:16:00     -265.838      -45.395       -9.032      122.488      104.787       62.024    15003.233    10980.260     3846.936        5.132        1.492      269.685       66.104        0.060      349.660       30.247      862.351
07/06/2014  21:17:00     -245.447      -55.515       -6.978      137.748      115.284       60.771    18974.376    13290.473     3693.067        4.966        1.798      251.647       60.325        0.057      349.664       30.254      862.368
07/06/2014  21:18:00     -289.797      -37.991      -24.208      192.443       86.758       67.940    37034.429     7526.930     4615.881        6.759        2.459      292.276       88.299        0.091      349.655       30.239      862.375
07/06/2014  21:19:00     -284.721      -33.192      -10.503      122.687       86.969       63.026    15052.165     7563.524     3972.261        5.443        1.329      286.649       63.880        0.050      349.632       30.199      862.381
07/06/2014  21:20:00     -245.418      -18.901      -16.332      164.758       87.574       53.828    27145.331     7669.237     2897.504        4.928        1.886      246.144       60.958        0.061      349.622       30.181      862.397
07/06/2014  21:21:00     -285.202      -35.653      -18.991      112.165      106.343       57.161    12581.082    11308.731     3267.328        5.506        1.358      287.422       62.681        0.048      349.563       30.080      862.399
07/06/2014  21:22:00     -407.028      -14.049      -28.606      163.877      105.511       55.087    26855.807    11132.502     3034.554       10.385        2.051      407.270       63.960        0.025      349.573       30.099      862.415
07/06/2014  21:23:00     -420.851      -80.989      -26.667      130.569      104.139       66.822    17048.394    10844.842     4465.165       10.837        1.618      428.573       72.016        0.028      349.540       30.039      862.417
07/06/2014  21:24:00     -368.802     -109.392      -19.858      168.298      116.573       71.890    28324.149    13589.352     5168.154        9.772        2.354      384.684       86.258        0.050      349.537       30.034      862.422
07/06/2014  21:25:00     -384.334     -156.091      -32.541      146.221      128.677       64.196    21380.693    16557.719     4121.121       10.759        2.103      414.821       55.627        0.018      349.528       30.018      862.421
07/06/2014  21:26:00     -338.541      -56.870      -21.033      150.327      166.101       66.813    22598.202    27589.500     4464.032        8.646        2.733      343.284       72.851        0.045      349.516       29.998      862.413
07/06/2014  21:27:00     -429.851      -61.155      -14.878      150.329      117.009       90.012    22598.933    13691.019     8102.145       11.656        2.220      434.180       92.757        0.046      349.512       29.991      862.408
07/06/2014  21:28:00     -388.598      -80.722       -7.902      190.267      128.496       81.424    36201.700    16511.241     6629.798       10.845        2.967      396.893       91.593        0.053      349.485       29.944      862.397
07/06/2014  21:29:00     -435.541     -122.162      -15.615      208.762      167.943       79.113    43581.692    28204.776     6258.842       14.144        3.902      452.349       81.466        0.032      349.474       29.924      862.404
07/06/2014  21:30:00     -337.141     -126.342       -3.566      199.327      124.426       79.827    39731.222    15481.882     6372.317        9.560        3.079      360.036       92.905        0.067      349.464       29.908      862.419
07/06/2014  21:31:00     -320.935      -37.020        0.929      183.795      112.211       77.025    33780.477    12591.317     5932.846        7.833        2.615      323.063       96.891        0.090      349.438       29.862      862.428
07/06/2014  21:32:00     -455.615     -118.013      -18.890      247.498      145.509       72.921    61255.069    21172.827     5317.440       15.479        4.387      470.650       95.186        0.041      349.461       29.902      862.424
07/06/2014  21:33:00     -282.559      -74.822      -12.340      146.667      124.894       73.176    21511.311    15598.525     5354.727        6.402        2.123      292.297       71.999        0.061      349.428       29.845      862.414
07/06/2014  21:34:00     -249.986      -21.287       -3.680      108.947       96.887       59.870    11869.345     9387.135     3584.474        4.390        1.242      250.891       53.671        0.046      349.397       29.791      862.422
07/06/2014  21:35:00     -106.996      -48.965       16.640      120.136       95.841       61.198    14432.569     9185.514     3745.152        2.074        1.368      117.668       56.060        0.227      349.336       29.688      862.388
07/06/2014  21:36:00     -345.725     -171.550       -6.503      183.327      160.109       88.496    33608.927    25635.033     7831.557       10.803        3.354      385.947       92.264        0.057      349.368       29.739      862.396
07/06/2014  21:37:00     -310.885     -109.710      -24.626      212.054       98.002       80.346    44966.957     9604.481     6455.432        8.515        3.051      329.675      108.449        0.108      349.365       29.736      862.402
07/06/2014  21:38:00     -147.121       15.938       19.645      181.985       96.945       71.120    33118.624     9398.279     5058.013        3.492        2.379      147.982       82.392        0.310      349.313       29.647      862.414
07/06/2014  21:39:00     -309.829      -69.661      -12.215      141.099      124.674       66.953    19908.917    15543.642     4482.755        7.046        1.997      317.564       67.106        0.045      349.353       29.715      862.433
07/06/2014  21:40:00     -234.086      -31.932        4.638      142.131      126.841       66.009    20201.254    16088.528     4357.179        4.824        2.032      236.254       63.698        0.073      349.308       29.637      862.439
07/06/2014  21:41:00     -148.331       -5.952        3.164       98.626       73.469       49.914     9727.016     5397.743     2491.407        1.983        0.881      148.450       41.602        0.079      349.285       29.600      862.459
07/06/2014  21:42:00     -388.130      -47.584      -37.959      151.395       90.166       62.722    22920.536     8129.909     3934.010        9.466        1.749      391.036       68.483        0.031      349.337       29.688      862.444
07/06/2014  21:43:00     -319.416      -24.773      -20.950      189.506      117.169       66.522    35912.510    13728.591     4425.146        7.856        2.703      320.375       79.253        0.061      349.270       29.573      862.438
07/06/2014  21:44:00     -213.614      -62.892       -7.401      152.567       98.561       64.280    23276.789     9714.257     4131.920        4.338        1.856      222.680       72.302        0.105      349.244       29.527      862.445
07/06/2014  21:45:00     -228.984     -104.314        5.396      206.513      138.064       71.735    42647.555    19061.705     5145.845        6.509        3.343      251.625       86.865        0.119      349.305       29.633      862.451
07/06/2014  21:46:00     -298.682      -83.782      -37.304      148.803      166.065       76.955    22142.381    27577.570     5922.060        7.662        2.782      310.210       69.157        0.050      349.348       29.705      862.472
07/06/2014  21:47:00     -350.934      -98.468        0.780      191.859      131.175       68.837    36809.800    17206.816     4738.536        9.579        2.938      364.487       83.584        0.053      349.316       29.650      862.494
07/06/2014  21:48:00     -388.570      -99.856      -16.631      218.147      158.097       98.620    47587.948    24994.785     9725.857       12.176        4.115      401.195      118.511        0.087      349.298       29.620      862.496
07/06/2014  21:49:00     -308.823     -121.551        5.133      227.604      144.504       87.473    51803.484    20881.299     7651.541        9.524        4.017      331.883      121.740        0.135      349.298       29.620      862.493
07/06/2014  21:50:00     -238.305     -123.260       11.045      241.631      158.387      110.146    58385.670    25086.533    12132.175        8.384        4.780      268.295      118.014        0.193      349.279       29.587      862.460
07/06/2014  21:51:00     -294.665      -74.077        6.099      222.783      131.693       85.438    49632.425    17343.119     7299.636        8.330        3.714      303.833       91.370        0.090      349.297       29.617      862.516
07/06/2014  21:52:00     -315.033     -145.125       17.069      238.440      138.358       87.329    56853.440    19142.987     7626.275       10.210        4.181      346.853      114.248        0.108      349.305       29.633      862.537
07/06/2014  21:53:00     -329.098      -44.331       -6.134      188.883      109.335       86.248    35676.603    11954.213     7438.750        8.268        2.753      332.070      106.060        0.102      349.297       29.618      862.560
07/06/2014  21:54:00     -401.197     -103.915      -14.659      156.654      138.097       76.113    24540.613    19070.667     5793.192       11.068        2.470      414.436       78.285        0.036      349.298       29.620      862.578
07/06/2014  21:55:00     -313.264      -97.696        0.760      150.943      113.159       66.035    22783.742    12804.926     4360.557        7.381        1.997      328.145       73.017        0.050      349.239       29.519      862.599
07/06/2014  21:56:00     -307.164      -96.647      -13.772      144.487      106.095       55.503    20876.462    11256.224     3080.587        6.954        1.761      322.010       57.108        0.031      349.224       29.493      862.618
07/06/2014  21:57:00     -275.773      -76.073       -0.101      174.864      117.212       74.505    30577.453    13738.666     5550.947        6.584        2.493      286.073       77.948        0.074      349.224       29.491      862.636
07/06/2014  21:58:00     -413.623      -96.107      -35.575      138.850      110.037       68.523    19279.209    12108.116     4695.379       10.883        1.804      424.642       63.457        0.022      349.297       29.619      862.611
07/06/2014  21:59:00     -259.415      -67.267      -10.650      128.602      114.123       58.971    16538.415    13024.026     3477.609        5.248        1.652      267.994       59.402        0.049      349.217       29.480      862.625
07/06/2014  22:00:00     -215.363      -39.306      -17.643      130.101       95.365       43.606    16926.230     9094.494     1901.463        3.808        1.396      218.920       27.004        0.015      349.156       29.373      862.626
07/06/2014  22:01:00     -442.992      -69.005      -34.127      138.549      115.775       70.181    19195.739    13403.897     4925.432       11.984        1.876      448.335       70.610        0.025      349.191       29.434      862.636
07/06/2014  22:02:00     -406.993      -15.153      -28.706      143.142      116.201       72.183    20489.763    13502.665     5210.401       10.294        1.960      407.275       72.712        0.032      349.140       29.347      862.642
07/06/2014  22:03:00     -267.686      -33.593      -14.628      121.534       93.003       50.246    14770.555     8649.474     2524.675        4.947        1.297      269.785       53.813        0.040      349.106       29.286      862.649
07/06/2014  22:04:00     -374.752      -76.654      -25.294      130.041      101.541       61.484    16910.668    10310.676     3780.246        8.897        1.550      382.511       49.921        0.017      349.108       29.290      862.637
07/06/2014  22:05:00     -412.550      -83.806      -12.596      187.704      113.052       81.935    35232.939    12780.700     6713.354       11.604        2.736      420.976      100.262        0.057      349.065       29.214      862.656
07/06/2014  22:06:00     -283.546      -73.854       -7.856      146.067      105.364       73.360    21335.691    11101.506     5381.739        6.186        1.891      293.006       76.423        0.068      349.099       29.274      862.691
07/06/2014  22:07:00     -219.577      -20.360        5.028      136.921      118.934       60.622    18747.249    14145.351     3675.030        4.260        1.828      220.519       64.436        0.085      349.040       29.173      862.696
07/06/2014  22:08:00     -425.692     -100.232      -21.478      192.456      110.411       71.281    37039.440    12190.519     5081.044       12.301        2.716      437.333       70.934        0.026      349.115       29.301      862.667
07/06/2014  22:09:00     -422.904      -65.672      -22.102      202.957      181.856       76.340    41191.383    33071.500     5827.739       13.186        4.005      427.973       88.887        0.043      349.138       29.343      862.664
07/06/2014  22:10:00     -242.910      -74.684       -6.963      148.932      126.363       63.875    22180.696    15967.603     4080.017        5.342        2.111      254.132       64.646        0.065      349.080       29.241      862.651
07/06/2014  22:11:00     -447.405      -20.918      -27.031      211.771      132.194       89.604    44846.998    17475.241     8028.925       13.583        3.518      447.894      111.245        0.062      349.108       29.291      862.685
07/06/2014  22:12:00     -380.256     -136.709      -10.704      131.094      136.183       73.102    17185.509    18545.858     5343.973       10.223        2.054      404.084       50.076        0.015      349.087       29.254      862.675
07/06/2014  22:13:00     -202.672      -91.062        9.500      189.430      122.178       93.444    35883.785    14927.469     8731.803        5.449        2.977      222.189      112.464        0.256      349.069       29.222      862.666
07/06/2014  22:14:00     -237.141     -132.849       -6.454      146.823      136.041       68.798    21557.052    18507.095     4733.221        5.935        2.240      271.817       67.806        0.062      349.086       29.252      862.653
07/06/2014  22:15:00     -377.338     -179.240      -15.546      188.078      165.614       88.555    35373.305    27428.071     7842.022       12.269        3.532      417.745       90.864        0.047      349.153       29.369      862.619
07/06/2014  22:16:00     -271.025     -174.704       -6.125      185.803      179.211       88.320    34522.628    32116.745     7800.345        8.921        3.722      322.453       92.605        0.082      349.189       29.432      862.651
07/06/2014  22:17:00     -324.823        3.473       -7.157      180.944      153.293       68.333    32740.755    23498.816     4669.387        8.323        3.045      324.841       64.160        0.039      349.138       29.342      862.708
07/06/2014  22:18:00     -242.187      -84.520       -9.003      134.834      100.982       58.247    18180.127    10197.295     3392.749        4.882        1.589      256.512       59.152        0.053      349.071       29.226      862.701
07/06/2014  22:19:00     -263.996      -13.043      -14.981       95.995      115.876       49.513     9215.059    13427.238     2451.545        4.759        1.255      264.318       44.014        0.028      349.025       29.146      862.760
07/06/2014  22:20:00     -109.268      -52.944       12.962      110.703      104.289       59.235    12255.221    10876.163     3508.739        2.077        1.332      121.419       55.783        0.211      348.952       29.021      862.778
07/06/2014  22:21:00     -229.433       43.332      -17.462      114.380       89.995       59.666    13082.761     8099.044     3560.012        3.978        1.237      233.489       56.798        0.059      349.005       29.112      862.772
07/06/2014  22:22:00     -308.267      -58.889      -25.984      104.534      107.919       47.744    10927.426    11646.527     2279.470        6.201        1.243      313.841       48.437        0.024      349.035       29.165      862.824
07/06/2014  22:23:00     -377.052       -8.637      -34.878       97.214       96.867       46.742     9450.658     9383.217     2184.814        8.224        1.051      377.150       38.782        0.011      349.057       29.202      862.822
07/06/2014  22:24:00     -329.255        4.206      -29.448      120.509       97.614       54.660    14522.507     9528.513     2987.697        6.816        1.352      329.282       50.471        0.023      349.099       29.275      862.812
07/06/2014  22:25:00     -189.174      -50.659       -8.282       70.693       76.310       39.683     4997.549     5823.265     1574.733        2.541        0.620      195.840       29.198        0.022      348.957       29.031      862.826
07/06/2014  22:26:00     -254.721     -111.037       -7.459      106.856       93.712       53.098    11418.151     8781.995     2819.361        5.014        1.151      277.870       55.223        0.039      348.983       29.073      862.825
07/06/2014  22:27:00     -207.300        9.054        2.961       90.676       75.320       47.598     8222.074     5673.131     2265.569        2.961        0.808      207.497       37.735        0.033      348.920       28.964      862.844
07/06/2014  22:28:00     -191.317       51.743      -19.034       79.401       52.804       37.785     6304.466     2788.281     1427.731        2.508        0.526      198.190       32.766        0.027      348.828       28.806      862.849
07/06/2014  22:29:00      -53.126      -27.267       -5.634       93.660       44.976       38.218     8772.163     2022.849     1460.597        0.792        0.613       59.715       42.443        0.505      348.756       28.684      862.850
07/06/2014  22:30:00     -223.381      -62.601      -13.166      139.119       75.840       42.753    19354.191     5751.711     1827.819        4.046        1.347      231.987       49.883        0.046      348.777       28.718      862.870
07/06/2014  22:31:00     -332.906      -51.032      -34.689      105.714       82.306       49.647    11175.411     6774.309     2464.775        6.752        1.021      336.794       41.906        0.015      348.756       28.681      862.876
07/06/2014  22:32:00     -394.615        1.520      -24.985      149.776      111.271       59.363    22432.838    12381.234     3523.998        9.734        1.917      394.618       67.511        0.029      348.813       28.780      862.875
07/06/2014  22:33:00     -298.532      -44.694      -22.944      154.903       98.697       59.863    23994.897     9741.136     3583.566        6.448        1.866      301.860       73.082        0.059      348.858       28.858      862.867
07/06/2014  22:34:00     -282.203      -25.662      -27.514       97.513      100.686       46.504     9508.821    10137.669     2162.653        5.143        1.090      283.367       52.048        0.034      348.841       28.828      862.862
07/06/2014  22:35:00     -292.567      -24.231      -23.213       75.327       64.321       42.415     5674.151     4137.242     1799.031        4.916        0.581      293.569       37.111        0.016      348.832       28.812      862.883
07/06/2014  22:36:00     -246.273        5.561      -28.894       88.414       92.245       44.574     7817.052     8509.163     1986.839        3.991        0.916      246.335       47.924        0.038      348.847       28.838      862.874
07/06/2014  22:37:00     -154.823       17.757        0.244      106.142       89.670       34.401    11266.195     8040.755     1183.420        2.238        1.025      155.838       47.639        0.093      348.777       28.720      862.860
07/06/2014  22:38:00     -191.868       42.366      -17.099       70.795       60.315       39.503     5011.901     3637.926     1560.456        2.455        0.511      196.489       23.596        0.014      348.804       28.765      862.895
07/06/2014  22:39:00     -190.895      -53.893       -8.733       84.358       77.893       42.412     7116.350     6067.266     1798.756        2.720        0.749      198.356       46.129        0.054      348.804       28.764      862.887
07/06/2014  22:40:00     -223.760        9.971       -7.840      126.479       84.992       43.772    15996.839     7223.584     1915.989        3.768        1.257      223.982       53.600        0.057      348.849       28.843      862.884
07/06/2014  22:41:00     -184.655       -5.272       -0.681      115.427       74.197       42.837    13323.355     5505.264     1835.012        2.739        1.033      184.730       44.944        0.059      348.794       28.748      862.894
07/06/2014  22:42:00     -107.095      -22.518        0.157       81.930       65.195       35.636     6712.460     4250.325     1269.917        1.210        0.612      109.437       32.129        0.086      348.772       28.713      862.947
07/06/2014  22:43:00     -188.215      -70.422      -13.568       86.939       64.618       40.620     7558.398     4175.497     1650.021        2.697        0.669      200.958       37.973        0.036      348.800       28.758      862.915
07/06/2014  22:44:00     -147.041       -1.338        1.267      102.127       84.892       44.628    10429.887     7206.705     1991.673        2.062        0.981      147.047       48.292        0.108      348.775       28.716      862.890
07/06/2014  22:45:00     -208.218      -26.488      -19.365       63.618       61.254       44.825     4047.211     3752.109     2009.298        2.712        0.490      209.896       39.999        0.036      348.837       28.821      862.899
07/06/2014  22:46:00     -196.987      -20.513      -13.298       99.033       90.406       52.731     9807.631     8173.236     2780.555        3.008        1.038      198.052       48.679        0.060      348.823       28.799      862.908
07/06/2014  22:47:00     -344.252       -8.597      -27.833      130.013      102.328       50.144    16903.463    10471.019     2514.418        7.462        1.494      344.359       45.155        0.017      348.947       29.011      862.901
07/06/2014  22:48:00     -283.308       28.193      -21.717       80.224       62.825       45.334     6435.927     3947.030     2055.150        4.698        0.622      284.707       43.726        0.024      348.917       28.958      862.898
07/06/2014  22:49:00     -245.661      -61.124       -3.739      121.703      123.328       67.037    14811.530    15209.870     4493.921        4.930        1.726      253.151       61.159        0.058      348.878       28.892      862.908
07/06/2014  22:50:00     -114.896      -42.305        8.083      136.965       75.172       48.650    18759.416     5650.895     2366.812        2.091        1.339      122.437       66.377        0.294      348.898       28.927      862.914
07/06/2014  22:51:00     -166.284      -88.515       -6.578      133.130      128.326       60.348    17723.542    16467.437     3641.928        3.667        1.892      188.375       74.784        0.158      348.960       29.036      862.935
07/06/2014  22:52:00     -157.887      -31.721        9.845      151.315      102.285       57.576    22896.256    10462.178     3314.956        3.135        1.834      161.042       66.115        0.169      348.955       29.027      862.912
07/06/2014  22:53:00     -236.977     -111.575        4.641      111.911       80.697       51.635    12524.142     6511.979     2666.221        4.516        1.085      261.929       55.316        0.045      348.966       29.044      862.919
07/06/2014  22:54:00     -142.983      -97.094       29.346      140.142      113.897       61.995    19639.845    12972.448     3843.438        3.359        1.823      172.833       69.908        0.164      348.867       28.874      862.908
07/06/2014  22:55:00     -232.134      -62.105      -10.459      140.226       79.246       43.687    19663.467     6279.856     1908.576        4.285        1.393      240.298       55.758        0.054      348.895       28.922      862.921
07/06/2014  22:56:00     -167.724      -66.348        0.629       83.874       46.329       32.176     7034.812     2146.420     1035.303        2.137        0.511      180.370       38.115        0.045      348.851       28.846      862.934
07/06/2014  22:57:00     -187.685      -79.953        6.218      151.933      106.173       51.025    23083.723    11272.798     2603.574        3.930        1.848      204.005       58.579        0.082      348.844       28.834      862.968
07/06/2014  22:58:00     -267.598      -77.978      -12.387      104.158      121.926       59.447    10848.808    14865.983     3533.904        5.354        1.462      278.728       60.508        0.047      348.876       28.889      862.977
07/06/2014  22:59:00     -169.252      -77.588        4.499      123.977       96.958       57.197    15370.303     9400.935     3271.510        3.136        1.402      186.188       64.699        0.121      348.856       28.855      862.980
07/06/2014  23:00:00     -196.368      -53.231      -15.757      112.869       84.392       49.287    12739.483     7121.963     2429.247        3.196        1.115      203.455       50.943        0.063      348.878       28.892      863.000
07/06/2014  23:01:00     -265.056       12.182      -24.906       91.403       85.428       47.607     8354.567     7297.861     2266.433        4.447        0.896      265.336       37.483        0.020      348.874       28.884      863.001
07/06/2014  23:02:00     -312.408      -98.474      -34.769      119.745       80.320       50.547    14338.954     6451.327     2554.951        6.592        1.167      327.560       45.467        0.019      348.836       28.818      863.000
07/06/2014  23:03:00     -176.019      -52.949        2.801      104.397      102.911       49.065    10898.729    10590.649     2407.421        2.884        1.195      183.810       51.957        0.080      348.764       28.695      863.032
07/06/2014  23:04:00     -177.877       35.598       -6.804      102.831       60.445       44.421    10574.126     3653.574     1973.248        2.457        0.810      181.404       39.830        0.048      348.806       28.768      863.052
07/06/2014  23:05:00     -201.773      -44.129       -4.265       90.845       77.988       51.512     8252.812     6082.158     2653.508        2.983        0.849      206.542       47.595        0.053      348.808       28.772      863.042
07/06/2014  23:06:00     -193.286      -25.116       -8.351      110.405       73.456       40.396    12189.193     5395.834     1631.841        2.864        0.961      194.911       48.908        0.063      348.834       28.817      863.037
07/06/2014  23:07:00     -147.874       30.064      -17.677       90.819       47.813       34.159     8248.038     2286.041     1166.868        1.739        0.585      150.899       29.414        0.038      348.734       28.647      863.069
07/06/2014  23:08:00     -151.314       23.363       -6.568       59.921       52.751       29.326     3590.555     2782.705      860.018        1.536        0.362      153.107       28.717        0.035      348.687       28.563      863.074
07/06/2014  23:09:00     -126.525      -30.229        2.226       93.968       48.188       42.148     8830.029     2322.041     1776.473        1.493        0.646      130.086       49.478        0.145      348.641       28.485      863.073
07/06/2014  23:10:00     -172.912       35.552       -5.707       73.162       57.208       24.310     5352.622     3272.754      590.962        2.020        0.461      176.529       22.986        0.017      348.725       28.629      863.064
07/06/2014  23:11:00     -252.620       60.704      -22.354       85.549       89.438       41.836     7318.659     7999.223     1750.257        4.253        0.853      259.811       34.052        0.017      348.705       28.593      863.094
07/06/2014  23:12:00     -114.741      -36.219        3.765       64.867       56.787       36.402     4207.746     3224.806     1325.110        1.162        0.438      120.322       35.904        0.089      348.642       28.487      863.095
07/06/2014  23:13:00     -183.108       27.778       -2.218      107.951       95.086       46.424    11653.328     9041.411     2155.228        2.857        1.142      185.203       51.998        0.079      348.744       28.661      863.073
07/06/2014  23:14:00     -169.854       -9.338       -7.040      138.411       56.247       45.360    19157.724     3163.771     2057.513        2.668        1.219      170.110       61.866        0.132      348.675       28.544      863.083
07/06/2014  23:15:00     -135.774       36.225      -18.363       55.435       47.054       30.540     3073.069     2214.058      932.719        1.315        0.311      140.523       17.945        0.016      348.615       28.439      863.107
07/06/2014  23:16:00      -85.887      149.301      -22.349       54.928       34.553       29.204     3017.085     1193.921      852.878        1.761        0.253      172.242       22.659        0.017      348.589       28.395      863.128
07/06/2014  23:17:00      -25.396       99.826       11.764       36.160       51.275       35.639     1307.560     2629.095     1270.170        0.798        0.260      103.006       22.350        0.047      348.531       28.295      863.115
07/06/2014  23:18:00     -142.361       47.128      -16.596       95.372       29.464       33.567     9095.753      868.107     1126.761        1.692        0.555      149.959       45.321        0.091      348.571       28.363      863.106
07/06/2014  23:19:00     -136.184       26.581      -17.237       49.351       41.363       26.724     2435.487     1710.918      714.190        1.220        0.243      138.754       21.620        0.024      348.520       28.276      863.117
07/06/2014  23:20:00      -67.617      -28.466        0.159       62.138       45.614       33.696     3861.163     2080.614     1135.448        0.623        0.354       73.365       36.347        0.245      348.474       28.195      863.144
07/06/2014  23:21:00      -69.384       51.757       -1.164       36.902       64.702       29.265     1361.770     4186.358      856.413        0.695        0.320       86.562       13.824        0.026      348.439       28.137      863.155
07/06/2014  23:22:00     -122.080       49.598      -18.050       69.745       66.302       38.761     4864.387     4395.913     1502.437        1.422        0.538      131.771       45.835        0.121      348.583       28.384      863.159
07/06/2014  23:23:00      -88.880       75.765        1.104       84.357       82.967       50.270     7116.162     6883.600     2527.032        1.508        0.826      116.790       32.898        0.079      348.476       28.199      863.162
07/06/2014  23:24:00     -139.422      131.722      -28.927       69.594       64.753       44.217     4843.340     4192.903     1955.128        2.431        0.550      191.805       43.295        0.051      348.709       28.600      863.199
07/06/2014  23:25:00     -159.289       87.290      -24.281       88.647       80.039       41.615     7858.318     6406.300     1731.815        2.479        0.800      181.639       46.316        0.065      348.853       28.851      863.211
07/06/2014  23:26:00     -105.105       66.817      -19.304       40.129       49.824       25.712     1610.338     2482.451      661.102        1.032        0.238      124.545       17.870        0.021      348.657       28.512      863.218
07/06/2014  23:27:00     -124.362      -10.886      -19.470       29.756       27.010       21.569      885.425      729.539      465.209        0.902        0.104      124.838       17.122        0.019      348.672       28.538      863.227
07/06/2014  23:28:00     -102.281       49.144      -20.963       33.176       36.822       19.633     1100.661     1355.871      385.467        0.808        0.142      113.475       17.927        0.025      348.747       28.668      863.234
07/06/2014  23:29:00      -34.708       66.921        4.319       55.156       57.967       27.828     3042.217     3360.204      774.385        0.644        0.359       75.387       35.427        0.221      348.704       28.594      863.208
07/06/2014  23:30:00      -48.533       14.237       -2.631       36.116       26.823       11.987     1304.393      719.498      143.682        0.237        0.108       50.578       12.136        0.058      348.754       28.682      863.174
07/06/2014  23:31:00      -63.280       16.144       -6.845       24.621       19.832        7.495      606.213      393.317       56.178        0.268        0.053       65.307        5.435        0.007      348.531       28.294      863.177
07/06/2014  23:32:00     -135.104       24.163      -14.578       28.960       17.117       11.506      838.664      292.979      132.398        1.016        0.063      137.248       10.380        0.006      348.731       28.639      863.209
07/06/2014  23:33:00     -133.513       26.354      -13.774       26.912       27.793       16.252      724.239      772.456      264.139        1.024        0.088      136.089       13.719        0.010      348.454       28.162      863.238
07/06/2014  23:34:00     -119.776       33.518      -13.797       36.081       27.031       18.585     1301.833      730.651      345.410        0.902        0.119      124.377       12.589        0.010      348.542       28.316      863.255
07/06/2014  23:35:00      -89.522       -6.627       -0.945       34.486       19.215       18.022     1189.268      369.214      324.802        0.497        0.094       89.767       18.284        0.041      348.544       28.318      863.242
07/06/2014  23:36:00      -66.835      -16.459       -0.174       23.333       19.664       17.807      544.451      386.687      317.087        0.299        0.062       68.832       10.240        0.022      348.471       28.192      863.243
07/06/2014  23:37:00      -67.221      -12.576        0.593       51.973       24.909       23.265     2701.141      620.434      541.250        0.427        0.193       68.388       26.589        0.151      348.311       27.914      863.237
07/06/2014  23:38:00     -104.148      -20.179       -6.144       40.862       15.220       15.343     1669.720      231.635      235.400        0.671        0.107      106.085       19.070        0.032      348.450       28.155      863.230
07/06/2014  23:39:00       11.550       40.369        6.730       20.264       20.454       17.720      410.610      418.377      313.999        0.148        0.057       41.989       16.342        0.151      348.301       27.897      863.215
07/06/2014  23:40:00      -54.062      103.572      -23.119       38.312       35.571       13.042     1467.838     1265.282      170.094        0.854        0.145      116.833       12.144        0.011      348.481       28.208      863.225
07/06/2014  23:41:00     -106.739       48.599       -7.743       38.316       25.132       20.187     1468.151      631.625      407.524        0.816        0.125      117.282       17.312        0.022      348.385       28.042      863.235
07/06/2014  23:42:00      -87.948       24.755       -9.374       24.812       18.515       12.405      615.655      342.809      153.896        0.477        0.056       91.366        7.690        0.007      348.306       27.905      863.225
07/06/2014  23:43:00      -83.952       80.290      -17.012       20.743       36.990       17.713      430.282     1368.269      313.763        0.795        0.106      116.165       15.055        0.017      348.394       28.060      863.201
07/06/2014  23:44:00     -115.818      112.765      -27.242       34.681       34.669       18.886     1202.762     1201.912      356.668        1.482        0.138      161.647       15.922        0.010      348.290       27.877      863.199
07/06/2014  23:45:00     -107.184       71.854      -15.263       42.294       66.922       26.476     1788.763     4478.500      700.981        1.193        0.348      129.040       29.519        0.052      348.307       27.907      863.217
07/06/2014  23:46:00      -91.600      -31.536       -4.213       61.443       47.821       28.776     3775.203     2286.821      828.076        0.815        0.345       96.877       27.609        0.081      347.983       27.347      863.221
07/06/2014  23:47:00     -125.461       43.335      -11.926       32.185       21.710       19.915     1035.891      471.328      396.591        0.983        0.095      132.734       17.655        0.018      348.026       27.422      863.228
07/06/2014  23:48:00      -67.218       23.255       -9.085       26.961       26.720       13.248      726.896      713.960      175.511        0.338        0.081       71.127       12.924        0.033      347.927       27.250      863.247
07/06/2014  23:49:00      -51.041       19.879       -4.045       34.908       38.828       18.291     1218.560     1507.630      334.546        0.304        0.153       54.776       15.592        0.081      347.905       27.210      863.248
07/06/2014  23:50:00      -54.753       68.541       -4.306       54.732       19.050       28.101     2995.560      362.914      789.672        0.593        0.207       87.726       36.278        0.171      347.912       27.226      863.234
07/06/2014  23:51:00      -47.724       45.325       -4.210       24.639       25.090       17.160      607.099      629.507      294.475        0.294        0.077       65.817       16.165        0.060      347.935       27.264      863.228
07/06/2014  23:52:00      -25.072       35.311       -4.483       24.835       18.763       15.016      616.761      352.045      225.485        0.154        0.060       43.307       14.453        0.111      348.090       27.534      863.221
07/06/2014  23:53:00      -16.430       63.841      -11.481       20.078       19.041       10.555      403.127      362.574      111.407        0.268        0.044       65.921        8.958        0.018      348.115       27.575      863.209
07/06/2014  23:54:00      -57.183       61.550      -10.895       41.115       22.554       18.258     1690.446      508.700      333.340        0.485        0.127       84.014       18.880        0.051      347.942       27.278      863.215
07/06/2014  23:55:00      -88.510       62.854      -12.251       33.561       21.061       16.047     1126.328      443.580      257.504        0.688        0.091      108.557       12.978        0.014      348.063       27.484      863.215
07/06/2014  23:56:00      -58.088       55.998      -12.290       19.897       16.287       12.534      395.881      265.263      157.109        0.374        0.041       80.685       13.253        0.027      347.961       27.310      863.212
07/06/2014  23:57:00      -38.106       45.462       -9.968       15.503       11.804        7.934      240.347      139.327       62.946        0.203        0.022       59.320        5.954        0.010      347.958       27.304      863.204
07/06/2014  23:58:00      -64.524       10.288       -7.553       16.739       16.325       10.873      280.194      266.511      118.231        0.250        0.033       65.339        9.802        0.023      347.960       27.309      863.195
07/06/2014  23:59:00      -60.763       31.472       -5.971       29.537       18.598       11.898      872.451      345.874      141.558        0.304        0.068       68.430       13.722        0.040      347.868       27.148      863.191
